[[{"header":{"parameterUnit":"m.s-1","parameterCategory":1,"la1":30.6,"la2":29.2853,"lo1":-89.7004,"lo2":-87.6739,"dy":0.0162,"dx":0.0183,"nx":112,"ny":82,"refTime":"2024-06-17T18:00:00:Z","depth":0,"parameterNumber":2,"parameterNumberName":"U-component_of_WINDS"},"data":[0.0,0.0,0.0,0.0,0.0,0.0,0.0,0.0,0.0,0.0,0.0,0.0,0.0,0.0,0.0,0.0,0.0,0.0,0.0,0.0,0.0,0.0,0.0,0.0,0.0,0.0,0.0,0.0,0.0,0.0,0.0,0.0,0.0,0.0,0.0,0.0,0.0,0.0,0.0,0.0,0.0,0.0,0.0,0.0,0.0,0.0,0.0,0.0,0.0,0.0,0.0,0.0,0.0,0.0,0.0,0.0,0.0,0.0,0.0,0.0,0.0,0.0,0.0,0.0,0.0,0.0,0.0,0.0,0.0,0.0,0.0,0.0,0.0,0.0,0.0,0.0,0.0,0.0,0.0,0.0,0.0,0.0,0.0,0.0,0.0,0.0,0.0,0.0,0.0,0.0,0.2224,0.3421,0.207,0.1286,0.167,0.17,0.2653,0.4889,0.0,0.0,0.0,0.0,0.0,0.0,0.0,0.0,0.0,0.0,0.0,0.0,0.0,0.0,0.0,0.0,0.0,0.0,0.0,0.0,0.0,0.0,0.0,0.0,0.0,0.0,0.0,0.0,0.0,0.0,0.0,0.0,0.0,0.0,0.0,0.0,0.0,0.0,0.0,0.0,0.0,0.0,0.0,0.0,0.0,0.0,0.0,0.0,0.0,0.0,0.0,0.0,0.0,0.0,0.0,0.0,0.0,0.0,0.0,0.0,0.0,0.0,0.0,0.0,0.0,0.0,0.0,0.0,0.0,0.0,0.0,0.0,0.0,0.0,0.0,0.0,0.0,0.0,0.0,0.0,0.0,0.0,0.0,0.0,0.0,0.0,0.0,0.0,0.0,0.0,0.0,0.0,0.0,0.0,0.0,0.0,0.0,0.0,0.0,0.0,0.0,0.0,0.0,0.0,0.2051,0.0776,0.0658,0.0854,0.1263,0.1494,0.2642,0.5022,0.0,0.0,0.0,0.0,0.0,0.0,0.0,0.0,0.0,0.0,0.0,0.0,0.0,0.0,0.0,0.0,0.0,0.0,0.0,0.0,0.0,0.0,0.0,0.0,0.0,0.0,0.0,0.0,0.0,0.0,0.0,0.0,0.0,0.0,0.0,0.0,0.0,0.0,0.0,0.0,0.0,0.0,0.0,0.0,0.0,0.0,0.0,0.0,0.0,0.0,0.0,0.0,0.0,0.0,0.0,0.0,0.0,0.0,0.0,0.0,0.0,0.0,0.0,0.0,0.0,0.0,0.0,0.0,0.0,0.0,0.0,0.0,0.0,0.0,0.0,0.0,0.0,0.0,0.0,0.0,0.0,0.0,0.0,0.0,0.0,0.0,0.0,0.0,0.0,0.0,0.0,0.0,0.0,0.0,0.0,0.0,0.0,0.0,0.0,0.0,0.0,0.0,0.0,0.1661,0.1362,-0.1076,-0.0373,0.0447,0.0825,0.1146,0.2351,0.4728,0.4447,0.0,0.0,0.0,0.0,0.0,0.0,0.0,0.0,0.0,0.0,0.0,0.0,0.0,0.0,0.0,0.0,0.0,0.0,0.0,0.0,0.0,0.0,0.0,0.0,0.0,0.0,0.0,0.0,0.0,0.0,0.0,0.0,0.0,0.0,0.0,0.0,0.0,0.0,0.0,0.0,0.0,0.0,0.0,0.0,0.0,0.0,0.0,0.0,0.0,0.0,0.0,0.0,0.0,0.0,0.0,0.0,0.0,0.0,0.0,0.0,0.0,0.0,0.0,0.0,0.0,0.0,0.0,0.0,0.0,0.0,0.0,0.0,0.0,0.0,0.0,0.0,0.0,0.0,0.0,0.0,0.0,0.0,0.0,0.0,0.0,0.0,0.0,0.0,0.0,0.0,0.0,0.0,0.0,0.0,0.0,0.0,0.0,0.0,0.0,0.0,0.0,0.0,0.0033,-0.0281,-0.2292,-0.0983,0.015,0.0567,0.0822,0.1998,0.4395,0.4254,0.0,0.0,0.0,0.0,0.0,0.0,0.0,0.0,0.0,0.0,0.0,0.0,0.0,0.0,0.0,0.0,0.0,0.0,0.0,0.0,0.0,0.0,0.0,0.0,0.0,0.0,0.0,0.0,0.0,0.0,0.0,0.0,0.0,0.0,0.0,0.0,0.0,0.0,0.0,0.0,0.0,0.0,0.0,0.0,0.0,0.0,0.0,0.0,0.0,0.0,0.0,0.0,0.0,0.0,0.0,0.0,0.0,0.0,0.0,0.0,0.0,0.0,0.0,0.0,0.0,0.0,0.0,0.0,0.0,0.0,0.0,0.0,0.0,0.0,0.0,0.0,0.0,0.0,0.0,0.0,0.0,0.0,0.0,0.0,0.0,0.0,0.0,0.0,0.0,0.0,0.0,0.0,0.0,0.0,0.0,0.0,0.0,0.0,0.0,0.0,0.0,0.0,-0.2817,-0.3648,-0.2612,-0.099,0.0151,0.0568,0.0553,0.1654,0.4259,0.3985,0.0,0.0,0.0,0.0,0.0,0.0,0.0,0.0,0.0,0.0,0.0,0.0,0.0,0.0,0.0,0.0,0.0,0.0,0.0,0.0,0.0,0.0,0.0,0.0,0.0,0.0,0.0,0.0,0.0,0.0,0.0,0.0,0.0,0.0,0.0,0.0,0.0,0.0,0.0,0.0,0.0,0.0,0.0,0.0,0.0,0.0,0.0,0.0,0.0,0.0,0.0,0.0,0.0,0.0,0.0,0.0,0.0,0.0,0.0,0.0,0.0,0.0,0.0,0.0,0.0,0.0,0.0,0.0,0.0,0.0,0.0,0.0,0.0,0.0,0.0,0.0,0.0,0.0,0.0,0.0,0.0,0.0,0.0,0.0,0.0,0.0,0.0,0.0,0.0,0.0,0.0,0.0,0.0,0.0,0.0,0.0,0.0,0.0,0.0,0.0,0.0,0.0,-0.4221,-0.4937,-0.5569,-0.3175,-0.1513,-0.1361,-0.0213,0.1512,0.3867,0.0,0.0,0.0,0.0,0.0,0.0,0.0,0.0,0.0,0.0,0.0,0.0,0.0,0.0,0.0,0.0,0.0,0.0,0.0,0.0,0.0,0.0,0.0,0.0,0.0,0.0,0.0,0.0,0.0,0.0,0.0,0.0,0.0,0.0,0.0,0.0,0.0,0.0,0.0,0.0,0.0,0.0,0.0,0.0,0.0,0.0,0.0,0.0,0.0,0.0,0.0,0.0,0.0,0.0,0.0,0.0,0.0,0.0,0.0,0.0,0.0,0.0,0.0,0.0,0.0,0.0,0.0,0.0,0.0,0.0,0.0,0.0,0.0,0.0,0.0,0.0,0.0,0.0,0.0,0.0,0.0,0.0,0.0,0.0,0.0,0.0,0.0,0.0,0.0,0.0,0.0,0.0,0.0,0.0,0.0,0.0,0.0,0.0,0.0,0.0,0.0,0.0,-0.4878,-0.5366,-0.6091,-0.7435,-0.5028,-0.3317,-0.3253,-0.1534,0.0529,0.2817,0.0,0.0,0.0,0.0,0.0,0.0,0.0,0.0,0.0,0.0,0.0,0.0,0.0,0.0,0.0,0.0,0.0,0.0,0.0,0.0,0.0,0.0,0.0,0.0,0.0,0.0,0.0,0.0,0.0,0.0,0.0,0.0,0.0,0.0,0.0,0.0,0.0,0.0,0.0,0.0,0.0,0.0,0.0,0.0,0.0,0.0,0.0,0.0,0.0,0.0,0.0,0.0,0.0,0.0,0.0,0.0,0.0,0.0,0.0,0.0,0.0,0.0,0.0,0.0,0.0,0.0,0.0,0.0,0.0,0.0,0.0,0.0,0.0,0.0,0.0,0.0,0.0,0.0,0.0,0.0,0.0,0.0,0.0,0.0,0.0,0.0,0.0,0.0,0.0,0.0,0.0,0.0,0.0,0.0,0.0,0.0,0.0,0.0,0.0,0.0,0.0,0.0,-0.5172,-0.6446,-0.7448,-0.7715,-0.6233,-0.512,-0.4842,-0.341,-0.1466,0.0,0.0,0.0,0.0,0.0,0.0,0.0,0.0,0.0,0.0,0.0,0.0,0.0,0.0,0.0,0.0,0.0,0.0,0.0,0.0,0.0,0.0,0.0,0.0,0.0,0.0,0.0,0.0,0.0,0.0,0.0,0.0,0.0,0.0,0.0,0.0,0.0,0.0,0.0,0.0,0.0,0.0,0.0,0.0,0.0,0.0,0.0,0.0,0.0,0.0,0.0,0.0,0.0,0.0,0.0,0.0,0.0,0.0,0.0,0.0,0.0,0.0,0.0,0.0,0.0,0.0,0.0,0.0,0.0,0.0,0.0,0.0,0.0,0.0,0.0,0.0,0.0,0.0,0.0,0.0,0.0,0.0,0.0,0.0,0.0,0.0,0.0,0.0,0.0,0.0,0.0,0.0,0.0,0.0,0.0,0.0,0.0,0.0,0.0,0.0,0.0,0.0,0.0,-0.5152,-0.7559,-0.931,-0.9582,-0.8006,-0.6887,-0.6735,-0.5063,-0.2625,0.0766,0.0,0.0,0.0,0.0,0.0,0.0,0.0,0.0,0.0,0.0,0.0,0.0,0.0,0.0,0.0,0.0,0.0,0.0,0.0,0.0,0.0,0.0,0.0,0.0,0.0,0.0,0.0,0.0,0.0,0.0,0.0,0.0,0.0,0.0,0.0,0.0,0.0,0.0,0.0,0.0,0.0,0.0,0.0,0.0,0.0,0.0,0.0,0.0,0.0,0.0,0.0,0.0,0.0,0.0,0.0,0.0,0.0,0.0,0.0,0.0,0.0,0.0,0.0,0.0,0.0,0.0,0.0,0.0,0.0,0.0,0.0,0.0,0.0,0.0,0.0,0.0,0.0,0.0,0.0,0.0,0.0,0.0,0.0,0.0,0.0,0.0,0.0,0.0,0.0,0.0,0.0,0.0,0.0,0.0,0.0,0.0,0.0,0.0,0.0,0.0,0.0,0.0,-0.5201,-0.8076,-1.0188,-1.0468,-0.9517,-0.876,-0.8534,-0.6835,-0.433,-0.088,0.0,0.0,0.0,0.0,0.0,0.0,0.0,0.0,0.0,0.0,0.0,0.0,0.0,0.0,0.0,0.0,0.0,0.0,0.0,0.0,0.0,0.0,0.0,0.0,0.0,0.0,0.0,0.0,0.0,0.0,0.0,0.0,0.0,0.0,0.0,0.0,0.0,0.0,0.0,0.0,0.0,0.0,0.0,0.0,0.0,0.0,0.0,0.0,0.0,0.0,0.0,0.0,0.0,0.0,0.0,0.0,0.0,0.0,0.0,0.0,0.0,0.0,0.0,0.0,0.0,0.0,0.0,0.0,0.0,0.0,0.0,0.0,0.0,0.0,0.0,0.0,0.0,0.0,0.0,0.0,0.0,0.0,0.0,0.0,0.0,0.0,0.0,0.0,0.0,0.0,0.0,0.0,0.0,0.0,0.0,0.0,0.0,0.0,0.0,0.0,0.0,0.0,-0.5325,-0.8233,-1.034,-1.0604,-1.062,-1.0433,-1.0085,-0.8593,-0.6446,-0.3472,0.0,0.0,0.0,0.0,0.0,0.0,0.0,0.0,0.0,0.0,0.0,0.0,0.0,0.0,0.0,0.0,0.0,0.0,0.0,0.0,0.0,0.0,0.0,0.0,0.0,0.0,0.0,0.0,0.0,0.0,0.0,0.0,0.0,0.0,0.0,0.0,0.0,0.0,0.0,0.0,0.0,0.0,0.0,0.0,0.0,0.0,0.0,0.0,0.0,0.0,0.0,0.0,0.0,0.0,0.0,0.0,0.0,0.0,0.0,0.0,-0.3407,0.0462,0.0,0.0,0.0,0.0,0.0,0.0,0.0,0.0,0.0,0.0,0.0,0.0,0.0,0.0,0.0,0.0,0.0,0.0,0.0,0.0,0.0,0.0,0.0,0.0,0.0,0.0,0.0,0.0,0.0,0.0,0.0,0.0,0.0,0.0,0.0,0.0,0.0,0.0,0.0,0.0,-0.5414,-0.8464,-1.0677,-1.0824,-1.0753,-1.059,-1.0329,-0.9682,-0.8159,-0.5463,-0.4431,0.0,0.0,0.0,0.0,0.0,0.0,0.0,0.0,0.0,0.0,0.0,0.0,0.0,0.0,0.0,0.0,0.0,0.0,0.0,0.0,0.0,0.0,0.0,0.0,0.0,0.0,0.0,0.0,0.0,0.0,0.0,0.0,0.0,0.0,0.0,0.0,0.0,0.0,0.0,0.0,0.0,0.0,0.0,0.0,0.0,0.0,0.0,0.0,0.0,0.0,0.0,0.0,0.0,0.0,0.0,0.0,0.0,0.0,0.0,-0.8881,-0.5741,0.0,0.0,0.0,0.0,0.0,0.0,0.0,0.0,0.0,0.0,0.0,0.0,0.0,0.0,0.0,0.0,0.0,0.0,0.0,0.0,0.0,0.0,0.0,0.0,0.0,0.0,0.0,0.0,0.0,0.0,0.0,0.0,0.0,0.0,0.0,0.0,0.0,0.0,0.0,0.0,-0.5434,-0.8554,-1.0766,-1.0987,-1.0895,-1.0712,-1.0568,-1.0275,-0.9122,-0.6923,-0.5992,0.0,0.0,0.0,0.0,0.0,0.0,0.0,0.0,0.0,0.0,0.0,0.0,0.0,0.0,0.0,0.0,0.0,0.0,0.0,0.0,0.0,0.0,0.0,0.0,0.0,0.0,0.0,0.0,0.0,0.0,0.0,0.0,0.0,0.0,0.0,0.0,0.0,0.0,0.0,0.0,0.0,0.0,0.0,0.0,0.0,0.0,0.0,0.0,0.0,0.0,0.0,0.0,0.0,-1.6638,-1.708,-1.7646,-1.765,-1.822,-1.9022,-1.509,-1.3273,-1.2752,-0.8625,0.0,0.0,0.0,0.0,0.0,0.0,0.0,0.0,0.0,0.0,0.0,0.0,0.0,0.0,0.0,0.0,0.0,0.0,0.0,0.0,0.0,0.0,-1.3769,-1.4708,-1.3335,-1.1118,-0.8572,0.0,0.0,0.0,0.0,0.0,0.0,0.0,0.0,0.0,0.0,0.0,-0.589,-0.8821,-1.0905,-1.1112,-1.1041,-1.0922,-1.0739,-1.0574,-0.9813,-0.8276,-0.7149,-0.5707,0.0,0.0,0.0,0.0,0.0,0.0,0.0,0.0,0.0,0.0,0.0,0.0,0.0,0.0,0.0,0.0,0.0,0.0,0.0,0.0,0.0,0.0,0.0,0.0,0.0,0.0,0.0,0.0,0.0,0.0,0.0,0.0,-0.5958,-0.7644,0.0,0.0,0.0,0.0,0.0,0.0,0.0,0.0,0.0,0.0,0.0,0.0,0.0,-1.5408,-1.6311,-1.7876,-1.9267,-2.0477,-2.2133,-2.3409,-2.4282,-2.4498,-2.4546,-2.4456,-2.3816,0.0,-1.4963,-1.4061,0.0,0.0,0.0,0.0,0.0,0.0,0.0,0.0,0.0,0.0,0.0,0.0,0.0,0.0,0.0,0.0,0.0,0.0,0.0,0.0,0.0,0.0,-1.8755,-2.0211,-1.8096,-1.5529,-1.4736,-0.9197,-0.4333,-0.4125,-0.386,-0.3208,0.0,0.0,0.0,0.0,0.0,0.0,-0.7621,-0.9801,-1.1215,-1.1292,-1.1281,-1.1134,-1.0874,-1.0728,-1.0486,-1.0086,-0.9408,-0.7946,-0.5489,-0.4751,0.0,0.0,0.0,0.0,0.0,0.0,0.0,0.0,0.0,0.0,0.0,0.0,0.0,0.0,0.0,0.0,0.0,0.0,0.0,0.0,0.0,0.0,0.0,0.0,0.0,0.0,0.0,0.0,0.0,-0.708,-0.9272,-1.0427,-0.952,-0.8918,0.0,0.0,0.0,0.0,0.0,0.0,0.0,0.0,0.0,-2.0048,-1.9975,-2.0348,-2.1114,-2.204,-2.307,-2.4261,-2.5116,-2.5787,-2.6275,-2.6433,-2.6422,-2.6275,-2.6275,-2.4445,-2.1293,-1.914,-1.667,-1.4053,0.0,0.0,0.0,0.0,-1.2261,-1.274,-1.5305,-1.6217,-1.6077,-1.5047,0.0,0.0,0.0,0.0,0.0,0.0,0.0,-1.5192,-1.8146,-1.9413,-2.0406,-2.2394,-2.0019,-1.7266,-1.7097,-1.2508,-0.7963,-0.6382,-0.5904,-0.5255,-0.3555,-0.3462,0.0,0.0,0.0,-0.7471,-0.8405,-1.0202,-1.1444,-1.1471,-1.1351,-1.1232,-1.1128,-1.1009,-1.084,-1.0596,-1.0269,-0.9501,-0.8182,-0.641,-0.4395,0.0,0.0,0.0,0.0,0.0,0.0,0.0,0.0,0.0,0.0,0.0,0.0,0.0,0.0,0.0,0.0,0.0,0.0,0.0,0.0,0.0,0.0,0.0,0.0,0.0,0.0,0.0,0.0,-1.1167,-1.3196,-1.3999,-1.3929,-1.3778,0.0,0.0,0.0,0.0,0.0,0.0,-2.2104,-2.3089,-2.3986,-2.4775,-2.4688,-2.5009,-2.5848,-2.605,-2.664,-2.7586,-2.7531,-2.763,-2.7819,-2.7753,-2.7688,-2.7633,-2.7478,-2.7155,-2.6469,-2.33,-2.1225,-1.9879,-1.7731,-1.6461,-1.6007,-1.7229,-1.7643,-1.8063,-2.0984,-2.2038,-2.188,-2.0961,-1.9911,-1.8767,-1.7143,0.0,0.0,0.0,0.0,-1.7932,-2.0347,-2.1195,-2.1892,-2.3643,-2.1469,-1.8967,-1.8967,-1.6059,-1.2387,-0.8975,-0.8175,-0.7525,-0.5764,-0.5651,0.0,-0.5775,-0.7333,-0.8743,-0.9398,-1.0719,-1.158,-1.1627,-1.1493,-1.1439,-1.1544,-1.1362,-1.1222,-1.1132,-1.1011,-1.0999,-1.1146,-0.9036,-0.7444,-0.6607,0.0,0.0,0.0,0.0,0.0,0.0,0.0,0.0,0.0,0.0,0.0,0.0,0.0,0.0,0.0,0.0,0.0,0.0,0.0,0.0,0.0,0.0,0.0,0.0,0.0,0.0,0.0,0.0,0.0,-1.9554,-1.9468,0.0,0.0,0.0,0.0,-2.0737,-2.3053,-2.4916,-2.6132,-2.6523,-2.721,-2.8381,-2.8689,-2.9014,-2.9527,-2.9789,-3.0051,-3.0279,-3.0051,-3.0063,-3.0302,-3.0063,-2.9823,-2.952,-2.9013,-2.8524,-2.7969,-2.6064,-2.3912,-2.182,-2.1238,-1.9723,-1.8241,-2.0555,-2.1581,-2.2121,-2.4318,-2.5229,-2.5127,-2.3262,-2.0752,-1.8659,-1.9933,-1.8778,0.0,0.0,-2.0259,-2.1097,-2.3307,-2.4091,-2.4384,-2.4689,-2.3128,-2.1602,-2.1602,-2.0038,-1.7163,-1.2227,-1.0977,-1.02,-0.8643,0.0,-0.826,-0.8384,-0.8675,-0.9474,-1.1142,-1.16,-1.1803,-1.1808,-1.1648,-1.1748,-1.2121,-1.1934,-1.1904,-1.2192,-1.1972,-1.2583,-1.4205,-1.3907,-1.2394,-0.9635,-0.92,0.0,0.0,0.0,0.0,0.0,0.0,0.0,0.0,0.0,0.0,0.0,0.0,0.0,0.0,0.0,0.0,0.0,0.0,0.0,0.0,0.0,0.0,0.0,0.0,0.0,0.0,0.0,0.0,-2.2145,-2.3028,0.0,-2.2624,-2.3625,-2.4548,-2.5065,-2.6723,-2.8128,-2.9103,-2.9567,-2.9967,-3.0387,-3.0614,-3.0685,-3.0533,-3.0625,-3.0662,-3.0754,-3.0662,-3.0662,-3.0754,-3.0662,-3.0559,-3.0468,-3.0092,-2.9723,-2.9361,-2.8543,-2.7239,-2.5744,-2.5615,-2.5083,-2.4483,-2.5191,-2.5509,-2.5681,-2.6454,-2.6761,-2.6654,-2.5497,-2.4059,-2.2855,-2.3242,-2.2647,-2.2018,-2.2758,-2.3139,-2.357,-2.4345,-2.4624,-2.47,-2.4786,-2.3547,-2.2305,-2.2305,-2.1026,-1.9368,-1.7569,-1.5627,-1.3567,-1.1425,-1.1216,-1.1278,-1.1087,-1.2275,-1.3458,-1.412,-1.5114,-1.5911,-1.6217,-1.4992,-1.4306,-1.4688,-1.3356,-1.2427,-1.2252,-1.2058,-1.2162,-1.2627,-1.2463,-1.2355,-1.2309,-1.1929,-0.9871,0.0,0.0,0.0,0.0,0.0,0.0,0.0,0.0,0.0,0.0,0.0,0.0,0.0,0.0,0.0,0.0,0.0,0.0,0.0,0.0,0.0,0.0,0.0,0.0,0.0,-2.1413,-2.336,-2.4248,-2.5978,-2.6736,-2.5821,-2.6954,-2.7985,-2.851,-2.9569,-3.0527,-3.124,-3.1602,-3.1791,-3.1759,-3.1989,-3.1998,-3.16,-3.1787,-3.1822,-3.1729,-3.1729,-3.1694,-3.16,-3.1487,-3.1472,-3.1472,-3.1079,-3.082,-3.0646,-3.0369,-2.9754,-2.8938,-2.8563,-2.8282,-2.8161,-2.8138,-2.8026,-2.7876,-2.8073,-2.8064,-2.7912,-2.7197,-2.6578,-2.6009,-2.5746,-2.5392,-2.5101,-2.5101,-2.5068,-2.5044,-2.5044,-2.5044,-2.5092,-2.5235,-2.4546,-2.3916,-2.4096,-2.2823,-2.1524,-2.0855,-1.8409,-1.5881,-1.4234,-1.3534,-1.3149,-1.2884,-1.4602,-1.5954,-1.6017,-1.7504,-1.8647,-1.8952,-1.7749,-1.6764,-1.6414,-1.4374,-1.3003,-1.2781,-1.1956,-1.1949,-1.2983,-1.2304,-1.2396,-1.3392,-1.2904,-1.167,-0.9752,0.0,0.0,0.0,0.0,0.0,0.0,0.0,0.0,0.0,0.0,0.0,0.0,0.0,0.0,0.0,0.0,0.0,0.0,0.0,0.0,0.0,0.0,0.0,-2.2999,-2.48,-2.6174,-2.612,-2.8332,-2.9332,-2.8065,-2.9344,-3.0479,-3.101,-3.1541,-3.2073,-3.2592,-3.2628,-3.2628,-3.2652,-3.2881,-3.3014,-3.3014,-3.3533,-3.3666,-3.34,-3.34,-3.3268,-3.3014,-3.2748,-3.2628,-3.2616,-3.2025,-3.175,-3.1715,-3.1433,-3.1316,-3.1245,-2.9942,-2.9135,-2.8751,-2.926,-2.9084,-2.8699,-2.9219,-2.9248,-2.8921,-2.8422,-2.805,-2.7754,-2.726,-2.6729,-2.6305,-2.6305,-2.5965,-2.5577,-2.5577,-2.5588,-2.5685,-2.6219,-2.6364,-2.6498,-2.6922,-2.5602,-2.3751,-2.1815,-1.9046,-1.7054,-1.6952,-1.5228,-1.3829,-1.3735,-1.5402,0.0,-1.6636,-1.8398,-1.9697,-1.965,-1.952,-1.8789,-1.7089,-1.4937,-1.3725,-1.3788,-1.1782,-1.2145,-1.5578,-1.3958,-1.3,-1.2968,-1.2325,-1.2266,-1.2809,0.0,0.0,0.0,0.0,0.0,0.0,0.0,0.0,0.0,0.0,0.0,0.0,0.0,0.0,0.0,0.0,0.0,0.0,0.0,0.0,0.0,-2.4389,-2.5998,-2.5588,-2.7075,-2.8428,-2.8968,-3.003,-3.0684,-3.0708,-3.1107,-3.159,-3.2109,-3.2471,-3.2821,-3.3147,-3.334,-3.3569,-3.3726,-3.3823,-3.3859,-3.3859,-3.4049,-3.4016,-3.3956,-3.3956,-3.3919,-3.3859,-3.3787,-3.363,-3.3461,-3.3088,-3.2828,-3.2636,-3.2373,-3.2253,-3.2181,-3.1218,-3.0772,-3.0617,-3.0582,-3.0238,-2.9771,-2.9705,-2.9513,-2.9211,-2.8872,-2.8472,-2.8025,-2.7704,-2.726,-2.6874,-2.6874,-2.6913,-2.6962,-2.6962,-2.7086,-2.7225,-2.7203,-2.7439,-2.7235,-2.5674,-2.5287,-2.4546,-2.245,-2.0113,-1.7942,-1.6255,-1.6671,-1.6656,-1.516,-1.6231,-1.7172,-1.7172,-1.9862,-2.1352,-2.0279,-2.0455,-1.9978,-1.833,-1.6306,-1.488,-1.4253,-1.3295,-1.3043,-1.3734,-1.3288,-1.4176,-1.6656,-1.5274,-1.5354,0.0,0.0,0.0,0.0,0.0,0.0,0.0,0.0,0.0,0.0,0.0,0.0,0.0,0.0,0.0,0.0,0.0,0.0,0.0,0.0,0.0,0.0,-2.6728,-2.8258,-2.8439,-2.9163,-2.9984,-3.0793,-3.1252,-3.1674,-3.2097,-3.2133,-3.235,-3.2881,-3.3106,-3.3304,-3.369,-3.3859,-3.4016,-3.4185,-3.4185,-3.4185,-3.4185,-3.4281,-3.4281,-3.4185,-3.4281,-3.4281,-3.4185,-3.4185,-3.4088,-3.3956,-3.3666,-3.3473,-3.3304,-3.2917,-3.2748,-3.2688,0.0,0.0,0.0,0.0,-3.0805,-3.0503,-3.0226,-2.996,-2.9695,-2.9429,-2.8992,-2.8484,-2.8341,-2.7873,-2.7405,-2.7405,-2.7444,-2.7504,-2.7504,-2.7687,-2.7863,-2.7807,-2.7982,-2.7852,-2.6618,-2.5184,-2.3803,-2.2535,-2.0538,0.0,-1.6468,-1.698,-1.7207,-1.5979,-1.7417,-1.8543,-1.8469,-2.0928,-2.2384,-2.1417,-2.1592,-2.099,-1.9138,-1.7192,0.0,0.0,0.0,-1.2956,-1.2438,-1.2391,0.0,0.0,0.0,0.0,0.0,-1.9442,0.0,0.0,-1.7087,-1.7311,0.0,0.0,0.0,0.0,0.0,0.0,0.0,0.0,0.0,0.0,0.0,0.0,0.0,0.0,0.0,0.0,-2.8741,-3.0214,-3.1022,-3.0938,-3.1046,-3.1771,-3.2085,-3.235,-3.2616,-3.2652,-3.2881,-3.3432,-3.3529,-3.3726,-3.4209,-3.4281,0.0,0.0,0.0,-3.4342,-3.4281,-3.4535,-3.4535,-3.4281,-3.4511,-3.4511,-3.4281,-3.4281,-3.4245,-3.4221,-3.3992,-3.3859,-3.3799,-3.328,-3.305,-3.2973,-3.241,-3.206,-3.1783,-3.124,-3.1046,-3.0998,-3.0708,0.0,0.0,-2.99,-2.9477,-2.9091,-2.9067,-2.8595,-2.8066,-2.8066,-2.8023,-2.7928,-2.7844,-2.798,-2.8244,-2.8285,-2.8263,-2.8302,-2.8235,-2.5135,-2.2242,-2.1998,-2.0339,-1.8533,-1.7162,-1.6817,-1.6712,-1.6526,-1.8424,-1.9785,-1.9621,-2.133,-2.2433,-2.2013,-2.2225,0.0,-1.9382,-1.7636,-1.6418,-1.5874,-1.4034,-1.2707,-1.2088,-1.2113,-1.3707,-1.7044,-1.7279,-1.9302,-2.3162,-2.529,-2.5497,-2.3817,-1.874,-1.8268,0.0,0.0,0.0,0.0,0.0,0.0,0.0,0.0,0.0,0.0,0.0,0.0,0.0,0.0,0.0,-2.8149,-2.9695,-3.1046,-3.1855,-3.1928,-3.1952,-3.2109,-3.235,-3.2628,-3.2881,-3.3111,-3.3376,-3.369,-3.4113,-3.4436,-3.4511,-3.4956,-3.5054,-3.4837,-3.5282,-3.5259,-3.4859,-3.509,-3.509,-3.4859,-3.4932,0.0,-3.4859,-3.4859,-3.4704,-3.4511,-3.4438,-3.4318,-3.4088,-3.3762,-3.3376,-3.2973,-3.241,-3.2169,-3.206,-3.1517,-3.1312,-3.124,-3.0769,-3.0576,-3.0455,-2.996,-2.9731,-2.9598,-2.9393,-2.953,0.0,-2.9726,-3.0181,-3.0491,-2.9873,-2.9872,-2.9858,-2.9029,-2.886,-2.8339,-2.6498,-2.4095,-2.1802,-2.0143,-1.8483,-1.7261,-1.6963,-1.8172,-1.8713,-1.7415,-1.7553,-1.7791,-1.7712,-1.946,-2.011,-1.8423,-2.0027,-2.0375,-1.8205,-1.7774,-1.7347,-1.6635,-1.5682,-1.5133,-1.4988,-1.5183,-1.6252,-1.8234,-1.9651,-2.1624,-2.4118,-2.5961,-2.7013,-2.7227,-2.5696,-2.5387,0.0,0.0,0.0,0.0,0.0,0.0,0.0,0.0,0.0,0.0,0.0,-2.4308,-2.557,0.0,-2.8922,-2.9851,-3.0902,-3.1783,-3.2314,-3.2495,-3.2592,-3.2592,-3.2724,-3.2954,-3.334,-3.3497,-3.3762,-3.4149,-3.4472,-3.4704,-3.497,-3.5223,-3.538,-3.538,-3.5646,-3.5646,-3.538,-3.538,-3.538,-3.5415,-3.5282,-3.5187,-3.5187,-3.5187,-3.503,-3.4764,-3.4644,-3.4511,-3.4342,-3.3956,-3.3533,-3.3147,-3.2748,-3.2435,-3.2169,-3.1891,-3.171,-3.1541,-3.1143,-3.0914,-3.0733,-3.0334,-3.002,-2.9817,-2.9945,-3.0107,-3.0279,-3.0538,-3.0986,-3.1324,-3.0875,-3.0802,-3.0614,-2.9959,-2.9505,-2.8834,-2.7527,-2.4615,-2.1998,-2.0969,-1.8434,-1.6672,-1.7218,-1.8152,-1.8657,-1.8045,-1.8115,-1.8225,-1.8091,-1.947,-1.9958,-1.8872,-2.0341,-2.0964,-1.9915,-1.927,-1.8567,-1.7694,-1.7244,-1.6923,-1.6651,-1.6766,-1.7632,-1.9267,-2.018,-2.2218,-2.5544,-2.627,-2.7464,-2.898,-2.8571,-2.8343,0.0,0.0,0.0,0.0,0.0,0.0,0.0,-2.2792,-2.3675,-2.4921,-2.6174,-2.7401,-2.8619,-2.9699,-3.0684,-3.1765,-3.2327,-3.2688,-3.2804,-3.2974,-3.3095,-3.3033,-3.3069,-3.3243,-3.3762,-3.3823,-3.4088,-3.4665,-3.4704,-3.4992,-3.5452,-3.5513,-3.5609,-3.5778,-3.5875,-3.5935,-3.5778,-3.5609,-3.5609,-3.5778,-3.5609,-3.5452,-3.538,-3.538,-3.5223,-3.497,-3.4799,-3.4607,-3.4475,-3.4052,-3.3666,-3.3396,-3.3147,-3.2748,-3.2338,-3.2242,-3.206,-3.1843,-3.1505,-3.1252,-3.1022,-3.0708,-3.031,-3.0049,-3.0401,-3.0429,-3.0441,-3.0997,-3.141,-3.1625,-3.1412,-3.1215,-3.0963,-3.049,-2.9859,-2.9344,-2.9139,-2.594,-2.3033,-2.2994,-1.9742,-1.7248,-1.8065,-1.8121,-1.8202,-1.858,-1.9033,-1.9289,-1.9061,-1.9955,-2.0575,-2.0425,-2.1369,-2.1973,-2.1935,-2.0787,-1.9725,-1.888,-1.8504,-1.8141,-1.7773,-1.7726,-1.8347,-1.9707,-2.0108,-2.2296,-2.6354,-2.6513,-2.7817,-3.0092,-2.9984,-2.9688,-1.4862,-1.6635,-2.0141,-2.257,-2.3102,-2.3827,0.0,-2.7268,-2.722,-2.8548,-2.9513,-3.0317,-3.1022,-3.179,-3.2683,-3.3551,-3.3975,-3.4061,-3.3788,-3.3597,-3.3328,-3.3064,-3.3239,-3.3493,-3.3762,-3.4049,-3.4399,-3.4932,-3.5163,-3.5416,-3.5706,-3.5996,-3.6032,-3.5838,-3.6237,-3.6298,-3.5778,-3.6032,-3.6032,-3.5778,-3.5742,-3.5609,-3.538,-3.538,-3.5223,-3.5028,-3.4992,-3.4668,-3.4221,-3.4149,-3.388,-3.3376,-3.3396,-3.3147,-3.2845,-3.2374,-3.2181,-3.2085,-3.1566,-3.1372,-3.1264,-3.0769,-3.0564,-3.0467,-3.0288,-3.0546,-3.1026,-3.1579,-3.2095,-3.2307,-3.1563,-3.1375,-3.1026,-2.9811,-2.9478,-2.9393,-2.9369,-2.7532,-2.5798,-2.5535,-2.2575,-2.0041,-1.9933,-1.9191,-1.876,-1.9132,-1.9336,-1.9419,-1.9297,-2.016,-2.0782,-2.0764,-2.1686,-2.2294,-2.2095,-2.0948,-2.0219,-2.0124,-1.9198,-1.8615,-1.8567,-1.8567,-1.8671,-1.8831,-2.0536,-2.2624,-2.5093,-2.6731,-2.8836,-3.1211,-3.1503,-3.1365,-2.2829,-2.2483,-2.2716,-2.6887,-2.7366,-2.7322,-2.9152,-2.9554,-2.9866,-3.1089,-3.1823,-3.2294,-3.2338,-3.2837,-3.3205,-3.3369,-3.3505,-3.358,-3.3604,-3.3377,-3.3176,-3.3033,-3.3074,-3.3304,-3.3762,-3.4016,-3.4475,-3.5163,-3.532,-3.5585,-3.6032,-3.6165,-3.6201,-3.6237,-3.6491,-3.6515,-3.6298,-3.6201,-3.6201,-3.6237,-3.6129,-3.5996,-3.5839,-3.5682,-3.538,-3.5028,-3.5028,-3.4668,-3.4185,-3.4185,-3.3859,-3.3432,-3.3768,-3.3862,-3.3635,-3.2768,-3.2326,-3.2145,-3.1759,-3.1529,-3.1348,-3.1131,-3.0853,-3.0639,-3.0825,-3.0945,-3.1113,-3.1668,-3.1958,-3.2033,-3.1717,-3.139,-3.1014,-3.0451,-2.9942,-2.9634,-2.9634,-2.7901,-2.6263,-2.6155,-2.2907,-2.0174,-2.0401,-1.9127,-1.8163,-1.8459,-1.8988,-1.9378,-1.9402,-2.0254,-2.1268,-2.2534,-2.3072,-2.3287,-2.3188,-2.2761,-2.1938,-2.0686,-2.0294,-1.9772,-1.9086,-1.9232,-1.9297,-1.9183,-1.9965,-2.2215,-2.589,-2.6253,-2.8461,-3.2387,-3.2213,-3.2341,-2.7345,-2.676,-2.6099,-3.1193,-3.1801,-3.1225,-3.1741,-3.1739,-3.1907,-3.2748,-3.3113,-3.3267,-3.3276,-3.3388,-3.3535,-3.3592,-3.3598,-3.3641,-3.3741,-3.3413,-3.309,-3.2881,-3.2821,-3.3045,-3.3746,-3.3985,-3.4414,-3.5223,-3.551,-3.5836,-3.6201,-3.6432,-3.659,-3.6624,-3.6624,-3.6624,-3.6624,-3.6419,-3.6419,-3.6624,-3.6419,-3.6359,-3.6468,-3.6307,-3.5939,-3.5485,-3.5485,-3.5216,-3.4823,-3.4823,-3.4493,-3.4059,-3.4482,-3.4613,-3.4445,-3.3518,-3.2913,-3.2536,-3.2281,-3.1894,-3.1493,-3.1409,-3.1131,-3.0857,-3.1197,-3.114,-3.112,-3.1541,-3.1681,-3.1655,-3.158,-3.1315,-3.0961,-3.0809,-3.0309,-2.9962,-3.0113,-2.8793,-2.762,-2.7702,-2.4709,-2.2296,-2.2595,-2.0484,-1.8783,-1.8998,-1.8989,-1.9012,-1.9185,-2.0172,-2.1505,-2.3365,-2.3571,-2.3668,-2.3961,-2.3717,-2.3023,-2.175,-2.1245,-2.0619,-1.9758,-1.9658,-1.9581,-1.9443,-1.954,-2.156,-2.5628,-2.5901,-2.8206,-3.2417,-3.2802,-3.3421,-2.5476,-2.7859,-3.0425,-3.5058,-3.5766,-3.5413,-3.5736,-3.4364,-3.3143,-3.3409,-3.3007,-3.2894,-3.3706,-3.3659,-3.3871,-3.4964,-3.5151,-3.5042,-3.47,-3.3999,-3.3247,-3.2658,-3.2374,-3.2652,-3.377,-3.3846,-3.4182,-3.4933,-3.5814,-3.6242,-3.6201,-3.6968,-3.7176,-3.6624,-3.6624,-3.6624,-3.6624,-3.6624,-3.6624,-3.6624,-3.6624,-3.6736,-3.711,-3.7172,-3.7051,-3.6771,-3.6771,-3.6606,-3.6307,-3.6307,-3.6022,-3.5571,-3.5571,-3.5393,-3.5126,-3.4846,-3.4183,-3.3416,-3.3143,-3.2495,-3.1747,-3.1481,-3.1384,-3.1312,-3.1111,-3.1038,-3.1069,-3.1328,-3.1408,-3.1346,-3.1086,-3.1012,-3.086,-3.0366,-3.0214,-3.0354,-3.0847,-3.0898,-3.0912,-3.1188,-2.9596,-2.8139,-2.7901,-2.4364,-2.1593,-2.1777,-1.9715,-1.8225,-1.8504,-1.984,-2.121,-2.2338,-2.2436,-2.2877,-2.3912,-2.3023,-2.2877,-2.3863,-2.1955,-2.0776,-2.0776,-1.9808,-1.9322,-1.9314,-1.9605,-2.0941,-2.3203,-2.5943,-2.8448,-3.0718,-3.346,-3.475,-3.0132,-3.28,-3.5629,-3.9838,-3.8882,-3.7025,-3.7562,-3.602,-3.4334,-3.3875,-3.3497,-3.3069,-3.2408,-3.2496,-3.2772,-3.2927,-3.3525,-3.396,-3.3846,-3.3773,-3.3418,-3.2707,-3.2821,-3.3181,-3.3572,-3.3919,-3.4777,-3.6362,-3.6727,-3.7163,-3.7687,-3.7983,-3.8081,-3.7849,-3.7849,-3.7849,-3.7849,-3.7849,-3.7849,-3.7849,-3.7849,-3.7721,-3.7509,-3.7571,-3.7288,-3.6784,-3.6784,-3.6664,-3.6365,-3.5948,-3.5507,-3.5063,-3.5414,-3.5462,-3.5305,-3.5949,-3.5501,-3.4462,-3.348,-3.2776,-3.2263,-3.1805,-3.1541,-3.1372,-3.1288,-3.1131,-3.1026,-3.1097,-3.1124,-3.1063,-3.0796,-3.0723,-3.0635,-3.0313,-3.0467,-3.0759,-3.0961,-3.1264,-3.1542,-3.1642,-2.9941,-2.8472,-2.8381,-2.4745,-2.1303,-1.9823,-1.906,-1.8691,-1.866,-1.9329,-2.0185,-2.121,-2.1366,-2.175,-2.2828,-2.2583,-2.224,-2.1897,-2.1335,-2.066,-1.9849,-1.9807,-1.9786,-1.9613,-1.9849,-2.1208,-2.3648,-2.5975,-2.8482,-3.1135,-3.3408,-3.4683,-3.4369,-3.697,-3.9241,-4.3713,-4.2509,-4.0135,-3.9762,-3.7708,-3.5471,-3.394,-3.2955,-3.2149,-3.1226,-3.1083,-3.1246,-3.1594,-3.2314,-3.2978,-3.3473,-3.3497,-3.334,-3.2917,-3.313,-3.3413,-3.3763,-3.4283,-3.5226,-3.667,-3.7306,-3.7767,-3.8191,-3.8602,-3.8765,-3.8534,-3.8521,-3.8521,-3.8521,-3.8521,-3.8521,-3.8521,-3.8765,-3.8592,-3.804,-3.8265,-3.8027,-3.7497,-3.7497,-3.7251,-3.6852,-3.6472,-3.5906,-3.5339,-3.5617,-3.5696,-3.5764,-3.6357,-3.6194,-3.5474,-3.4267,-3.328,-3.2541,-3.218,-3.1846,-3.1541,-3.1541,-3.1421,-3.1264,-3.1167,-3.1143,-3.1059,-3.0696,-3.0612,-3.0591,-3.0477,-3.0759,-3.1113,-3.1466,-3.1857,-3.2159,-3.231,-3.1214,-3.023,-3.023,-2.6444,-2.2509,-2.0038,-1.932,-1.9002,-1.8831,-1.9215,-1.9742,-2.0381,-2.044,-2.0852,-2.186,-2.1959,-2.1774,-2.1415,-2.1191,-2.0755,-1.9999,-1.9997,-1.9914,-1.9792,-2.0028,-2.0957,-2.2567,-2.5767,-2.8279,-3.0142,-3.3186,-3.483,-3.7787,-4.0277,-4.1555,-4.6506,-4.6325,-4.4397,-4.2182,-3.9345,-3.6359,-3.3563,-3.1487,-3.0143,-3.0032,-2.9457,-2.9477,-3.0998,-3.1614,-3.2338,-3.3593,-3.3376,-3.3202,-3.3376,-3.3207,-3.3394,-3.424,-3.488,-3.5469,-3.6073,-3.7458,-3.8158,-3.7874,-3.8894,-3.9253,-3.8595,-3.8595,-3.8595,-3.8595,-3.8595,-3.857,-3.857,-3.9214,-3.923,-3.8669,-3.9263,-3.9265,-3.8718,-3.8718,-3.8369,-3.7788,-3.7788,-3.7187,-3.6327,-3.606,-3.6153,-3.6376,-3.6158,-3.6231,-3.6337,-3.5515,-3.413,-3.2726,-3.2607,-3.2287,-3.1807,-3.1795,-3.1795,-3.1747,-3.1469,-3.1397,-3.1288,-3.0769,-3.0624,-3.0705,-3.0934,-3.1062,-3.1365,-3.236,-3.2611,-3.2812,-3.3314,-3.3414,-3.3364,-3.3263,-2.9307,-2.5266,-2.2545,-2.0718,-1.9482,-1.9198,-1.9632,-1.9987,-1.9987,-1.9987,-2.0267,-2.0983,-2.1016,-2.1384,-2.2189,-2.1515,-2.1016,-2.1016,-2.0267,-1.9817,-1.98,-2.015,-2.0255,-2.0161,-2.5285,-2.7811,-2.7933,-3.2772,-3.5072,-3.9142,-4.2881,-4.6137,-4.7722,-4.6569,-4.4379,-4.1927,-3.8918,-3.5527,-3.1783,-2.9706,-2.8062,-2.6604,-2.7481,-2.8608,-2.9224,-3.1372,-3.3171,-3.3726,-3.4185,-3.4281,-3.3762,-3.4013,-3.4399,-3.4834,-3.5191,-3.6033,-3.7561,-3.8242,-3.8945,-3.9718,-4.0098,-4.0164,-3.9996,-3.9996,-3.9996,-3.9996,-3.9996,-3.989,-3.9605,-3.9773,-3.9588,-3.8971,-3.9134,-3.902,-3.8718,-3.8718,-3.8369,-3.7788,-3.7264,-3.6434,-3.5418,-3.5355,-3.5144,-3.4974,-3.5802,-3.5851,-3.5569,-3.5774,-3.5133,-3.4045,-3.2989,-3.2488,-3.2291,-3.1659,-3.1638,-3.1747,-3.1469,-3.1541,-3.1578,-3.1034,-3.1201,-3.1388,-3.1072,-3.1617,-3.2259,-3.2561,-3.2912,-3.3263,-3.3364,-3.3414,-3.2899,-3.1277,-2.9989,-2.8303,-2.5994,-2.5236,-2.4153,-2.1914,-2.1974,-2.2246,-2.2246,-2.2246,-2.1673,-2.0275,-2.0124,-2.025,-2.046,-2.025,-2.0124,-2.0124,-2.0174,-2.0117,-2.0038,-2.0336,-2.0564,-2.0706,-2.3778,-2.6231,-2.822,-3.0993,-3.3322,-4.0939,-4.4793,-4.8011,-4.8231,-4.723,-4.5116,-4.1098,-3.8181,-3.4864,-2.9651,-2.726,-2.5781,-2.4661,-2.6593,-2.8339,-2.8267,-3.2315,-3.5498,-3.5487,-3.684,-3.742,-3.6296,-3.63,-3.6054,-3.5286,-3.5608,-3.64,-3.7606,-3.8323,-3.9157,-4.0194,-4.0401,-4.0481,-4.0481,-4.0481,-4.0481,-4.0481,-4.0481,-4.0334,-3.9967,-3.9967,-3.9673,-3.91,-3.91,-3.8953,-3.8718,-3.8718,-3.8208,-3.7354,-3.6972,-3.6054,-3.486,-3.475,-3.4614,-3.4557,-3.5103,-3.528,-3.5216,-3.5284,-3.5143,-3.4732,-3.3412,-3.2807,-3.2439,-3.1627,-3.1493,-3.1566,-3.1288,-3.1336,-3.1437,-3.1383,-3.1558,-3.1846,-3.2047,-3.2532,-3.304,-3.3307,-3.3505,-3.3574,-3.344,-3.3414,-3.3052,-3.201,-3.0995,-2.9966,-2.8729,-2.7833,-2.6852,-2.5655,-2.485,-2.4323,-2.4079,-2.3215,-2.2465,-2.2129,-2.1418,-2.1374,-2.2246,-2.2622,-2.2374,-2.1358,-2.1604,-2.1284,-2.034,-2.0564,-2.0812,-2.091,-2.3349,-2.5259,-2.675,-2.8967,-3.0752,-4.2376,-4.5681,-4.7871,-4.7871,-4.7704,-4.5958,-3.9953,-3.7214,-3.4094,-2.7422,-2.4733,-2.3547,-2.3414,-2.5944,-2.7994,-2.7665,-3.3255,-3.7619,-3.7643,-3.9868,-4.1127,-4.0004,-3.9196,-3.8061,-3.6272,-3.6178,-3.6507,-3.7134,-3.8078,-3.901,-3.99,-4.026,-4.0481,-4.0481,-4.0481,-4.0481,-4.0481,-4.0441,-4.0254,-3.996,-3.992,-3.9567,-3.9033,-3.9033,-3.8913,-3.8718,-3.8718,-3.8007,-3.6784,-3.6784,-3.5933,-3.4547,-3.4281,-3.4371,-3.4543,-3.4358,-3.4624,-3.4926,-3.4448,-3.4625,-3.4834,-3.3836,-3.3154,-3.2601,-3.1842,-3.1547,-3.1381,-3.1231,-3.1154,-3.1295,-3.1778,-3.1998,-3.2334,-3.3266,-3.3575,-3.373,-3.4219,-3.4122,-3.3855,-3.3534,-3.3507,-3.3614,-3.3841,-3.2354,-3.1074,-3.1074,-2.9434,-2.8476,-2.9302,-2.778,-2.6365,-2.5779,-2.4019,-2.3428,-2.4931,-2.3718,-2.3683,-2.5492,-2.6195,-2.5744,-2.3833,-2.3685,-2.2812,-2.1063,-2.0972,-2.0918,-2.0942,-2.3187,-2.4415,-2.4697,-2.6812,-2.7983,-4.1255,-4.3791,-4.5572,-4.5572,-4.6123,-4.5155,-3.923,-3.6031,-3.2429,-2.5727,-2.3409,-2.2308,-2.1414,-2.3463,-2.5627,-2.6637,-3.1211,-3.539,-3.765,-4.0109,-4.2127,-4.3268,-4.1064,-3.9584,-3.9879,-3.7468,-3.6333,-3.7371,-3.7888,-3.8623,-3.9513,-4.0199,-4.0481,-4.0481,-4.0481,-4.0481,-4.0481,-4.0214,-3.996,-3.9666,-3.9412,-3.906,-3.8798,-3.8798,-3.8758,-3.8718,-3.8718,-3.8007,-3.6784,-3.6784,-3.5933,-3.4547,-3.4281,-3.4085,-3.3977,-3.4215,-3.4191,-3.4053,-3.4221,-3.4226,-3.4038,-3.3666,-3.3556,-3.3523,-3.2707,-3.2151,-3.1778,-3.1917,-3.2012,-3.2102,-3.245,-3.3032,-3.3525,-3.3524,-3.3846,-3.4219,-3.4271,-3.4282,-3.4162,-3.3855,-3.4002,-3.4108,-3.3921,-3.3775,-3.3664,-3.3664,-3.1768,-3.029,-2.9988,-2.9479,-2.886,-2.8042,-2.76,-2.6823,-2.5369,-2.517,-2.5376,-2.5962,-2.6314,-2.6459,-2.6259,-2.4724,-2.3671,-2.3342,-2.1708,-2.0929,-2.1075,-2.152,-2.2789,-2.4806,-2.5215,-2.6471,-3.9614,-4.1652,-4.3233,-4.3103,-4.2933,-4.1376,-3.5917,-3.2957,-2.9745,-2.4043,-2.2185,-2.1455,-2.1071,-2.346,-2.5537,-2.5644,-3.0383,-3.5137,-3.8244,-4.1325,-4.405,-4.6201,-4.4237,-4.2322,-4.1187,-3.8454,-3.6772,-3.7029,-3.7481,-3.826,-3.9422,-4.0164,-4.0481,-4.0481,-4.0481,-4.0401,-4.0254,-4.0107,-3.9754,-3.9313,-3.9167,-3.8953,-3.8718,-3.8718,-3.8499,-3.8208,-3.8208,-3.7497,-3.6329,-3.6329,-3.5543,-3.4399,-3.4245,-3.3919,-3.3626,-3.3749,-3.3738,-3.3567,-3.345,-3.353,-3.3571,-3.3158,-3.3303,-3.3612,-3.3055,-3.2706,-3.2486,-3.2467,-3.2478,-3.2589,-3.3187,-3.3603,-3.3967,-3.4294,-3.4568,-3.4736,-3.4576,-3.4549,-3.4469,-3.4175,-3.4229,-3.4322,-3.4336,-3.4456,-3.4549,-3.4549,-3.2715,-3.1001,-3.0193,-2.8741,-2.7898,-2.8193,-2.6858,-2.6529,-2.7913,-2.7652,-2.7965,-2.9433,-3.005,-2.9936,-2.9049,-2.7954,-2.6411,-2.4283,-2.333,-2.2309,-2.1254,-2.1254,-2.1849,-2.3018,-2.3018,-2.361,-3.7575,-3.9351,-4.0959,-4.0666,-3.9873,-3.785,-3.2905,-3.0159,-2.7294,-2.264,-2.1235,-2.09,-2.1166,-2.3501,-2.5268,-2.4791,-2.9605,-3.4755,-3.8725,-4.2533,-4.5815,-4.8407,-4.6938,-4.4683,-4.1962,-3.914,-3.7299,-3.6857,-3.7335,-3.8252,-3.9422,-4.0164,-4.0481,-4.0481,-4.0481,-4.0334,-3.9967,-3.996,-3.9666,-3.91,-3.902,-3.8886,-3.8718,-3.8718,-3.8369,-3.7788,-3.7788,-3.7076,-3.5907,-3.5907,-3.5274,-3.4303,-3.4209,-3.3895,-3.3473,-3.34,-3.3376,-3.3304,-3.2785,-3.2865,-3.3149,-3.2726,-3.2982,-3.3424,-3.3299,-3.3132,-3.303,-3.302,-3.3007,-3.311,-3.3863,-3.4124,-3.4334,-3.5032,-3.5191,-3.5137,-3.491,-3.4909,-3.4763,-3.4469,-3.4469,-3.4563,-3.4788,-3.4869,-3.4909,-3.4909,-3.3056,-3.1218,-2.9909,-2.7166,-2.5779,-2.689,-2.5355,-2.5851,-2.9742,-2.9725,-3.0451,-3.2736,-3.3547,-3.3251,-3.178,-3.1054,-2.9232,-2.6129,-2.5069,-2.3782,-2.2143,-2.165,-2.1384,-2.1384,-2.1384,-2.1384,-3.4793,-3.7092,-3.8693,-3.8369,-3.8323,-3.7111,-3.2442,-2.935,-2.6212,-2.1885,-2.0755,-2.0608,-2.0887,-2.179,-2.2931,-2.4219,-2.7986,-3.2733,-3.8421,-4.285,-4.6513,-4.9232,-4.7468,-4.5248,-4.3324,-3.9687,-3.747,-3.7409,-3.802,-3.8704,-3.9483,-4.0164,-4.0481,-4.0481,-4.0481,-4.0334,-3.9967,-3.9773,-3.9493,-3.91,-3.8846,-3.87,-3.8718,-3.8718,-3.8369,-3.7788,-3.7788,-3.7076,-3.5907,-3.5907,-3.5384,-3.4569,-3.4281,-3.4016,-3.3726,-3.3473,-3.3376,-3.3304,-3.2785,-3.2646,-3.2671,-3.2619,-3.2857,-3.3221,-3.3667,-3.3317,-3.2943,-3.391,-3.3992,-3.3941,-3.4489,-3.4845,-3.5111,-3.5191,-3.5191,-3.5191,-3.5164,-3.5151,-3.507,-3.4829,-3.4937,-3.5044,-3.4855,-3.4977,-3.5151,-3.5151,-3.3182,-3.0923,-2.8725,-2.5675,-2.3734,-2.3743,-2.5456,-2.7085,-2.8253,-3.0316,-3.2091,-3.3369,-3.3707,-3.394,-3.4013,-3.2026,-3.089,-3.0704,-2.6663,-2.4538,-2.4473,-2.2408,-2.1384,-2.1384,-2.1384,-2.1384,-3.3859,-3.5589,-3.6364,-3.5698,-3.4765,-3.3128,-2.9873,-2.7217,-2.4682,-2.2104,-2.1195,-2.1012,-2.147,-2.1636,-2.2172,-2.3678,-2.5046,-2.7932,-3.3526,-3.6617,-4.0124,-4.5087,-4.4336,-4.3339,-4.3343,-4.0535,-3.9044,-3.9821,-4.0064,-4.0468,-4.0895,-4.0663,-4.0481,-4.0481,-4.0294,-4.0067,-3.9773,-3.9433,-3.914,-3.8846,-3.874,-3.8718,-3.8718,-3.8718,-3.8137,-3.7205,-3.7205,-3.6492,-3.538,-3.538,-3.5058,-3.4547,-3.4281,-3.4016,-3.3762,-3.3529,-3.3376,-3.3304,-3.2785,-3.2592,-3.255,-3.2244,-3.2214,-3.2499,-3.3385,-3.3414,-3.3325,-3.4111,-3.4242,-3.4281,-3.4859,-3.511,-3.5191,-3.5191,-3.5191,-3.5191,-3.5191,-3.5191,-3.5164,-3.5044,-3.5124,-3.5164,-3.5044,-3.5124,-3.5085,-3.4716,-3.2717,-3.0786,-2.95,-2.5385,-2.2697,-2.3028,-2.3613,-2.5293,-2.858,-3.0071,-3.1733,-3.3863,-3.4268,-3.4581,-3.4843,-3.3824,-3.2753,-3.1578,-2.9759,-2.7501,-2.4799,-2.3883,-2.2797,-2.1555,-2.1555,-2.1555,-3.2145,-3.3805,-3.4496,-3.3788,-3.2211,-3.0261,-2.807,-2.5758,-2.3674,-2.2271,-2.1459,-2.111,-2.1601,-2.1562,-2.1774,-2.2898,-2.3872,-2.6246,-3.1307,-3.4219,-3.7601,-4.2489,-4.2881,-4.2626,-4.2215,-4.014,-3.9136,-3.993,-3.9986,-4.0214,-4.0765,-4.0241,-4.0046,-4.0214,-4.0,-3.9714,-3.9433,-3.9207,-3.8953,-3.8718,-3.8718,-3.8718,-3.8718,-3.8718,-3.8007,-3.6784,-3.6784,-3.6129,-3.5028,-3.5028,-3.4823,-3.4438,-3.4245,-3.3992,-3.363,-3.3493,-3.3376,-3.3304,-3.2912,-3.2724,-3.2628,-3.2181,-3.1988,-3.2088,-3.2878,-3.3189,-3.3339,-3.3922,-3.4187,-3.4464,-3.5139,-3.5324,-3.5324,-3.5324,-3.5324,-3.5297,-3.5217,-3.5191,-3.5191,-3.5191,-3.5191,-3.5191,-3.5191,-3.5191,-3.498,-3.4398,-3.2942,-3.1439,-3.0155,-2.6646,-2.3942,-2.2982,-2.246,-2.398,-2.8355,-2.9711,-3.1526,-3.4359,-3.4794,-3.4977,-3.5191,-3.5004,-3.4229,-3.2757,-3.2066,-2.9746,-2.5821,-2.5183,-2.3772,-2.1716,-2.1725,-2.1741,-2.9092,-3.1685,-3.336,-3.3066,-3.145,-2.9459,-2.7724,-2.5489,-2.3469,-2.2231,-2.1265,-2.0693,-2.0948,-2.1267,-2.1558,-2.1786,-2.526,-2.94,-3.3597,-3.8251,-4.1714,-4.304,-4.4573,-4.399,-3.9924,-3.8092,-3.7003,-3.6661,-3.6733,-3.7137,-3.8089,-3.8506,-3.9005,-3.9599,-3.9599,-3.9452,-3.91,-3.91,-3.8953,-3.8718,-3.8718,-3.8718,-3.8718,-3.8718,-3.8007,-3.6784,-3.6784,-3.6129,-3.5028,-3.5028,-3.4668,-3.4185,-3.4185,-3.3859,-3.3376,-3.3376,-3.3376,-3.334,-3.3074,-3.2978,-3.2942,-3.2652,-3.241,-3.2193,-3.2193,-3.2388,-3.2754,-3.3339,-3.3869,-3.4517,-3.5391,-3.5631,-3.5631,-3.5631,-3.5631,-3.5551,-3.5257,-3.5191,-3.5191,-3.5191,-3.5191,-3.5191,-3.5191,-3.5191,-3.498,-3.4398,-3.4293,-3.322,-3.0369,-2.9831,-2.7951,-2.3314,-2.2707,-2.388,-2.6951,-2.9202,-3.1826,-3.5019,-3.5191,-3.5191,-3.5191,-3.5191,-3.5191,-3.5138,-3.2876,-3.056,-2.8242,-2.6147,-2.3944,-2.1716,-2.1847,-2.188,-2.6403,-2.8925,-3.0555,-2.9891,-2.8724,-2.7388,-2.5825,-2.4262,-2.2907,-2.193,-2.1485,-2.1381,-2.1627,-2.176,-2.2375,-2.4053,-2.6395,-2.8917,-3.1571,-3.5633,-3.829,-3.8344,-3.9802,-4.0233,-3.8945,-3.9539,-4.0019,-3.9856,-3.9333,-3.9382,-4.0347,-3.8288,-3.7834,-3.954,-3.9353,-3.9207,-3.91,-3.8913,-3.8766,-3.8718,-3.8718,-3.8718,-3.8718,-3.8718,-3.824,-3.7484,-3.7005,-3.6329,-3.5544,-3.4986,-3.4607,-3.4414,-3.4052,-3.3823,-3.363,-3.3493,-3.3376,-3.334,-3.3074,-3.2978,-3.2917,-3.2471,-3.2386,-3.2398,-3.2036,-3.1986,-3.2287,-3.3245,-3.3869,-3.4464,-3.5152,-3.5338,-3.5338,-3.5338,-3.5485,-3.5605,-3.5511,-3.5645,-3.5295,-3.3642,-3.4637,-3.4758,-3.141,-3.36,-3.4854,-3.1995,-3.2962,-3.334,-3.1498,-2.9765,-2.7759,-2.5065,-2.3286,-2.3485,-2.6342,-2.7249,-2.9645,-3.4267,-3.4557,-3.4768,-3.5191,-3.5191,-3.5191,-3.5191,-3.2876,-3.056,-2.8307,-2.6147,-2.4032,-2.2026,-2.2082,-2.2107,-2.4195,-2.6773,-2.8553,-2.7991,-2.7068,-2.596,-2.4719,-2.3554,-2.2505,-2.1743,-2.1405,-2.1309,-2.1568,-2.1713,-2.2343,-2.3872,-2.6206,-2.8754,-3.1371,-3.4467,-3.6693,-3.7322,-3.7751,-3.8074,-3.8339,-3.8997,-3.9508,-3.9552,-3.876,-3.8675,-3.9664,-3.7419,-3.6891,-3.8486,-3.8564,-3.8751,-3.8972,-3.8766,-3.8718,-3.8718,-3.8718,-3.8718,-3.8718,-3.8718,-3.8369,-3.7788,-3.7367,-3.6617,0.0,-3.5154,-3.4694,-3.4245,-3.3919,-3.3726,-3.3662,-3.3437,-3.3376,-3.3396,-3.3239,-3.3147,-3.3074,-3.2748,-3.2628,-3.2495,-3.1964,-3.1807,-3.202,-3.3179,-3.3787,-3.4343,-3.5139,-3.5525,-3.5658,-3.5551,-3.5752,-3.5925,-3.5819,-3.5225,-3.4232,-3.2671,-3.2913,-3.2379,-2.9316,-3.1328,-3.2483,-2.9852,-3.127,-3.1983,-2.9977,-2.8934,-2.7342,-2.4457,-2.2754,-2.2567,-2.4277,-2.5659,-2.8188,-3.2426,-3.3538,-3.4187,-3.4557,-3.3909,-3.3578,-3.3578,-3.1564,-2.9397,-2.7081,-2.502,-2.3449,-2.2302,-2.2302,-2.2302,0.0,-2.5045,-2.6934,-2.6934,-2.6066,-2.5037,-2.4209,-2.314,0.0,-2.1636,-2.1073,-2.0738,-2.1058,-2.1365,-2.1725,-2.2209,-2.5325,-2.8943,-3.2649,-3.4685,-3.6843,-3.9783,-3.8404,-3.7474,-3.82,-3.7009,-3.6298,-3.6552,-3.5802,-3.5774,-3.6641,-3.6133,-3.6129,-3.6784,-3.7367,-3.8007,-3.866,-3.866,-3.866,-3.8718,-3.8718,-3.8718,-3.8718,-3.8718,-3.8369,-3.7846,-3.7846,-3.6935,-3.5569,-3.5531,-3.482,-3.3787,-3.3762,-3.3593,-3.3376,-3.3376,-3.3376,-3.3376,-3.3376,-3.3376,-3.3376,-3.3396,-3.2978,-3.2447,-3.203,-3.1872,-3.2074,-3.3204,-3.3714,-3.424,-3.5337,-3.6059,-3.6393,-3.6139,-3.6286,-3.6433,-3.6166,-3.4228,-3.2403,-3.2227,-3.0428,-2.8773,-2.8386,-2.8652,-2.8597,-2.7877,-2.937,-2.9469,-2.6561,-2.754,-2.6749,-2.2119,-2.141,-2.1266,-2.1094,-2.4391,-2.7467,-2.9777,-3.2132,-3.3445,-3.3498,-3.1771,-3.0851,-3.0928,-2.926,-2.7197,-2.4882,-2.3081,-2.2277,-2.253,-2.253,-2.253,-2.1078,0.0,-2.3268,-2.3268,-2.302,-2.2699,0.0,-2.1777,-2.1309,-2.0993,-2.0939,-2.1275,-2.2278,-2.2317,-2.3014,-2.5603,-2.7859,-3.0082,-3.2479,-3.5039,-3.9011,-4.5304,-4.1028,-3.8113,-3.9632,-3.7869,-3.6441,-3.6008,-3.5609,-3.5713,-3.6344,-3.561,-3.5673,-3.6771,-3.6492,-3.6901,-3.8007,-3.8007,-3.8208,-3.8718,-3.8718,-3.8718,-3.8718,-3.8718,-3.8602,-3.8441,-3.8007,-3.7213,-3.6167,-3.546,-3.4648,-3.3762,-3.3569,-3.3437,-3.3376,-3.3376,-3.3376,-3.3376,-3.3376,-3.3376,-3.3396,-3.3147,-3.2592,-3.2054,-3.2557,-3.2553,-3.2591,-3.3538,-3.4188,-3.4774,-3.5751,-3.6072,-3.6153,-3.6086,-3.6286,-3.6473,-3.6433,-3.4685,-3.2534,-3.0667,-2.9871,-2.8317,-2.4603,-2.7054,-2.8592,-2.5967,-2.7489,-2.8286,-2.6414,-2.6512,-2.5483,-2.1969,-2.1571,-2.078,-1.8853,-2.2711,-2.6397,-2.9198,-3.1545,-3.302,-3.3498,-3.1361,-3.0481,-3.1121,-2.7869,-2.5087,-2.2906,-2.2423,-2.2277,-2.253,-2.253,-2.253,-2.0187,-2.1341,-2.2425,-2.2425,-2.2498,-2.2525,-2.2251,-2.1756,-2.1229,-2.0935,-2.1109,-2.159,-2.2485,-2.2979,-2.3901,-2.5971,-2.7859,-2.993,-3.2445,-3.6378,-3.9947,-4.26,-4.0456,-3.8872,-3.9032,-3.7609,-3.6546,-3.6271,-3.5716,-3.5546,-3.5842,-3.535,-3.5322,-3.5966,-3.5673,-3.607,-3.7354,-3.7354,-3.7658,-3.8298,-3.8298,-3.8427,-3.8718,-3.8718,-3.8718,-3.866,-3.8224,-3.7365,-3.6181,-3.5598,-3.4641,-3.3593,-3.3437,-3.3376,-3.3376,-3.3376,-3.3376,-3.3376,-3.3376,-3.3304,-3.3147,-3.2748,-3.2489,-3.2417,-3.2698,-3.3167,-3.3727,-3.4201,-3.4756,-3.5343,-3.5964,-3.6273,-3.6433,-3.6299,-3.65,-3.6659,-3.6659,-3.4011,-3.124,-2.9921,-2.7894,-2.5587,-2.2925,-2.4689,-2.5778,-2.4024,-2.5534,-2.6157,-2.3906,-2.4299,-2.3557,-2.0431,-2.002,-1.9407,-1.8033,-2.2118,-2.5476,-2.7099,-2.9328,-3.1284,-3.2834,-2.9819,-2.7671,-2.6688,-2.4592,-2.3152,-2.2318,-2.2318,-2.2359,-2.253,-2.253,-2.253,-1.988,-2.1502,-2.2974,-2.2693,-2.2926,-2.3166,-2.284,-2.2117,-2.1448,-2.1162,-2.1341,-2.177,-2.2539,-2.3594,-2.4636,-2.5531,-2.7443,-2.9962,-3.3362,-3.7717,-3.9983,-3.8366,-3.9243,-3.9491,-3.8295,-3.7364,-3.684,-3.6733,-3.5975,-3.545,-3.545,-3.5161,-3.5028,-3.5028,-3.5028,-3.5485,-3.6551,-3.6622,-3.7005,-3.7658,-3.7717,-3.8079,-3.8588,-3.866,-3.8691,-3.8651,-3.8428,-3.7435,-3.6072,-3.5829,-3.49,-3.3644,-3.3644,-3.3644,-3.3644,-3.3588,-3.3588,-3.3644,-3.3644,-3.3449,-3.3121,-3.267,-3.2787,-3.3052,-3.2882,-3.378,-3.4895,-3.4948,-3.5382,-3.5858,-3.6151,-3.658,-3.6861,-3.662,-3.6754,-3.6885,-3.6885,-3.3428,-3.0169,-2.9763,-2.6082,-2.2925,-2.2588,-2.253,-2.253,-2.253,-2.3828,-2.3926,-2.1625,-2.2473,-2.231,-1.9822,-1.938,-1.9173,-1.9007,-2.2636,-2.4981,-2.5362,-2.7594,-2.9722,-3.1646,-2.8047,-2.4595,-2.1618,-2.1422,-2.168,-2.2349,-2.2464,-2.253,-2.253,-2.253,-2.253,-2.0561,-2.2245,-2.3308,-2.175,-2.2164,-2.2827,-2.2245,-2.163,-2.1162,-2.1122,-2.1149,-2.1737,-2.3594,-2.4489,-2.5718,-2.8014,-3.0154,-3.3063,-3.7593,-3.7668,-3.9049,-4.3896,-4.1174,-3.9413,-4.0682,-3.8869,-3.7379,-3.6853,-3.617,-3.584,-3.584,-3.5287,-3.5028,-3.5028,-3.5028,-3.5087,-3.5251,-3.5778,-3.6329,-3.6972,-3.7555,-3.7846,-3.7949,-3.8499,-3.8584,-3.8388,-3.829,-3.7615,-3.6424,-3.6385,-3.5798,-3.4941,-3.4941,-3.4941,-3.4873,-3.4327,-3.4482,-3.4941,-3.4941,-3.4545,-3.4103,-3.4015,-3.3728,-3.3508,-3.3935,-3.455,-3.5249,-3.5736,-3.6137,-3.6457,-3.6699,-3.6861,-3.6885,-3.6874,-3.6845,-3.6885,-3.6885,-3.4693,-3.2139,-3.0102,-2.7439,-2.4909,-2.2867,-2.253,-2.253,-2.253,-2.2744,-2.3303,-2.4358,-2.4244,-2.4423,-2.5338,-2.4751,-2.4263,-2.4073,-2.476,-2.5967,-2.7998,-3.0314,-3.0983,-2.9624,-2.7601,-2.531,-2.2846,-2.1941,-2.1525,-2.1664,-2.225,-2.253,-2.253,-2.253,-2.253,-1.9893,-2.1381,-2.2795,-2.361,-2.5185,-2.6421,-2.6003,-2.622,-2.6175,-2.5014,-2.4872,-2.5335,-2.6441,-2.7756,-2.9574,-3.2383,-3.2948,-3.4111,-3.7106,-3.8044,-3.9229,-4.154,-4.0932,-4.0216,-3.998,-3.862,-3.7658,-3.7367,-3.6771,-3.6421,-3.6421,-3.5836,-3.5485,-3.5485,-3.5192,-3.5028,-3.5028,-3.5251,-3.5744,-3.6329,-3.6622,-3.7134,-3.7788,-3.8079,-3.8255,-3.8321,-3.8133,-3.7429,-3.6471,-3.6357,-3.5849,-3.522,-3.522,-3.522,-3.5151,-3.4885,-3.4941,-3.5126,-3.4808,-3.4541,-3.4299,-3.4146,-3.4145,-3.4286,-3.4656,-3.5318,-3.5973,-3.6245,-3.6513,-3.6754,-3.6845,-3.6885,-3.6885,-3.6885,-3.6885,-3.6885,-3.6885,-3.4971,-3.2992,-3.1858,-2.8631,-2.574,-2.4662,-2.3369,-2.2925,-2.423,-2.4442,-2.512,-2.6918,-2.6908,-2.684,-2.7147,-2.6564,-2.6073,-2.5925,-2.6789,-2.7746,-2.8845,-3.1261,-3.1597,-2.9311,-2.735,-2.5373,-2.3274,-2.1767,-2.1187,-2.1483,-2.2184,-2.253,-2.253,-2.3828,-2.4442,-1.9669,-2.0833,-2.2407,-2.5077,-2.7019,-2.8574,-2.9862,-3.0293,-3.0203,-2.9454,-2.9389,-2.9457,-2.9338,-3.06,-3.2523,-3.5072,-3.4863,-3.4857,-3.6193,-3.8235,-3.932,-3.8479,-3.9934,-4.0361,-3.882,-3.8298,-3.8007,-3.8007,-3.7426,-3.7005,-3.7005,-3.6421,-3.6129,-3.6129,-3.5673,-3.5322,-3.5192,-3.5192,-3.538,-3.5673,-3.5966,-3.6622,-3.7555,-3.7846,-3.8055,-3.8143,-3.7929,-3.7314,-3.6591,-3.6368,-3.6041,-3.5622,-3.5622,-3.5498,-3.5429,-3.5553,-3.5498,-3.5365,-3.501,-3.4859,-3.4769,-3.4551,-3.4771,-3.5134,-3.5344,-3.5946,-3.65,-3.65,-3.6672,-3.6885,-3.6885,-3.6885,-3.6885,-3.6885,-3.6885,-3.6885,-3.6885,-3.5459,-3.3955,-3.3396,-3.0316,-2.762,-2.7031,-2.5406,-2.4786,-2.6662,-2.6937,-2.7677,-2.9583,-2.9706,-2.962,-2.9605,-2.8848,-2.8307,-2.8029,-2.9259,-3.0032,-3.0121,-3.1942,-3.2158,-3.0332,-2.8096,-2.6016,-2.3966,-2.2325,-2.1402,-2.1302,-2.2126,-2.281,-2.3369,-2.5289,-2.6472,-2.0967,-2.1871,-2.2712,-2.4313,-2.448,-2.5738,-3.158,-3.0564,-2.9361,-3.2766,-3.3204,-3.2555,-3.1358,-3.142,-3.2103,-3.3408,-3.4907,-3.6233,-3.7168,-3.7939,-3.8449,-3.8651,-3.8851,-3.8878,-3.8731,-3.866,-3.866,-3.866,-3.8079,-3.7717,-3.7717,-3.7076,-3.6713,-3.6713,-3.6713,-3.6421,-3.5836,-3.5836,-3.5602,-3.5087,-3.62,-3.6784,-3.6914,-3.8079,-3.8339,-3.7849,-3.7809,-3.7432,-3.6857,-3.6872,-3.6817,-3.6761,-3.6761,-3.6455,-3.6109,-3.6595,-3.6455,-3.6109,-3.6569,-3.6535,-3.6351,-3.6337,-3.6151,-3.5992,-3.6005,-3.6273,-3.65,-3.65,-3.6672,-3.6885,-3.6885,-3.6885,-3.6885,-3.6885,-3.6885,-3.6885,-3.6885,-3.6761,-3.5985,-3.3731,-3.3004,-3.2071,-2.983,-2.9311,-2.9243,-2.9424,-2.9434,-3.0316,-3.2656,-3.2476,-3.3004,-3.5267,-3.4208,-3.3132,-3.2554,-3.2677,-3.2828,-3.3056,-3.3043,-3.3043,-3.3092,-3.0755,-2.8291,-2.5959,-2.4662,-2.2941,-2.0667,-2.1887,-2.3647,-2.5863,-2.6281,-2.7524,-2.0164,-2.1416,-2.2998,-2.5463,-2.5894,-2.7117,-3.2727,-3.4695,-3.545,-3.6063,-3.7363,-3.7795,-3.587,-3.6942,-3.7634,-3.6127,-3.714,-3.7914,-3.7485,-3.7742,-3.8103,-3.8397,-3.8611,-3.8718,-3.8718,-3.8718,-3.8718,-3.8718,-3.8499,-3.8369,-3.8369,-3.7788,-3.7426,-3.7426,-3.7005,-3.6713,-3.648,-3.648,-3.6329,-3.6129,-3.62,-3.6421,-3.6843,-3.7717,-3.8038,-3.7809,-3.7809,-3.7489,-3.6885,-3.6885,-3.6885,-3.6885,-3.6885,-3.6761,-3.6608,-3.6817,-3.6761,-3.6624,-3.663,-3.6552,-3.65,-3.65,-3.6433,-3.638,-3.654,-3.6687,-3.6754,-3.6754,-3.6805,-3.6885,-3.6885,-3.6885,-3.6885,-3.6885,-3.6885,-3.6885,-3.6885,-3.6885,-3.6608,-3.5707,-3.4346,-3.3004,-3.2071,-3.0666,-3.0225,-3.1735,-3.1926,-3.2812,-3.525,-3.5361,-3.5583,-3.6484,-3.5451,-3.4289,-3.3331,-3.3263,-3.3268,-3.3376,-3.328,-3.3268,-3.3376,-3.1026,-2.9275,-2.8358,-2.5683,-2.3871,-2.3,-2.2735,-2.3149,-2.4223,-2.5799,-2.7,-2.008,-2.1296,-2.3032,-2.5613,-2.6513,-2.8096,-3.3068,-3.6508,-3.9003,-4.0176,-4.1059,-4.1154,-3.9594,-4.0287,-4.0302,-3.7797,-3.8727,-3.9243,-3.7889,-3.7985,-3.8321,-3.851,-3.8633,-3.8718,-3.8718,-3.8718,-3.8718,-3.8718,-3.8718,-3.8718,-3.8718,-3.8298,-3.8079,-3.8079,-3.7645,-3.7296,-3.7134,-3.7134,-3.7005,-3.6784,-3.6609,-3.6713,-3.7134,-3.7788,-3.7981,-3.7809,-3.7809,-3.7489,-3.6885,-3.6885,-3.6885,-3.6885,-3.6885,-3.6885,-3.6885,-3.6885,-3.6885,-3.6845,-3.6672,-3.6647,-3.6647,-3.6647,-3.6647,-3.6687,-3.6861,-3.6885,-3.6885,-3.6885,-3.6885,-3.6885,-3.6885,-3.6885,-3.6885,-3.6885,-3.6885,-3.6885,-3.6885,-3.6885,-3.6885,-3.6885,-3.5583,-3.4414,-3.4414,-3.3092,-3.2532,-3.4166,-3.4414,-3.5027,-3.6664,-3.6885,-3.6817,-3.6664,-3.5776,-3.4817,-3.3768,-3.35,-3.3376,-3.3376,-3.3376,-3.3376,-3.3376,-3.1769,-3.0597,-3.001,-2.7733,-2.6367,-2.5999,-2.456,-2.4374,-2.5378,-2.6331,-2.7123,-2.1189,-2.175,-2.2758,-2.4239,-2.572,-2.8003,-3.2485,-3.5178,-3.8608,-4.5151,-4.4045,-4.1912,-4.1912,-4.0493,-3.8868,-3.761,-3.9285,-4.0153,-3.8515,-3.874,-3.9122,-3.9122,-3.8863,-3.8718,-3.8718,-3.8718,-3.8718,-3.8718,-3.8718,-3.8718,-3.8718,-3.8718,-3.8718,-3.8718,-3.8718,-3.8427,-3.7788,-3.7788,-3.7484,-3.6843,-3.7497,-3.7788,-3.7846,-3.8427,-3.8397,-3.7809,-3.7809,-3.7489,-3.6885,-3.6885,-3.6885,-3.6885,-3.6885,-3.6885,-3.6885,-3.6885,-3.6885,-3.6885,-3.6885,-3.6885,-3.6885,-3.6885,-3.6885,-3.6885,-3.6885,-3.6885,-3.6885,-3.6885,-3.6885,-3.6885,-3.6885,-3.6885,-3.6885,-3.6885,-3.6885,-3.6885,-3.6885,-3.6885,-3.6885,-3.6885,-3.6885,-3.6885,-3.6885,-3.6885,-3.6885,-3.6885,-3.6885,-3.6885,-3.6885,-3.6885,-3.6664,-3.6178,-3.5553,-3.4941,-3.4383,-3.3768,-3.3432,-3.3432,-3.3432,-3.3432,-3.3432,-3.3432,-3.2567,-3.0688,-3.1218,-3.0753,-2.9239,-2.7374,-2.7781,-3.0323,-2.8109,-2.8207,-2.0597,-2.2011,-2.3928,-2.4983,-2.7455,-3.0523,-3.392,-3.6776,-4.0391,-4.6512,-4.566,-4.3761,-4.3722,-4.4911,-4.4389,-3.9752,-4.1396,-4.2139,-3.9009,-3.8904,-3.9112,-3.9112,-3.8867,-3.8703,-3.8703,-3.852,-3.8397,-3.8397,-3.8611,-3.8718,-3.8718,-3.8718,-3.8718,-3.8718,-3.8718,-3.8602,-3.8427,-3.8215,-3.8038,-3.7821,-3.7826,-3.7668,-3.7462,-3.8109,-3.8076,-3.7529,-3.7742,-3.7489,-3.6885,-3.6885,-3.6885,-3.6885,-3.6885,-3.6885,-3.6885,-3.6885,-3.6885,-3.6885,-3.6885,-3.6885,-3.6885,-3.6885,-3.6885,-3.6885,-3.6885,-3.6885,-3.6885,-3.6885,-3.6885,-3.6885,-3.6885,-3.6885,-3.6885,-3.6885,-3.6885,-3.6885,-3.6885,-3.6885,-3.6885,-3.6885,-3.6885,-3.6885,-3.6885,-3.6885,-3.6885,-3.6885,-3.6885,-3.6885,-3.6885,-3.6885,-3.6664,-3.6178,-3.5956,-3.5622,-3.4997,-3.4761,-3.4662,-3.4662,-3.4662,-3.4482,-3.4048,-3.4048,-3.398,-3.3855,-3.297,-3.2227,-3.167,-3.0233,-2.8977,-2.7913,-2.7447,-2.7554,-2.2025,-2.3581,-2.5451,-2.7041,-2.9125,-3.1756,-3.5463,-3.8292,-4.1522,-4.6307,-4.5854,-4.4979,-4.6169,-4.7676,-4.7319,-4.3022,-4.3625,-4.3624,-4.0572,-3.9742,-3.9432,-3.9432,-3.8986,-3.8671,-3.8671,-3.8311,-3.8143,-3.8321,-3.8437,-3.8584,-3.866,-3.8718,-3.8718,-3.8718,-3.8611,-3.8544,-3.8544,-3.8281,-3.8076,-3.8076,-3.7889,-3.7636,-3.736,-3.7879,-3.7823,-3.7382,-3.7448,-3.7261,-3.6885,-3.6885,-3.6885,-3.6885,-3.6885,-3.6885,-3.6885,-3.6885,-3.6885,-3.6885,-3.6885,-3.6885,-3.6885,-3.6885,-3.6885,-3.6885,-3.6885,-3.6885,-3.6885,-3.6885,-3.6885,-3.6885,-3.6885,-3.6885,-3.6885,-3.6885,-3.6885,-3.6885,-3.6885,-3.6885,-3.6885,-3.6885,-3.6885,-3.6885,-3.6885,-3.6885,-3.6885,-3.6885,-3.6083,-3.5459,-3.5459,-3.4624,-3.3899,-3.3607,-3.4222,-3.4482,-3.4135,-3.4761,-3.522,-3.522,-3.522,-3.5151,-3.5009,-3.4761,-3.4941,-3.5553,-3.4644,-3.4306,-3.4562,-3.2943,-3.1386,-2.9904,-2.9186,-2.8812,-2.4259,-2.5598,-2.7068,-2.9744,-3.0814,-3.2307,-3.6723,-3.9194,-4.1493,-4.4732,-4.495,-4.542,-4.8473,-4.8847,-4.82,-4.6765,-4.5788,-4.4521,-4.2558,-4.0991,-3.9986,-4.0029,-3.9322,-3.8759,-3.8689,-3.8165,-3.7959,-3.8214,-3.824,-3.8388,-3.8611,-3.8593,-3.8593,-3.8593,-3.837,-3.8281,-3.8281,-3.7929,-3.7782,-3.7782,-3.7742,-3.7595,-3.7342,-3.7635,-3.7635,-3.7382,-3.7048,-3.6941,-3.6925,-3.6885,-3.6885,-3.6885,-3.6885,-3.6885,-3.6885,-3.6885,-3.6885,-3.6885,-3.6885,-3.6885,-3.6845,-3.6885,-3.6885,-3.6845,-3.6885,-3.6885,-3.6885,-3.6885,-3.6885,-3.6885,-3.6885,-3.6885,-3.6885,-3.6885,-3.6885,-3.6885,-3.6885,-3.6885,-3.6885,-3.6885,-3.6885,-3.6885,-3.6885,-3.6885,-3.6817,-3.6608,-3.4693,-3.3216,-3.3004,-3.106,-2.9706,-2.9706,-3.1184,-3.2287,-3.2535,-3.4048,-3.5151,-3.5382,-3.5344,-3.5622,-3.6178,-3.5622,-3.5553,-3.6178,-3.6178,-3.66,-3.7342,-3.5333,-3.4406,-3.4405,-3.2377,-3.1439,-2.2279,-2.4502,-2.7308,-2.9798,-3.2193,-3.4275,-3.5537,-3.6172,-3.7618,-4.1738,-4.3151,-4.4361,-4.6743,-4.7814,-4.8139,-4.7648,-4.638,-4.4725,-4.2664,-4.0998,-4.0082,-4.0369,-3.9812,-3.922,-3.8737,-3.8403,-3.8021,-3.7625,-3.7782,-3.7929,-3.7996,-3.7996,-3.7996,-3.7996,-3.7956,-3.7929,-3.7929,-3.7635,-3.7489,-3.7489,-3.7235,-3.7088,-3.6992,-3.7342,-3.7448,-3.7382,-3.7048,-3.7032,-3.7275,-3.6992,-3.6885,-3.6885,-3.6885,-3.6885,-3.6885,-3.6885,-3.6885,-3.6885,-3.6885,-3.6739,-3.6592,-3.6805,-3.6739,-3.6647,-3.6861,-3.6885,-3.6885,-3.6885,-3.6885,-3.6885,-3.6885,-3.6885,-3.6885,-3.6885,-3.6885,-3.6885,-3.6885,-3.6885,-3.6885,-3.6885,-3.6885,-3.6885,-3.6885,-3.6885,-3.6263,-3.4358,-3.362,-3.26,-3.0722,-3.0045,-2.9706,-2.9706,-3.0045,-3.115,-3.3347,-3.3617,-3.4613,-3.6772,-3.6685,-3.6595,-3.6733,-3.6178,-3.6178,-3.6733,-3.7001,-3.711,-3.6992,-3.6992,-3.5978,-3.4094,-3.3872,-3.3864,-2.2846,-2.5196,-2.7976,-3.1062,-3.3357,-3.4895,-3.5137,-3.5191,-3.5862,-3.8121,-4.0317,-4.2487,-4.4598,-4.6537,-4.769,-4.7322,-4.5836,-4.4354,-4.3242,-4.0732,-3.9009,-3.9181,-3.9052,-3.8865,-3.8523,-3.8487,-3.8418,-3.8221,-3.8371,-3.8395,-3.8249,-3.8233,-3.8106,-3.7809,-3.7676,-3.7595,-3.7595,-3.7301,-3.7155,-3.7155,-3.6952,-3.6885,-3.6885,-3.7088,-3.7155,-3.7155,-3.6952,-3.7008,-3.7155,-3.6952,-3.6885,-3.6885,-3.6885,-3.6885,-3.6885,-3.6885,-3.6885,-3.6885,-3.6885,-3.6834,-3.6727,-3.6845,-3.6834,-3.6699,-3.6845,-3.6885,-3.6885,-3.6885,-3.6885,-3.6925,-3.7128,-3.7155,-3.7155,-3.7155,-3.6992,-3.6885,-3.6885,-3.6885,-3.6885,-3.6885,-3.6885,-3.6885,-3.6885,-3.6885,-3.6054,-3.3676,-3.2319,-3.0722,-2.8291,-2.6994,-2.6263,-2.6263,-2.7279,-2.9024,-3.1636,-3.2727,-3.442,-3.6974,-3.7008,-3.6885,-3.6885,-3.6608,-3.6608,-3.6885,-3.7088,-3.7088,-3.6885,-3.7382,-3.6984,-3.5851,-3.613,-3.6467,-2.334,-2.599,-2.8738,-3.2412,-3.3975,-3.4683,-3.4977,-3.5084,-3.5124,-3.5124,-3.7415,-4.0044,-4.2217,-4.4548,-4.6088,-4.592,-4.443,-4.323,-4.3192,-4.0032,-3.7713,-3.7769,-3.8061,-3.8215,-3.8215,-3.8384,-3.865,-3.8931,-3.8917,-3.8876,-3.8732,-3.8676,-3.8395,-3.7831,-3.7603,-3.7427,-3.7301,-3.7048,-3.6885,-3.6885,-3.6885,-3.6885,-3.6885,-3.6885,-3.6885,-3.6885,-3.6885,-3.6885,-3.6885,-3.6885,-3.6885,-3.6885,-3.6885,-3.6885,-3.6885,-3.6885,-3.6885,-3.6885,-3.6885,-3.6845,-3.6861,-3.6885,-3.6845,-3.6929,-3.737,-3.7563,-3.7659,-3.8087,-3.8253,-3.8238,-3.8151,-3.8067,-3.7941,-3.7507,-3.7155,-3.6885,-3.6885,-3.6885,-3.6885,-3.6885,-3.6885,-3.6885,-3.6885,-3.6885,-3.6054,-3.3676,-3.124,-2.8847,-2.6415,-2.3983,-2.253,-2.253,-2.4288,-2.6662,-2.9544,-3.1556,-3.3924,-3.6799,-3.6912,-3.6885,-3.6885,-3.6885,-3.6885,-3.6885,-3.6885,-3.6885,-3.6885,-3.7195,-3.7489,-3.7809,-3.8076,-3.837,-2.017,-2.4414,-2.9219,-3.2278,-3.3521,-3.4082,-3.4376,-3.4629,-3.4869,-3.4869,-3.5751,-3.7211,-3.9425,-4.0507,-4.1533,-4.2827,-4.1667,-4.0537,-4.0375,-3.8643,-3.7475,-3.7741,-3.7864,-3.7892,-3.7892,-3.7881,-3.8021,-3.8274,-3.8302,-3.8442,-3.868,-3.8722,-3.8446,-3.7796,-3.7755,-3.7506,-3.6952,-3.6912,-3.6885,-3.6885,-3.6885,-3.6885,-3.6885,-3.6885,-3.6885,-3.6885,-3.6885,-3.6885,-3.6885,-3.6885,-3.6885,-3.6885,-3.6885,-3.6885,-3.6885,-3.6885,-3.6885,-3.6885,-3.6885,-3.6754,-3.6607,-3.6805,-3.6754,-3.6977,-3.9252,-4.0194,-4.0867,-4.2811,-4.3668,-4.3461,-4.1377,-4.0686,-3.9986,-3.7885,-3.7155,-3.6885,-3.6885,-3.6885,-3.6885,-3.6885,-3.6885,-3.6885,-3.6885,-3.6885,-3.6054,-3.3676,-3.124,-2.8847,-2.6415,-2.3983,-2.253,-2.253,-2.281,-2.4915,-2.9655,-3.0097,-3.2232,-3.7022,-3.7088,-3.6885,-3.6885,-3.6885,-3.6885,-3.6885,-3.6885,-3.6885,-3.6885,-3.6925,-3.7261,-3.7809,-3.7849,-3.8183,-2.1884,-2.5264,-2.8604,-3.1717,-3.2933,-3.3507,-3.3975,-3.4309,-3.4509,-3.4509,-3.4824,-3.5467,-3.6775,-3.8324,-3.9589,-4.0168,-3.9683,-3.9189,-3.9078,-3.7356,-3.6173,-3.6349,-3.6794,-3.705,-3.705,-3.7845,-3.8322,-3.8464,-3.8747,-3.8858,-3.8662,-3.8832,-3.8481,-3.7579,-3.7702,-3.7646,-3.7425,-3.737,-3.737,-3.737,-3.7038,-3.6885,-3.6885,-3.6885,-3.6885,-3.6885,-3.6885,-3.6885,-3.6885,-3.6885,-3.6885,-3.6885,-3.6885,-3.6885,-3.6885,-3.6885,-3.6885,-3.6885,-3.6885,-3.6805,-3.6754,-3.6845,-3.6805,-3.7166,-3.9663,-4.0544,-4.1199,-4.3698,-4.4509,-4.4223,-4.22,-4.1438,-4.0633,-3.8228,-3.7408,-3.7128,-3.6925,-3.6885,-3.6885,-3.6885,-3.6885,-3.6885,-3.6885,-3.6885,-3.6054,-3.3676,-3.2387,-3.0846,-2.8415,-2.5987,-2.4508,-2.4508,-2.3328,-2.4495,-2.9449,-2.976,-3.1804,-3.6781,-3.6952,-3.6885,-3.6885,-3.6885,-3.6885,-3.6885,-3.6885,-3.6885,-3.6885,-3.6885,-3.7155,-3.7569,-3.7742,-3.8036,-2.2605,-2.4867,-2.6827,-3.0154,-3.1543,-3.2332,-3.3227,-3.3654,-3.3908,-3.4055,-3.4082,-3.4269,-3.487,-3.6546,-3.7781,-3.7599,-3.7491,-3.7444,-3.7444,-3.6006,-3.498,-3.498,-3.5656,-3.6216,-3.6375,-3.7379,-3.8173,-3.8525,-3.8966,-3.9049,-3.8854,-3.9156,-3.8787,-3.7592,-3.7839,-3.7894,-3.7563,-3.7563,-3.7563,-3.7563,-3.7093,-3.6885,-3.6885,-3.6885,-3.6885,-3.6885,-3.6885,-3.6885,-3.6885,-3.6885,-3.6885,-3.6885,-3.6885,-3.6885,-3.6885,-3.6885,-3.6885,-3.6885,-3.6885,-3.6885,-3.6885,-3.6885,-3.6885,-3.7314,-3.9692,-4.0446,-4.1204,-4.4389,-4.5466,-4.5272,-4.4042,-4.3027,-4.1688,-3.9293,-3.7965,-3.7195,-3.6981,-3.6885,-3.6885,-3.6885,-3.6885,-3.6885,-3.6885,-3.6885,-3.6263,-3.4501,-3.3676,-3.2656,-3.0846,-2.8507,-2.7031,-2.7031,-2.5406,-2.6044,-3.026,-3.0598,-3.2408,-3.6608,-3.6885,-3.6885,-3.6885,-3.6885,-3.6885,-3.6885,-3.6885,-3.6885,-3.6885,-3.7008,-3.7155,-3.7382,-3.7676,-3.7969,-1.9466,-2.1352,-2.3514,-2.7041,-2.8804,-3.0114,-3.181,-3.2474,-3.2848,-3.3347,-3.3454,-3.3641,-3.4255,-3.4731,-3.5023,-3.4985,-3.4741,-3.4504,-3.4504,-3.4398,-3.4346,-3.4346,-3.4887,-3.5481,-3.5955,-3.6074,-3.6725,-3.8129,-3.8249,-3.859,-3.9388,-3.9763,-3.9383,-3.8176,-3.8484,-3.8073,-3.6941,-3.6941,-3.6941,-3.6941,-3.6885,-3.6885,-3.6885,-3.6885,-3.6885,-3.6885,-3.6885,-3.6885,-3.6885,-3.6885,-3.6885,-3.6885,-3.6885,-3.6885,-3.6885,-3.6885,-3.6885,-3.6885,-3.6885,-3.6885,-3.6885,-3.6885,-3.6885,-3.7314,-3.9692,-4.0661,-4.1926,-4.6432,-4.825,-4.8796,-4.8611,-4.6681,-4.4223,-4.177,-3.9029,-3.6912,-3.6885,-3.6885,-3.6885,-3.6885,-3.6885,-3.6885,-3.6885,-3.6885,-3.6872,-3.6733,-3.4761,-3.3272,-3.3148,-3.1004,-2.9491,-2.9491,-2.9424,-3.0327,-3.288,-3.3116,-3.4222,-3.6748,-3.6885,-3.6885,-3.6885,-3.6885,-3.6885,-3.6885,-3.6885,-3.6885,-3.6885,-3.7235,-3.7382,-3.7382,-3.7676,-3.7969,-1.8988,-2.0238,-2.1786,-2.5184,-2.7199,-2.8698,-3.01,-3.137,-3.2318,-3.2532,-3.2719,-3.2969,-3.3183,-3.3734,-3.4269,-3.4456,-3.4254,-3.4019,-3.4019,-3.4019,-3.4084,-3.4267,-3.4663,-3.5095,-3.5441,-3.577,-3.6232,-3.6763,-3.7447,-3.8029,-3.8355,-3.9179,-3.9148,-3.7897,-3.8426,-3.8321,-3.7494,-3.7494,-3.7494,-3.7494,-3.7093,-3.6885,-3.6885,-3.6885,-3.6885,-3.6885,-3.6885,-3.6885,-3.6885,-3.6885,-3.6885,-3.6885,-3.6885,-3.6885,-3.6885,-3.6885,-3.6885,-3.6885,-3.6885,-3.6885,-3.6885,-3.6885,-3.6885,-3.7314,-3.9692,-4.049,-4.1318,-4.4676,-4.6939,-4.7691,-4.5059,-4.464,-4.3901,-3.9783,-3.7821,-3.6885,-3.6885,-3.6885,-3.6885,-3.6885,-3.6885,-3.6885,-3.6885,-3.6885,-3.6885,-3.6885,-3.6139,-3.5583,-3.5583,-3.3496,-3.1982,-3.1982,-3.0598,-3.0666,-3.306,-3.3272,-3.4346,-3.6748,-3.6885,-3.6885,-3.6885,-3.6885,-3.6885,-3.6885,-3.6885,-3.6992,-3.7235,-3.7342,-3.7489,-3.7676,-3.7782,-3.7969,-1.7877,-1.8852,-2.0266,-2.355,-2.5043,-2.636,-2.8748,-2.9837,-3.0551,-3.1189,-3.1557,-3.1917,-3.2262,-3.2643,-3.3108,-3.3643,-3.3627,-3.3407,-3.3199,-3.3355,-3.3576,-3.3718,-3.4399,-3.4895,-3.503,-3.5453,-3.5823,-3.598,-3.6715,-3.7277,-3.7695,-3.8581,-3.869,-3.7883,-3.8208,-3.8115,-3.7494,-3.7494,-3.7494,-3.7494,-3.7093,-3.6885,-3.6885,-3.6885,-3.6885,-3.6885,-3.6885,-3.6885,-3.6885,-3.6885,-3.6885,-3.6885,-3.6885,-3.6885,-3.6885,-3.6885,-3.6885,-3.6885,-3.6885,-3.6885,-3.6885,-3.6885,-3.6885,-3.7217,-3.8774,-3.9213,-3.9735,-4.2331,-4.4264,-4.5156,-4.3356,-4.3301,-4.2639,-3.8387,-3.7155,-3.6885,-3.6885,-3.6885,-3.6885,-3.6885,-3.6885,-3.6885,-3.6885,-3.6885,-3.6885,-3.6885,-3.6885,-3.6885,-3.6885,-3.5515,-3.4501,-3.4501,-3.3092,-3.2756,-3.4358,-3.4501,-3.5181,-3.6817,-3.6885,-3.6885,-3.6885,-3.6885,-3.6885,-3.6885,-3.6885,-3.7128,-3.7529,-3.7529,-3.7635,-3.7809,-3.7809,-3.7929,0.0,0.0,0.0,-2.1966,-2.2302,-2.3019,-2.7575,-2.7668,-2.7353,-2.933,-2.9955,-3.0469,-3.1572,-3.1346,-3.1342,-3.2381,-3.2609,-3.2465,-3.1908,-3.2323,-3.2685,-3.2697,-3.394,-3.4802,-3.4815,-3.5017,-3.5401,-3.5928,-3.598,-3.6506,-3.7643,-3.7996,-3.8188,-3.8202,-3.7922,-3.7467,-3.6885,-3.6885,-3.6885,-3.6885,-3.6885,-3.6885,-3.6885,-3.6885,-3.6885,-3.6885,-3.6885,-3.6885,-3.6885,-3.6885,-3.6885,-3.6885,-3.6885,-3.6885,-3.6885,-3.6885,-3.6885,-3.6885,-3.6885,-3.6885,-3.6885,-3.6885,-3.6885,-3.6885,-3.6885,-3.6885,-3.737,-3.9637,-4.0607,-4.1576,-4.4129,-4.3062,-4.0652,-3.8023,-3.7155,-3.6885,-3.6885,-3.6885,-3.6885,-3.6885,-3.6885,-3.6885,-3.6885,-3.6885,-3.6885,-3.6885,-3.6885,-3.6885,-3.6885,-3.6885,-3.6885,-3.6885,-3.6885,-3.6885,-3.6885,-3.6885,-3.6885,-3.6885,-3.6885,-3.6885,-3.6885,-3.6885,-3.6885,-3.6885,-3.6885,-3.7235,-3.7809,-3.7809,-3.7809,-3.7849,-3.7849,-3.7793,-1.6016,0.0,0.0,0.0,0.0,0.0,-2.3518,-2.4483,-2.5482,-2.7544,-2.8364,-2.9111,-3.0577,-3.1198,-3.1557,-3.1633,-3.1552,-3.1615,-3.2008,-3.2238,-3.2571,-3.3214,-3.3792,-3.4295,-3.4775,-3.4882,-3.5068,-3.5388,-3.577,-3.6348,-3.7068,-3.7785,-3.8074,-3.7948,-3.7398,-3.6965,-3.662,-3.662,-3.6727,-3.6885,-3.6885,-3.6885,-3.6885,-3.6885,-3.6885,-3.6885,-3.6885,-3.6885,-3.6885,-3.6885,-3.6885,-3.6885,-3.6885,-3.6885,-3.6885,-3.6885,-3.6885,-3.6885,-3.6885,-3.6885,-3.6885,-3.6885,-3.6885,-3.6885,-3.6885,-3.6885,-3.7038,-3.7715,-3.916,-4.083,-4.1999,-4.0742,-3.889,-3.7939,-3.7489,-3.7195,-3.6981,-3.6885,-3.6885,-3.6885,-3.6885,-3.6885,-3.6885,-3.6885,-3.6885,-3.6885,-3.6885,-3.6885,-3.6885,-3.6885,-3.6885,-3.6885,-3.6885,-3.6885,-3.6885,-3.6885,-3.6885,-3.6885,-3.7128,-3.7275,-3.7275,-3.7275,-3.7275,-3.7275,-3.7275,-3.7448,-3.7809,-3.7809,-3.8036,-3.8464,-3.8464,-3.8357,-1.6573,-1.6806,-1.7531,-1.8578,0.0,0.0,-2.2281,-2.2851,-2.3555,-2.61,-2.6961,-2.7748,-2.9417,-3.0715,-3.1647,-3.2097,-3.2659,-3.2727,-3.1958,-3.2187,-3.2569,-3.3056,-3.3552,-3.4028,-3.4362,-3.4668,-3.4882,-3.5004,-3.5439,-3.6033,-3.6859,-3.768,-3.7989,-3.7573,-3.7136,-3.6748,-3.65,-3.65,-3.6647,-3.6885,-3.6885,-3.6885,-3.6885,-3.6885,-3.6885,-3.6885,-3.6885,-3.6885,-3.6885,-3.6885,-3.6885,-3.6885,-3.6885,-3.6885,-3.6885,-3.6885,-3.6885,-3.6885,-3.6885,-3.6885,-3.6912,-3.7088,-3.6992,-3.6912,-3.7088,-3.6992,-3.6885,-3.6885,-3.8058,-3.9432,-3.994,-3.9047,-3.8036,-3.7849,-3.7489,-3.7155,-3.6925,-3.6885,-3.6885,-3.6885,-3.6885,-3.6885,-3.6885,-3.6885,-3.6885,-3.6885,-3.6885,-3.6885,-3.6885,-3.6885,-3.6981,-3.7059,-3.7128,-3.7155,-3.7246,-3.7301,-3.7301,-3.7301,-3.7448,-3.7569,-3.7569,-3.7569,-3.7569,-3.7569,-3.7569,-3.7702,-3.7996,-3.7996,-3.8183,-3.8544,-3.8651,-3.8544,-1.7705,-1.7711,0.0,-1.9991,-1.9142,0.0,-2.2262,-2.2006,-2.1837,-2.465,-2.5529,-2.6322,-2.8069,-2.966,-3.1201,-3.2526,-3.431,-3.4736,-3.2428,-3.25,-3.2857,-3.2907,-3.3436,-3.3801,-3.3828,-3.4336,-3.4735,-3.4762,-3.5082,-3.5782,-3.6754,-3.7652,-3.7846,-3.7159,-3.6904,-3.6653,-3.6393,-3.6433,-3.6607,-3.6845,-3.6885,-3.6885,-3.6885,-3.6885,-3.6885,-3.6885,-3.6885,-3.6885,-3.6885,-3.6885,-3.6885,-3.6885,-3.6885,-3.6885,-3.6885,-3.6885,-3.6885,-3.6885,-3.6885,-3.6885,-3.6981,-3.7235,-3.7155,-3.6981,-3.7235,-3.7155,-3.6885,-3.6981,-3.7382,-3.7889,-3.8183,-3.8076,-3.7849,-3.7809,-3.7382,-3.6981,-3.6885,-3.6885,-3.6885,-3.6885,-3.6885,-3.6885,-3.6885,-3.6885,-3.6885,-3.6885,-3.6885,-3.6885,-3.6885,-3.6912,-3.7088,-3.7342,-3.7422,-3.7529,-3.7782,-3.7809,-3.7809,-3.7809,-3.7849,-3.7849,-3.7849,-3.7849,-3.7849,-3.7849,-3.7849,-3.7996,-3.8348,-3.8348,-3.8348,-3.833,-3.8584,-3.8584,-2.0181,-2.0367,-2.0459,-1.9494,-1.9734,0.0,-1.923,-1.9829,-2.0888,-2.2139,-2.3143,-2.4299,-2.5985,-2.7264,-2.8163,-2.8464,-3.1452,-3.4376,-3.6143,-3.5188,-3.447,-3.4907,-3.3882,-3.3253,-3.348,-3.3841,-3.4162,-3.4389,-3.5499,-3.619,-3.6177,-3.7191,-3.7324,-3.6273,-3.6183,-3.6043,-3.5792,-3.6032,-3.6299,-3.658,-3.6779,-3.6885,-3.6885,-3.6885,-3.6885,-3.6885,-3.6885,-3.6885,-3.6885,-3.6885,-3.6885,-3.6885,-3.6885,-3.6885,-3.6885,-3.6885,-3.6885,-3.6885,-3.6885,-3.6885,-3.6885,-3.6952,-3.6981,-3.6885,-3.6952,-3.6981,-3.6981,-3.7235,-3.7555,-3.7889,-3.8183,-3.8281,-3.8116,-3.7889,-3.7555,-3.7235,-3.6981,-3.6885,-3.6885,-3.6885,-3.6885,-3.6885,-3.6885,-3.6885,-3.6885,-3.6885,-3.6885,-3.6885,-3.6885,-3.7155,-3.7315,-3.7382,-3.7595,-3.7742,-3.7809,-3.7809,-3.7809,-3.7809,-3.8036,-3.8183,-3.8183,-3.8183,-3.8183,-3.8183,-3.8183,-3.833,-3.8624,-3.8624,-3.8624,-3.8593,-3.8691,-3.8691,-2.162,-2.1488,-2.1535,-2.0955,-2.0654,0.0,0.0,-2.0153,-2.0558,-2.2435,-2.2539,-2.2971,-2.5188,-2.643,-2.7417,-2.8194,-3.2005,-3.5082,-3.555,-3.596,-3.605,-3.5558,-3.4448,-3.3547,-3.3031,-3.3253,-3.3681,-3.4282,-3.5366,-3.5962,-3.58,-3.6475,-3.6611,-3.6033,-3.5717,-3.5669,-3.5845,-3.6006,-3.6286,-3.6727,-3.6861,-3.6885,-3.6885,-3.6885,-3.6885,-3.6885,-3.6885,-3.6885,-3.6885,-3.6885,-3.6885,-3.6885,-3.6885,-3.6885,-3.6885,-3.6885,-3.6885,-3.6885,-3.6885,-3.6885,-3.6912,-3.7128,-3.7048,-3.6912,-3.7128,-3.7048,-3.6952,-3.7301,-3.7489,-3.7676,-3.7969,-3.7929,-3.7782,-3.7635,-3.7382,-3.7128,-3.6925,-3.6885,-3.6885,-3.6885,-3.7048,-3.7128,-3.6912,-3.7048,-3.7155,-3.7155,-3.7275,-3.7382,-3.7382,-3.7489,-3.7676,-3.7823,-3.7969,-3.8103,-3.825,-3.825,-3.825,-3.825,-3.8397,-3.8477,-3.8477,-3.8477,-3.8477,-3.8477,-3.8477,-3.8584,-3.8718,-3.8718,-3.8718,-3.8718,-3.8718,-3.8718,-2.322,-2.2892,-2.2921,-2.2914,-2.2108,-2.1478,0.0,0.0,0.0,-2.2936,-2.234,-2.2127,-2.4402,-2.553,-2.6536,-2.7765,-3.19,-3.4394,-3.2751,-3.5028,-3.6326,-3.4841,-3.4499,-3.3846,-3.2412,-3.242,-3.2919,-3.3988,-3.4633,-3.5106,-3.5412,-3.5816,-3.5928,-3.5823,-3.5415,-3.5418,-3.5899,-3.6019,-3.6313,-3.6754,-3.6845,-3.6885,-3.6885,-3.6885,-3.6885,-3.6885,-3.6885,-3.6885,-3.6885,-3.6885,-3.6885,-3.6885,-3.6885,-3.6885,-3.6885,-3.6885,-3.6885,-3.6885,-3.6885,-3.6885,-3.6925,-3.7235,-3.7128,-3.6981,-3.7235,-3.7128,-3.6952,-3.7301,-3.7382,-3.7448,-3.7742,-3.7595,-3.7382,-3.7382,-3.7155,-3.6885,-3.6885,-3.6885,-3.6885,-3.6885,-3.7168,-3.7301,-3.7048,-3.7275,-3.7462,-3.7462,-3.7676,-3.7809,-3.7809,-3.7849,-3.7996,-3.8281,-3.833,-3.8437,-3.8691,-3.8718,-3.8718,-3.8718,-3.8718,-3.8718,-3.8718,-3.8718,-3.8718,-3.8718,-3.8718,-3.8718,-3.8718,-3.8718,-3.8718,-3.8718,-3.8718,-3.8718,-2.6346,-2.6441,-2.6188,-2.4127,-2.4566,-2.458,-2.0948,0.0,-2.2047,-2.1229,0.0,-2.1764,-2.2285,0.0,0.0,-2.3174,-2.6677,-2.9229,-2.8708,-3.148,-3.305,-3.1747,-3.3071,-3.3261,-3.1195,-3.0841,-3.139,-3.3013,-3.2973,-3.3464,-3.4825,-3.5621,-3.577,-3.5296,-3.5243,-3.5231,-3.5297,-3.5819,-3.6099,-3.6179,-3.6687,-3.6885,-3.6885,-3.6885,-3.6885,-3.6885,-3.6885,-3.6885,-3.6885,-3.6885,-3.6885,-3.6885,-3.6885,-3.6885,-3.6885,-3.6885,-3.6885,-3.6885,-3.6885,-3.6885,-3.6885,-3.6925,-3.6912,-3.6885,-3.6981,-3.6912,-3.6952,-3.7301,-3.7382,-3.7448,-3.7742,-3.7595,-3.7382,-3.7382,-3.7155,-3.6885,-3.6885,-3.6885,-3.6885,-3.6885,-3.7168,-3.7382,-3.7342,-3.7569,-3.7782,-3.7782,-3.7782,-3.7809,-3.7809,-3.8036,-3.8281,-3.8321,-3.8504,-3.8691,-3.8718,-3.8718,-3.8718,-3.8718,-3.8718,-3.8718,-3.8718,-3.8718,-3.8718,-3.8718,-3.8718,-3.8718,-3.8718,-3.8718,-3.8718,-3.8718,-3.8718,-3.8718,-2.6356,-2.6706,-2.6934,-2.5405,-2.5156,-2.4682,-2.2375,-2.1767,-2.1786,-2.1951,0.0,0.0,0.0,0.0,0.0,0.0,-2.4784,-2.637,-2.4527,-2.8629,-3.1476,-3.0694,-3.0937,-3.0837,-2.9864,-2.9967,-3.0688,-3.2166,-3.2116,-3.2587,-3.3895,-3.4797,-3.5279,-3.5191,-3.5191,-3.5271,-3.5444,-3.5698,-3.5992,-3.6326,-3.658,-3.6754,-3.6885,-3.6885,-3.6885,-3.6885,-3.6885,-3.6885,-3.6885,-3.6885,-3.6885,-3.6885,-3.6885,-3.6885,-3.6885,-3.6885,-3.6885,-3.6885,-3.6885,-3.6885,-3.6885,-3.6885,-3.6885,-3.6885,-3.6885,-3.6885,-3.6912,-3.7088,-3.7128,-3.7155,-3.7261,-3.7179,-3.7128,-3.7128,-3.7008,-3.6885,-3.6885,-3.6885,-3.6981,-3.7155,-3.7422,-3.7676,-3.7919,-3.7996,-3.8076,-3.8076,-3.8223,-3.8299,-3.8299,-3.8437,-3.8544,-3.8544,-3.8651,-3.8718,-3.8718,-3.8718,-3.8718,-3.8718,-3.8718,-3.8718,-3.8718,-3.8718,-3.8718,-3.8718,-3.8718,-3.8718,-3.8718,-3.8718,-3.8718,-3.8718,-3.8718,-3.8718,-2.6687,-2.6768,-2.6957,-2.6094,-2.4964,-2.3916,-2.3213,-2.2432,-2.2031,-2.276,-2.2044,0.0,0.0,0.0,-2.1109,-2.1622,0.0,-2.4169,-2.2032,-2.5535,-2.8297,-2.8191,-2.8336,-2.8434,-2.8382,-2.8671,-2.9459,-3.0955,-3.0895,-3.151,-3.32,-3.4068,-3.4748,-3.507,-3.5151,-3.5297,-3.5511,-3.5538,-3.5885,-3.6393,-3.6473,-3.6647,-3.6885,-3.6885,-3.6885,-3.6885,-3.6885,-3.6885,-3.6885,-3.6885,-3.6885,-3.6885,-3.6885,-3.6885,-3.6885,-3.6885,-3.6885,-3.6885,-3.6885,-3.6885,-3.6885,-3.6885,-3.6885,-3.6885,-3.6885,-3.6885,-3.6885,-3.6885,-3.6885,-3.6885,-3.6885,-3.6885,-3.6885,-3.6885,-3.6885,-3.6885,-3.6885,-3.6885,-3.6952,-3.7235,-3.7555,-3.7889,-3.8103,-3.829,-3.8397,-3.8397,-3.8584,-3.8718,-3.8718,-3.8718,-3.8718,-3.8718,-3.8718,-3.8718,-3.8718,-3.8718,-3.8718,-3.8718,-3.8718,-3.8718,-3.8718,-3.8718,-3.8718,-3.8718,-3.8718,-3.8718,-3.8718,-3.8718,-3.8718,-3.8718,-3.8718,-3.8718,-2.838,-2.7473,-2.6531,-2.5727,-2.4175,-2.2777,-2.2487,-2.3086,-2.3562,-2.3014,-2.3514,-2.3915,-2.3372,-2.302,0.0,0.0,-2.2265,0.0,0.0,-2.1934,-2.2202,-2.3036,-2.5123,-2.6599,-2.6854,-2.64,-2.7081,-2.9379,-2.8794,-2.9691,-3.2826,-3.3574,-3.4175,-3.4815,-3.5044,-3.5204,-3.5204,-3.5485,-3.5778,-3.614,-3.6366,-3.6647,-3.6885,-3.6885,-3.6885,-3.6885,-3.6885,-3.6885,-3.6885,-3.6885,-3.6885,-3.6885,-3.6885,-3.6885,-3.6885,-3.6885,-3.6885,-3.6885,-3.6885,-3.6885,-3.6885,-3.6885,-3.6885,-3.6885,-3.6885,-3.6885,-3.6885,-3.6885,-3.6885,-3.6885,-3.6885,-3.6885,-3.6885,-3.6885,-3.6885,-3.6885,-3.6885,-3.6885,-3.6885,-3.6885,-3.7408,-3.7809,-3.7809,-3.8317,-3.866,-3.866,-3.866,-3.8718,-3.8718,-3.8718,-3.8718,-3.8718,-3.8718,-3.8718,-3.8718,-3.8718,-3.8718,-3.8718,-3.8718,-3.8718,-3.8718,-3.8718,-3.8718,-3.8718,-3.8718,-3.8718,-3.8718,-3.8718,-3.8718,-3.8718,-3.8718,-3.8718,-2.8527,-2.8932,-2.8706,-2.5882,-2.4594,-2.3282,-2.0645,-2.1366,-2.2363,-2.1552,-2.3002,-2.4212,-2.3439,-2.2913,0.0,0.0,0.0,0.0,0.0,-2.0735,-2.1002,-2.193,-2.3603,-2.485,-2.5293,-2.5732,-2.6734,-2.8513,-2.8684,-2.9633,-3.1704,-3.3133,-3.3975,-3.4175,-3.4843,-3.5191,-3.5191,-3.5297,-3.5485,-3.5778,-3.6072,-3.6366,-3.6647,-3.6805,-3.6885,-3.6885,-3.6885,-3.6719,-3.6387,-3.6733,-3.6664,-3.6387,-3.6788,-3.6885,-3.6885,-3.6885,-3.6885,-3.6885,-3.6885,-3.6885,-3.6885,-3.6885,-3.6885,-3.6885,-3.6885,-3.6885,-3.6885,-3.6885,-3.6885,-3.6885,-3.6885,-3.6885,-3.6885,-3.6885,-3.6885,-3.6885,-3.6885,-3.6885,-3.6952,-3.7195,-3.7382,-3.7595,-3.7782,-3.8143,-3.8477,-3.8691,-3.8718,-3.8718,-3.8718,-3.8718,-3.8718,-3.8718,-3.8718,-3.8718,-3.8718,-3.8718,-3.8718,-3.8718,-3.8718,-3.8718,-3.8718,-3.8718,-3.8718,-3.8718,-3.8718,-3.8718,-3.8718,-3.8718,-3.8718,-3.8718,-3.8718,-3.8718,-2.9047,-2.9451,-2.9396,-2.6899,-2.5578,-2.4085,-2.1023,-2.1655,-2.2426,-2.0837,-2.2497,-2.4173,-2.3933,-2.3438,-2.3033,0.0,0.0,0.0,0.0,-2.0317,-2.0762,-2.1355,-2.2512,-2.3607,-2.4372,-2.481,-2.5837,-2.7737,-2.8003,-2.8965,-3.0969,-3.2559,-3.3561,-3.3881,-3.4736,-3.5191,-3.5191,-3.5191,-3.5338,-3.5578,-3.5939,-3.6219,-3.6513,-3.6794,-3.6885,-3.6885,-3.6885,-3.6608,-3.6109,-3.6664,-3.6595,-3.6178,-3.6664,-3.6885,-3.6885,-3.6885,-3.6885,-3.6885,-3.6885,-3.6885,-3.6885,-3.6885,-3.7065,-3.7162,-3.6941,-3.7065,-3.7162,-3.6941,-3.6885,-3.6885,-3.6885,-3.6885,-3.6885,-3.6885,-3.6885,-3.6885,-3.6885,-3.6885,-3.6952,-3.7195,-3.7315,-3.7489,-3.7782,-3.8076,-3.8388,-3.8544,-3.8651,-3.8718,-3.8718,-3.8718,-3.8718,-3.8718,-3.8718,-3.8718,-3.8718,-3.8718,-3.8718,-3.8718,-3.8718,-3.8718,-3.8718,-3.8718,-3.8718,-3.8718,-3.8718,-3.8718,-3.8718,-3.8718,-3.8718,-3.8718,-3.8718,-3.8718]},{"header":{"parameterUnit":"m.s-1","parameterCategory":1,"la1":30.6,"la2":29.2853,"lo1":-89.7004,"lo2":-87.6739,"dy":0.0162,"dx":0.0183,"nx":112,"ny":82,"refTime":"2024-06-17T18:00:00:Z","depth":0,"parameterNumber":3,"parameterNumberName":"V-component_of_WINDS"},"data":[0.0,0.0,0.0,0.0,0.0,0.0,0.0,0.0,0.0,0.0,0.0,0.0,0.0,0.0,0.0,0.0,0.0,0.0,0.0,0.0,0.0,0.0,0.0,0.0,0.0,0.0,0.0,0.0,0.0,0.0,0.0,0.0,0.0,0.0,0.0,0.0,0.0,0.0,0.0,0.0,0.0,0.0,0.0,0.0,0.0,0.0,0.0,0.0,0.0,0.0,0.0,0.0,0.0,0.0,0.0,0.0,0.0,0.0,0.0,0.0,0.0,0.0,0.0,0.0,0.0,0.0,0.0,0.0,0.0,0.0,0.0,0.0,0.0,0.0,0.0,0.0,0.0,0.0,0.0,0.0,0.0,0.0,0.0,0.0,0.0,0.0,0.0,0.0,0.0,0.0,5.5072,5.9668,6.4302,6.737,6.8026,6.6306,6.2326,5.5527,0.0,0.0,0.0,0.0,0.0,0.0,0.0,0.0,0.0,0.0,0.0,0.0,0.0,0.0,0.0,0.0,0.0,0.0,0.0,0.0,0.0,0.0,0.0,0.0,0.0,0.0,0.0,0.0,0.0,0.0,0.0,0.0,0.0,0.0,0.0,0.0,0.0,0.0,0.0,0.0,0.0,0.0,0.0,0.0,0.0,0.0,0.0,0.0,0.0,0.0,0.0,0.0,0.0,0.0,0.0,0.0,0.0,0.0,0.0,0.0,0.0,0.0,0.0,0.0,0.0,0.0,0.0,0.0,0.0,0.0,0.0,0.0,0.0,0.0,0.0,0.0,0.0,0.0,0.0,0.0,0.0,0.0,0.0,0.0,0.0,0.0,0.0,0.0,0.0,0.0,0.0,0.0,0.0,0.0,0.0,0.0,0.0,0.0,0.0,0.0,0.0,0.0,0.0,0.0,5.5274,6.4683,6.7067,6.8041,6.8074,6.5217,6.1271,5.6339,0.0,0.0,0.0,0.0,0.0,0.0,0.0,0.0,0.0,0.0,0.0,0.0,0.0,0.0,0.0,0.0,0.0,0.0,0.0,0.0,0.0,0.0,0.0,0.0,0.0,0.0,0.0,0.0,0.0,0.0,0.0,0.0,0.0,0.0,0.0,0.0,0.0,0.0,0.0,0.0,0.0,0.0,0.0,0.0,0.0,0.0,0.0,0.0,0.0,0.0,0.0,0.0,0.0,0.0,0.0,0.0,0.0,0.0,0.0,0.0,0.0,0.0,0.0,0.0,0.0,0.0,0.0,0.0,0.0,0.0,0.0,0.0,0.0,0.0,0.0,0.0,0.0,0.0,0.0,0.0,0.0,0.0,0.0,0.0,0.0,0.0,0.0,0.0,0.0,0.0,0.0,0.0,0.0,0.0,0.0,0.0,0.0,0.0,0.0,0.0,0.0,0.0,0.0,5.5366,5.9437,6.7999,6.8475,6.8358,6.8784,6.5654,6.1557,5.6521,5.1802,0.0,0.0,0.0,0.0,0.0,0.0,0.0,0.0,0.0,0.0,0.0,0.0,0.0,0.0,0.0,0.0,0.0,0.0,0.0,0.0,0.0,0.0,0.0,0.0,0.0,0.0,0.0,0.0,0.0,0.0,0.0,0.0,0.0,0.0,0.0,0.0,0.0,0.0,0.0,0.0,0.0,0.0,0.0,0.0,0.0,0.0,0.0,0.0,0.0,0.0,0.0,0.0,0.0,0.0,0.0,0.0,0.0,0.0,0.0,0.0,0.0,0.0,0.0,0.0,0.0,0.0,0.0,0.0,0.0,0.0,0.0,0.0,0.0,0.0,0.0,0.0,0.0,0.0,0.0,0.0,0.0,0.0,0.0,0.0,0.0,0.0,0.0,0.0,0.0,0.0,0.0,0.0,0.0,0.0,0.0,0.0,0.0,0.0,0.0,0.0,0.0,0.0,6.1328,6.4296,7.0001,6.9329,6.8711,6.9333,6.5542,6.1022,5.6235,5.0524,0.0,0.0,0.0,0.0,0.0,0.0,0.0,0.0,0.0,0.0,0.0,0.0,0.0,0.0,0.0,0.0,0.0,0.0,0.0,0.0,0.0,0.0,0.0,0.0,0.0,0.0,0.0,0.0,0.0,0.0,0.0,0.0,0.0,0.0,0.0,0.0,0.0,0.0,0.0,0.0,0.0,0.0,0.0,0.0,0.0,0.0,0.0,0.0,0.0,0.0,0.0,0.0,0.0,0.0,0.0,0.0,0.0,0.0,0.0,0.0,0.0,0.0,0.0,0.0,0.0,0.0,0.0,0.0,0.0,0.0,0.0,0.0,0.0,0.0,0.0,0.0,0.0,0.0,0.0,0.0,0.0,0.0,0.0,0.0,0.0,0.0,0.0,0.0,0.0,0.0,0.0,0.0,0.0,0.0,0.0,0.0,0.0,0.0,0.0,0.0,0.0,0.0,6.2945,6.8184,7.0381,6.9837,6.9336,6.9412,6.3357,5.8297,5.5266,4.796,0.0,0.0,0.0,0.0,0.0,0.0,0.0,0.0,0.0,0.0,0.0,0.0,0.0,0.0,0.0,0.0,0.0,0.0,0.0,0.0,0.0,0.0,0.0,0.0,0.0,0.0,0.0,0.0,0.0,0.0,0.0,0.0,0.0,0.0,0.0,0.0,0.0,0.0,0.0,0.0,0.0,0.0,0.0,0.0,0.0,0.0,0.0,0.0,0.0,0.0,0.0,0.0,0.0,0.0,0.0,0.0,0.0,0.0,0.0,0.0,0.0,0.0,0.0,0.0,0.0,0.0,0.0,0.0,0.0,0.0,0.0,0.0,0.0,0.0,0.0,0.0,0.0,0.0,0.0,0.0,0.0,0.0,0.0,0.0,0.0,0.0,0.0,0.0,0.0,0.0,0.0,0.0,0.0,0.0,0.0,0.0,0.0,0.0,0.0,0.0,0.0,0.0,6.2318,6.6927,7.0758,7.0084,6.9358,6.9322,6.5078,6.0254,5.5295,0.0,0.0,0.0,0.0,0.0,0.0,0.0,0.0,0.0,0.0,0.0,0.0,0.0,0.0,0.0,0.0,0.0,0.0,0.0,0.0,0.0,0.0,0.0,0.0,0.0,0.0,0.0,0.0,0.0,0.0,0.0,0.0,0.0,0.0,0.0,0.0,0.0,0.0,0.0,0.0,0.0,0.0,0.0,0.0,0.0,0.0,0.0,0.0,0.0,0.0,0.0,0.0,0.0,0.0,0.0,0.0,0.0,0.0,0.0,0.0,0.0,0.0,0.0,0.0,0.0,0.0,0.0,0.0,0.0,0.0,0.0,0.0,0.0,0.0,0.0,0.0,0.0,0.0,0.0,0.0,0.0,0.0,0.0,0.0,0.0,0.0,0.0,0.0,0.0,0.0,0.0,0.0,0.0,0.0,0.0,0.0,0.0,0.0,0.0,0.0,0.0,0.0,5.8704,6.3328,6.7499,7.1489,7.0798,6.9843,6.9299,6.5412,6.0583,5.4889,0.0,0.0,0.0,0.0,0.0,0.0,0.0,0.0,0.0,0.0,0.0,0.0,0.0,0.0,0.0,0.0,0.0,0.0,0.0,0.0,0.0,0.0,0.0,0.0,0.0,0.0,0.0,0.0,0.0,0.0,0.0,0.0,0.0,0.0,0.0,0.0,0.0,0.0,0.0,0.0,0.0,0.0,0.0,0.0,0.0,0.0,0.0,0.0,0.0,0.0,0.0,0.0,0.0,0.0,0.0,0.0,0.0,0.0,0.0,0.0,0.0,0.0,0.0,0.0,0.0,0.0,0.0,0.0,0.0,0.0,0.0,0.0,0.0,0.0,0.0,0.0,0.0,0.0,0.0,0.0,0.0,0.0,0.0,0.0,0.0,0.0,0.0,0.0,0.0,0.0,0.0,0.0,0.0,0.0,0.0,0.0,0.0,0.0,0.0,0.0,0.0,0.0,6.0639,6.6563,7.086,7.2638,7.2153,7.0987,6.9245,6.3737,5.8419,0.0,0.0,0.0,0.0,0.0,0.0,0.0,0.0,0.0,0.0,0.0,0.0,0.0,0.0,0.0,0.0,0.0,0.0,0.0,0.0,0.0,0.0,0.0,0.0,0.0,0.0,0.0,0.0,0.0,0.0,0.0,0.0,0.0,0.0,0.0,0.0,0.0,0.0,0.0,0.0,0.0,0.0,0.0,0.0,0.0,0.0,0.0,0.0,0.0,0.0,0.0,0.0,0.0,0.0,0.0,0.0,0.0,0.0,0.0,0.0,0.0,0.0,0.0,0.0,0.0,0.0,0.0,0.0,0.0,0.0,0.0,0.0,0.0,0.0,0.0,0.0,0.0,0.0,0.0,0.0,0.0,0.0,0.0,0.0,0.0,0.0,0.0,0.0,0.0,0.0,0.0,0.0,0.0,0.0,0.0,0.0,0.0,0.0,0.0,0.0,0.0,0.0,0.0,6.0798,6.6997,7.1624,7.34,7.2371,7.1112,6.995,6.6174,6.0881,5.4018,0.0,0.0,0.0,0.0,0.0,0.0,0.0,0.0,0.0,0.0,0.0,0.0,0.0,0.0,0.0,0.0,0.0,0.0,0.0,0.0,0.0,0.0,0.0,0.0,0.0,0.0,0.0,0.0,0.0,0.0,0.0,0.0,0.0,0.0,0.0,0.0,0.0,0.0,0.0,0.0,0.0,0.0,0.0,0.0,0.0,0.0,0.0,0.0,0.0,0.0,0.0,0.0,0.0,0.0,0.0,0.0,0.0,0.0,0.0,0.0,0.0,0.0,0.0,0.0,0.0,0.0,0.0,0.0,0.0,0.0,0.0,0.0,0.0,0.0,0.0,0.0,0.0,0.0,0.0,0.0,0.0,0.0,0.0,0.0,0.0,0.0,0.0,0.0,0.0,0.0,0.0,0.0,0.0,0.0,0.0,0.0,0.0,0.0,0.0,0.0,0.0,0.0,6.1773,6.792,7.2491,7.4187,7.3527,7.2323,7.0776,6.8252,6.3407,5.5618,0.0,0.0,0.0,0.0,0.0,0.0,0.0,0.0,0.0,0.0,0.0,0.0,0.0,0.0,0.0,0.0,0.0,0.0,0.0,0.0,0.0,0.0,0.0,0.0,0.0,0.0,0.0,0.0,0.0,0.0,0.0,0.0,0.0,0.0,0.0,0.0,0.0,0.0,0.0,0.0,0.0,0.0,0.0,0.0,0.0,0.0,0.0,0.0,0.0,0.0,0.0,0.0,0.0,0.0,0.0,0.0,0.0,0.0,0.0,0.0,0.0,0.0,0.0,0.0,0.0,0.0,0.0,0.0,0.0,0.0,0.0,0.0,0.0,0.0,0.0,0.0,0.0,0.0,0.0,0.0,0.0,0.0,0.0,0.0,0.0,0.0,0.0,0.0,0.0,0.0,0.0,0.0,0.0,0.0,0.0,0.0,0.0,0.0,0.0,0.0,0.0,0.0,6.3253,6.9239,7.3574,7.5154,7.527,7.4231,7.1756,6.9982,6.5818,5.8334,0.0,0.0,0.0,0.0,0.0,0.0,0.0,0.0,0.0,0.0,0.0,0.0,0.0,0.0,0.0,0.0,0.0,0.0,0.0,0.0,0.0,0.0,0.0,0.0,0.0,0.0,0.0,0.0,0.0,0.0,0.0,0.0,0.0,0.0,0.0,0.0,0.0,0.0,0.0,0.0,0.0,0.0,0.0,0.0,0.0,0.0,0.0,0.0,0.0,0.0,0.0,0.0,0.0,0.0,0.0,0.0,0.0,0.0,0.0,0.0,5.7242,5.2888,0.0,0.0,0.0,0.0,0.0,0.0,0.0,0.0,0.0,0.0,0.0,0.0,0.0,0.0,0.0,0.0,0.0,0.0,0.0,0.0,0.0,0.0,0.0,0.0,0.0,0.0,0.0,0.0,0.0,0.0,0.0,0.0,0.0,0.0,0.0,0.0,0.0,0.0,0.0,0.0,6.4304,7.1178,7.5972,7.7016,7.6514,7.5353,7.3496,7.1141,6.7359,6.1672,5.6702,0.0,0.0,0.0,0.0,0.0,0.0,0.0,0.0,0.0,0.0,0.0,0.0,0.0,0.0,0.0,0.0,0.0,0.0,0.0,0.0,0.0,0.0,0.0,0.0,0.0,0.0,0.0,0.0,0.0,0.0,0.0,0.0,0.0,0.0,0.0,0.0,0.0,0.0,0.0,0.0,0.0,0.0,0.0,0.0,0.0,0.0,0.0,0.0,0.0,0.0,0.0,0.0,0.0,0.0,0.0,0.0,0.0,0.0,0.0,6.4469,6.0666,0.0,0.0,0.0,0.0,0.0,0.0,0.0,0.0,0.0,0.0,0.0,0.0,0.0,0.0,0.0,0.0,0.0,0.0,0.0,0.0,0.0,0.0,0.0,0.0,0.0,0.0,0.0,0.0,0.0,0.0,0.0,0.0,0.0,0.0,0.0,0.0,0.0,0.0,0.0,0.0,6.5831,7.2269,7.6906,7.8177,7.7519,7.6519,7.5198,7.3109,6.9876,6.518,6.0838,0.0,0.0,0.0,0.0,0.0,0.0,0.0,0.0,0.0,0.0,0.0,0.0,0.0,0.0,0.0,0.0,0.0,0.0,0.0,0.0,0.0,0.0,0.0,0.0,0.0,0.0,0.0,0.0,0.0,0.0,0.0,0.0,0.0,0.0,0.0,0.0,0.0,0.0,0.0,0.0,0.0,0.0,0.0,0.0,0.0,0.0,0.0,0.0,0.0,0.0,0.0,0.0,0.0,7.3531,7.4913,7.7589,7.7027,7.7376,7.8107,7.2748,7.0122,6.9226,6.4425,0.0,0.0,0.0,0.0,0.0,0.0,0.0,0.0,0.0,0.0,0.0,0.0,0.0,0.0,0.0,0.0,0.0,0.0,0.0,0.0,0.0,0.0,6.7676,6.7918,7.0031,6.9705,6.1239,0.0,0.0,0.0,0.0,0.0,0.0,0.0,0.0,0.0,0.0,0.0,6.7752,7.3496,7.7597,7.9067,7.8564,7.7713,7.6713,7.5237,7.27,6.8958,6.5274,6.1376,0.0,0.0,0.0,0.0,0.0,0.0,0.0,0.0,0.0,0.0,0.0,0.0,0.0,0.0,0.0,0.0,0.0,0.0,0.0,0.0,0.0,0.0,0.0,0.0,0.0,0.0,0.0,0.0,0.0,0.0,0.0,0.0,5.4676,5.6398,0.0,0.0,0.0,0.0,0.0,0.0,0.0,0.0,0.0,0.0,0.0,0.0,0.0,7.4078,7.7361,8.022,8.2025,8.2899,8.5583,8.6983,8.7189,8.7778,8.7765,8.7262,8.6427,0.0,7.1937,7.0486,0.0,0.0,0.0,0.0,0.0,0.0,0.0,0.0,0.0,0.0,0.0,0.0,0.0,0.0,0.0,0.0,0.0,0.0,0.0,0.0,0.0,0.0,7.5397,7.4454,7.5558,7.6327,7.4295,6.758,6.1488,5.9936,5.7448,5.4398,0.0,0.0,0.0,0.0,0.0,0.0,7.0291,7.6051,7.9801,8.0027,7.995,7.9221,7.768,7.6635,7.521,7.3215,6.9128,6.6204,6.4768,5.9537,0.0,0.0,0.0,0.0,0.0,0.0,0.0,0.0,0.0,0.0,0.0,0.0,0.0,0.0,0.0,0.0,0.0,0.0,0.0,0.0,0.0,0.0,0.0,0.0,0.0,0.0,0.0,0.0,0.0,5.47,5.9595,5.8571,6.011,6.0123,0.0,0.0,0.0,0.0,0.0,0.0,0.0,0.0,0.0,7.8939,8.0488,8.2569,8.5478,8.738,8.8608,8.918,9.0566,9.1433,9.1822,9.2183,9.2146,9.1822,9.1822,8.8522,8.2895,7.8963,7.4806,7.0647,0.0,0.0,0.0,0.0,6.8878,6.9585,7.2983,7.4106,7.3656,7.156,0.0,0.0,0.0,0.0,0.0,0.0,0.0,6.9971,7.2611,7.5916,7.8726,7.9402,8.0477,8.1232,8.0869,7.68,7.1983,6.7825,6.5829,6.2827,5.6607,5.7122,0.0,0.0,0.0,7.0346,7.4488,7.848,8.111,8.162,8.0769,7.9918,7.9183,7.8332,7.7132,7.5392,7.3071,7.0968,6.9127,6.4722,6.0935,0.0,0.0,0.0,0.0,0.0,0.0,0.0,0.0,0.0,0.0,0.0,0.0,0.0,0.0,0.0,0.0,0.0,0.0,0.0,0.0,0.0,0.0,0.0,0.0,0.0,0.0,0.0,0.0,5.9707,6.3965,6.1553,6.5009,6.5879,0.0,0.0,0.0,0.0,0.0,0.0,7.5991,7.8104,8.1464,8.6401,8.809,8.9988,9.2227,9.3144,9.3871,9.4452,9.4265,9.4602,9.5442,9.5217,9.4992,9.4805,9.485,9.3927,9.1929,8.6203,8.1702,7.8095,7.5484,7.3491,7.2392,7.4999,7.5665,7.5968,8.0594,8.1891,8.1125,7.8742,7.6474,7.4065,7.0725,0.0,0.0,0.0,0.0,7.4513,7.7975,7.9973,8.1526,8.3311,8.4341,8.4899,8.4899,8.3588,8.0774,7.513,7.3531,7.0851,6.3881,6.4597,0.0,6.4782,6.9772,7.4921,7.8305,8.0737,8.2393,8.3057,8.1774,8.0756,8.0544,7.9583,7.8301,7.6775,7.5648,7.4149,7.2152,6.9217,6.6302,6.3524,0.0,0.0,0.0,0.0,0.0,0.0,0.0,0.0,0.0,0.0,0.0,0.0,0.0,0.0,0.0,0.0,0.0,0.0,0.0,0.0,0.0,0.0,0.0,0.0,0.0,0.0,0.0,0.0,0.0,6.7498,7.1255,0.0,0.0,0.0,0.0,7.3376,7.7055,8.1021,8.5142,8.6248,8.8652,9.2829,9.3837,9.5086,9.6767,9.7626,9.8486,9.9233,9.8486,9.8523,9.9308,9.8523,9.7738,9.6933,9.7167,9.6294,9.4421,9.0338,8.7332,8.5139,8.3433,8.1957,8.0818,8.1309,8.1972,8.2556,8.2425,8.2845,8.3488,8.3703,8.134,7.8476,7.8847,7.6921,0.0,0.0,7.9047,8.0847,8.3163,8.4362,8.5212,8.61,8.6694,8.7047,8.7047,8.5937,8.4126,8.151,7.9046,7.651,7.3714,0.0,7.25,7.3232,7.5047,7.7509,8.0877,8.2864,8.3979,8.4018,8.3212,8.229,8.1407,7.9855,7.8477,7.7524,7.5858,7.469,7.4159,7.2387,6.9846,6.6453,6.2964,0.0,0.0,0.0,0.0,0.0,0.0,0.0,0.0,0.0,0.0,0.0,0.0,0.0,0.0,0.0,0.0,0.0,0.0,0.0,0.0,0.0,0.0,0.0,0.0,0.0,0.0,0.0,0.0,7.329,7.7429,0.0,7.5471,7.7576,7.9826,8.1506,8.4754,8.8037,9.1089,9.254,9.4503,9.7114,9.8026,9.8822,9.9482,9.9781,10.0096,10.0395,10.0096,10.0096,10.0395,10.0096,9.976,9.9461,9.9004,9.8177,9.6981,9.5024,9.2885,9.0714,8.8964,8.8019,8.7539,8.7134,8.7164,8.7399,8.7208,8.736,8.7352,8.5905,8.4249,8.2762,8.241,8.2008,8.1815,8.2586,8.3615,8.4631,8.5427,8.5875,8.6138,8.6438,8.6743,8.7031,8.7031,8.6746,8.625,8.5399,8.2557,7.9475,7.6732,7.7355,7.778,7.6466,7.8894,8.1514,8.3264,8.3844,8.4054,8.3916,8.3429,8.2717,8.1737,8.0897,7.9582,7.7633,7.6398,7.5195,7.3969,7.2768,7.1202,6.9147,6.5763,6.1241,0.0,0.0,0.0,0.0,0.0,0.0,0.0,0.0,0.0,0.0,0.0,0.0,0.0,0.0,0.0,0.0,0.0,0.0,0.0,0.0,0.0,0.0,0.0,0.0,0.0,7.3466,7.839,7.8243,8.3023,8.5118,8.2048,8.4681,8.7263,8.8899,9.1513,9.3954,9.6146,9.726,9.839,9.959,10.05,10.0907,10.0992,10.1588,10.17,10.1402,10.1402,10.129,10.0992,10.0822,10.0581,10.0581,10.009,9.9639,9.9079,9.8184,9.6943,9.5395,9.3426,9.2328,9.1752,9.1146,9.0608,9.0123,9.0062,8.986,8.9375,8.7757,8.6763,8.6078,8.5545,8.5895,8.6469,8.6469,8.6885,8.7339,8.7339,8.7339,8.7326,8.7285,8.74,8.7534,8.7444,8.7462,8.7549,8.7711,8.5461,8.2907,8.0985,8.1976,8.2434,8.0776,8.2546,8.4284,8.4869,8.4615,8.433,8.4182,8.3725,8.3091,8.2285,8.1,7.9569,7.7943,7.6295,7.4912,7.3868,7.2795,7.167,7.0537,6.717,6.3547,5.9677,0.0,0.0,0.0,0.0,0.0,0.0,0.0,0.0,0.0,0.0,0.0,0.0,0.0,0.0,0.0,0.0,0.0,0.0,0.0,0.0,0.0,0.0,0.0,7.3927,7.8807,8.2387,8.2527,8.8013,9.0276,8.6375,9.0313,9.3805,9.544,9.7074,9.8709,10.0307,10.0418,10.0418,10.0492,10.1198,10.1607,10.1607,10.3204,10.3613,10.2796,10.2796,10.2387,10.1607,10.0789,10.0418,10.0381,10.0612,10.0699,10.0587,9.9693,9.932,9.9097,9.6803,9.4926,9.3491,9.3333,9.2242,9.0848,9.06,9.0016,8.9342,8.9461,8.8964,8.8361,8.8473,8.8635,8.8803,8.8803,8.8903,8.9015,8.9015,8.9053,8.9025,8.8869,8.8826,8.8745,8.8577,8.8195,8.8064,8.8523,8.7722,8.6976,8.6957,8.664,8.64,8.6415,8.5975,0.0,8.5585,8.5184,8.4893,8.4904,8.4132,8.3458,8.3065,8.0103,7.8338,7.8446,7.5453,7.3812,7.4083,7.2656,7.1444,7.0616,6.7318,6.5581,6.5517,0.0,0.0,0.0,0.0,0.0,0.0,0.0,0.0,0.0,0.0,0.0,0.0,0.0,0.0,0.0,0.0,0.0,0.0,0.0,0.0,0.0,7.5905,8.0311,7.9786,8.4109,8.7982,8.9819,9.2596,9.4437,9.4511,9.5737,9.7223,9.882,9.9935,10.1012,10.2015,10.261,10.3316,10.3799,10.4096,10.4207,10.4207,10.4597,10.469,10.4505,10.4505,10.4393,10.4207,10.3984,10.3501,10.2981,10.2404,10.179,10.1195,10.0377,10.0006,9.9783,9.7343,9.6132,9.5649,9.5003,9.376,9.231,9.1592,9.0833,9.0069,8.9522,8.9281,8.9054,8.854,8.8473,8.8592,8.8592,8.907,8.9585,8.9585,8.9997,9.0281,8.9676,8.9399,8.9257,8.8987,8.8733,8.8697,8.9211,8.8885,8.8432,8.8242,8.7289,8.6696,8.7089,8.626,8.5599,8.5599,8.4975,8.4653,8.4876,8.4593,8.4225,8.376,8.151,7.9319,7.7608,7.4923,7.35,7.3652,7.3258,7.2932,7.2686,6.9433,6.7855,0.0,0.0,0.0,0.0,0.0,0.0,0.0,0.0,0.0,0.0,0.0,0.0,0.0,0.0,0.0,0.0,0.0,0.0,0.0,0.0,0.0,0.0,8.2415,8.6969,8.7527,8.9756,9.2282,9.4771,9.6183,9.7483,9.8783,9.8895,9.9563,10.1198,10.17,10.2498,10.3687,10.4207,10.469,10.521,10.521,10.521,10.521,10.5508,10.5508,10.521,10.5508,10.5508,10.521,10.521,10.4913,10.4505,10.3613,10.3019,10.2498,10.131,10.0789,10.0604,0.0,0.0,0.0,0.0,9.4808,9.3879,9.3025,9.2208,9.139,9.0573,8.9894,8.9318,8.8871,8.8569,8.8429,8.8429,8.9071,8.9788,8.9788,9.0385,9.0781,8.9899,8.9599,8.9353,8.8791,8.8924,8.9223,8.9552,8.963,0.0,8.9672,8.8383,8.7504,8.7816,8.7064,8.6312,8.5968,8.5322,8.4831,8.4717,8.4633,8.4382,8.3939,8.2206,0.0,0.0,0.0,7.4665,7.408,7.4048,0.0,0.0,0.0,0.0,0.0,7.2719,0.0,0.0,7.1864,7.1931,0.0,0.0,0.0,0.0,0.0,0.0,0.0,0.0,0.0,0.0,0.0,0.0,0.0,0.0,0.0,0.0,8.8455,9.2988,9.5477,9.5217,9.5551,9.778,9.8746,9.9563,10.0381,10.0492,10.1198,10.2703,10.3,10.3799,10.5285,10.5508,0.0,0.0,0.0,10.5693,10.5508,10.6288,10.6288,10.5508,10.6213,10.6213,10.5508,10.5508,10.5396,10.5322,10.4616,10.4207,10.4022,10.2424,10.1718,10.1292,9.9749,9.8672,9.7817,9.6146,9.5551,9.5403,9.4511,0.0,0.0,9.2022,9.0722,8.9533,8.9459,8.8995,8.8508,8.8508,8.9218,8.9943,8.9847,9.0459,9.0786,8.9709,8.947,8.9253,8.8372,8.8938,8.9625,8.9685,9.0116,9.0584,9.0934,8.9647,8.8554,8.8628,8.8094,8.7438,8.6714,8.6149,8.5585,8.4928,8.4792,0.0,8.4164,8.2751,8.1607,8.0958,7.8839,7.6966,7.5523,7.5677,7.604,7.6683,7.6751,7.7958,8.0443,8.0823,8.1331,8.188,7.7131,7.6642,0.0,0.0,0.0,0.0,0.0,0.0,0.0,0.0,0.0,0.0,0.0,0.0,0.0,0.0,0.0,8.6635,9.139,9.5551,9.804,9.8263,9.8338,9.882,9.9563,10.0418,10.1198,10.1904,10.2721,10.3687,10.4987,10.5786,10.6213,10.7383,10.7885,10.7217,10.8386,10.8517,10.7086,10.7997,10.7997,10.7086,10.7309,0.0,10.7086,10.7086,10.6808,10.6213,10.5991,10.5619,10.4913,10.391,10.2721,10.1292,9.9749,9.9006,9.8672,9.7,9.6369,9.6146,9.4697,9.4102,9.3731,9.2208,9.1502,9.1093,9.0462,9.0047,0.0,8.9818,9.0366,9.0798,9.0263,9.0757,9.1049,8.9676,8.932,8.92,8.8745,8.9145,8.9733,9.016,9.0594,9.0915,9.0971,8.9821,8.8991,8.9334,8.8749,8.8184,8.804,8.7551,8.7323,8.7615,8.7182,8.6741,8.6344,8.4758,8.3171,8.1762,8.0677,7.9947,7.9657,8.0932,8.1242,8.0379,8.0688,8.1233,8.2077,8.2496,8.3759,8.5701,8.3396,8.2715,0.0,0.0,0.0,0.0,0.0,0.0,0.0,0.0,0.0,0.0,0.0,7.7242,7.9135,0.0,8.9013,9.1873,9.5105,9.7817,9.9452,10.0009,10.0307,10.0307,10.0715,10.1421,10.261,10.3093,10.391,10.5099,10.5897,10.6808,10.7625,10.8405,10.8888,10.8888,10.9706,10.9706,10.8888,10.8888,10.8888,10.8795,10.8386,10.8294,10.8294,10.8294,10.7811,10.6994,10.6622,10.6213,10.5693,10.4505,10.3204,10.2015,10.0789,9.9824,9.9006,9.8152,9.7595,9.7074,9.5848,9.5143,9.4585,9.3359,9.2393,9.1597,9.1144,9.0638,9.0169,9.0123,9.0631,9.1134,9.0792,9.1394,9.1828,9.0687,9.0137,8.9739,8.9168,8.9327,8.9685,8.9931,9.0605,9.1064,9.0963,9.0741,9.0439,9.0205,8.9792,8.9331,8.892,8.8509,8.82,8.8079,8.7671,8.7323,8.7128,8.6032,8.5067,8.4375,8.3591,8.3179,8.3234,8.4047,8.4309,8.387,8.4057,8.439,8.4872,8.559,8.6609,8.7884,8.7607,8.723,0.0,0.0,0.0,0.0,0.0,0.0,0.0,7.0016,7.2728,7.6841,8.0705,8.4332,8.7591,9.0731,9.3738,9.6508,9.8215,9.9494,10.0402,10.0921,10.1293,10.1477,10.1589,10.2313,10.391,10.4096,10.4913,10.6492,10.6808,10.7495,10.9111,10.9297,10.9594,11.0114,11.0411,11.0392,11.0114,10.9594,10.9594,11.0114,10.9389,10.9111,10.8888,10.8888,10.8405,10.7625,10.69,10.6511,10.6102,10.4802,10.3613,10.2592,10.2015,10.0789,9.9526,9.9229,9.8672,9.8003,9.6963,9.6183,9.5477,9.4511,9.3285,9.2138,9.1857,9.1272,9.065,9.0503,9.0898,9.1361,9.1228,9.1791,9.2205,9.1457,9.0884,9.0313,8.9681,8.9724,8.9869,8.9717,9.0688,9.1394,9.1077,9.1623,9.1767,9.0814,9.076,9.0506,8.9676,8.9321,8.89,8.8253,8.7949,8.7719,8.7568,8.7004,8.673,8.6958,8.636,8.6038,8.6154,8.6164,8.6314,8.6654,8.6883,8.7194,8.7565,8.8619,8.9241,8.9449,9.0432,9.053,5.9057,6.0367,6.3278,6.8445,6.9297,7.1732,0.0,8.3923,8.3775,8.7861,9.0833,9.279,9.3051,9.5183,9.715,9.8134,9.9021,9.9982,10.0981,10.0592,10.0517,10.1385,10.2109,10.2889,10.391,10.4597,10.5675,10.7309,10.822,10.9,10.9891,11.0578,11.0689,11.0095,11.1526,11.1506,11.0114,11.0689,11.0689,11.0114,11.0003,10.9594,10.8888,10.8888,10.8405,10.7606,10.7495,10.6696,10.5322,10.5099,10.4077,10.2721,10.2592,10.2015,10.1087,9.9638,9.9043,9.8746,9.7149,9.6554,9.622,9.4697,9.4065,9.3768,9.3046,9.2633,9.2391,9.2203,9.2066,9.1868,9.1341,9.1282,9.1236,9.0736,9.0557,9.0462,9.0387,9.076,9.0902,9.0165,9.1394,9.2302,9.1566,9.1764,9.1694,9.0739,9.1215,9.1357,9.0544,9.0236,9.0015,8.9939,8.9681,8.9209,8.8414,8.7889,8.7579,8.7601,8.7728,8.7814,8.7824,8.7824,8.7842,8.7888,8.8949,8.9287,8.8788,9.0062,9.0764,9.0966,9.1816,9.2234,6.7494,6.8432,7.0041,7.5014,7.7414,8.02,8.6344,8.7693,8.8618,9.2246,9.4595,9.6168,9.6647,9.7963,9.924,10.0092,10.0499,10.1092,10.1907,10.1406,10.0979,10.1477,10.1793,10.2498,10.391,10.469,10.6102,10.822,10.8703,10.952,11.0689,11.1098,11.1415,11.1526,11.2101,11.2175,11.1506,11.1415,11.1415,11.1526,11.0986,11.0578,11.03,10.9817,10.8888,10.7606,10.7606,10.6696,10.521,10.521,10.4207,10.2703,10.2593,10.2315,10.1814,10.029,9.9489,9.8932,9.7743,9.7037,9.648,9.5811,9.4957,9.4123,9.3651,9.3159,9.265,9.2461,9.232,9.2212,9.1949,9.1978,9.2023,9.1841,9.1474,9.1205,9.1205,9.126,9.1216,9.0841,9.1875,9.2673,9.2263,9.2975,9.3168,9.1755,9.1288,9.1166,9.1281,9.0656,9.0102,8.9753,8.9616,8.944,8.9062,8.8809,8.8815,8.9155,8.9686,8.9882,8.9551,9.0478,9.0784,9.0249,9.0759,9.0999,9.1038,9.1178,9.1659,9.2419,9.2893,9.3593,7.2056,7.3648,7.5664,7.9699,8.3526,8.6821,8.8711,9.0411,9.2338,9.494,9.6508,9.7653,9.8557,9.9426,10.0407,10.1499,10.1703,10.2018,10.289,10.1888,10.1089,10.1198,10.1012,10.1514,10.3094,10.4207,10.5916,10.8405,10.8682,10.9479,11.1209,11.1504,11.1781,11.2509,11.2509,11.2509,11.2509,11.1878,11.1878,11.2509,11.1878,11.1486,11.1204,11.0105,10.8787,10.7415,10.7415,10.6599,10.5412,10.5412,10.4411,10.2909,10.2685,10.2517,10.2203,10.0907,9.9996,9.9215,9.8436,9.7617,9.6926,9.6666,9.5811,9.4791,9.4433,9.3917,9.3347,9.2917,9.2829,9.2755,9.2533,9.2582,9.2701,9.2751,9.2423,9.2043,9.1994,9.1842,9.159,9.132,9.2216,9.2869,9.2555,9.3605,9.416,9.3121,9.2046,9.1403,9.1486,9.0754,9.0006,8.9541,8.9527,8.9501,8.9423,8.9488,8.9629,8.9947,9.0669,9.0894,9.0525,9.1745,9.2121,9.1472,9.193,9.224,9.241,9.2415,9.28,9.3484,9.3929,9.4705,6.9876,7.3532,7.8363,8.1234,8.5686,9.0044,9.2643,9.4575,9.6085,9.7026,9.7411,9.7779,9.8411,9.9335,10.05,10.1903,10.2086,10.2495,10.3519,10.1611,10.0091,10.0326,9.9638,9.9753,10.1111,10.302,10.5006,10.7514,10.8212,10.9304,11.1209,11.1903,11.2328,11.2509,11.2509,11.2509,11.2509,11.2509,11.2509,11.2509,11.2509,11.2021,11.0909,10.9115,10.7794,10.6982,10.6982,10.6501,10.5819,10.5819,10.4802,10.3305,10.3305,10.2788,10.2012,10.12,10.0518,9.987,9.9055,9.8365,9.7706,9.6889,9.6591,9.6369,9.5571,9.5349,9.5092,9.4143,9.3869,9.3684,9.2906,9.2684,9.2734,9.2938,9.2988,9.2901,9.2697,9.268,9.2387,9.1387,9.2284,9.2943,9.2158,9.2953,9.3997,9.4796,9.401,9.2678,9.0949,9.0427,9.0075,8.9802,8.9778,8.9667,8.9436,8.9629,8.9667,8.9449,8.9937,9.0216,9.0216,9.0514,9.0659,9.0621,9.2236,9.2783,9.2203,9.3944,9.4523,9.4015,9.4982,9.5474,7.5288,7.8459,8.1455,8.5554,8.9156,9.222,9.4151,9.5545,9.6454,9.6326,9.5921,9.5532,9.547,9.6594,9.7944,9.9127,10.111,10.2612,10.302,10.2797,10.2091,10.0474,10.1012,10.1182,10.0518,10.1926,10.4316,10.7699,10.8194,10.9283,11.1622,11.1893,11.1983,11.2103,11.2103,11.2103,11.2103,11.2103,11.2103,11.2103,11.2103,11.1322,10.9908,10.9309,10.8291,10.7019,10.7019,10.6481,10.5799,10.5901,10.4978,10.3478,10.34,10.2806,10.1992,10.1518,10.0599,9.9555,9.8983,9.8313,9.766,9.7523,9.7074,9.6554,9.6294,9.5811,9.5311,9.5001,9.4909,9.4724,9.3907,9.3685,9.359,9.312,9.2905,9.2768,9.2701,9.2599,9.2422,9.2057,9.2665,9.3127,9.2829,9.3782,9.4624,9.4785,9.3945,9.2904,9.1715,9.0937,9.0351,9.0075,9.0079,8.9947,8.9679,8.9741,8.9827,8.9911,9.0608,9.0844,9.0465,9.2193,9.2837,9.2274,9.3382,9.4204,9.4629,9.426,9.4635,9.5646,9.5,9.529,7.8808,8.1713,8.4152,8.8156,9.0903,9.2998,9.4388,9.527,9.5667,9.5019,9.3875,9.2874,9.2653,9.3236,9.4582,9.7057,9.9452,10.1495,10.3019,10.3093,10.261,10.131,10.1774,10.1888,10.0907,10.1722,10.3588,10.6686,10.7582,10.8911,11.0914,11.1515,11.1789,11.1911,11.1874,11.1874,11.1874,11.1874,11.1874,11.1874,11.1789,11.0899,10.9312,10.9192,10.8324,10.6812,10.6812,10.6484,10.6086,10.63,10.5585,10.4292,10.3991,10.3303,10.2411,10.1787,10.0809,9.9656,9.9168,9.8391,9.7609,9.777,9.7468,9.7074,9.7074,9.6703,9.622,9.5923,9.5848,9.5588,9.4474,9.4214,9.3974,9.3107,9.2768,9.265,9.253,9.2355,9.225,9.2198,9.2451,9.2695,9.2695,9.3764,9.4665,9.478,9.4171,9.3399,9.2557,9.1879,9.1408,9.1227,9.1254,9.1001,9.0402,9.0378,9.0262,9.0067,9.0882,9.1263,9.0912,9.2831,9.3688,9.3115,9.4223,9.5021,9.5374,9.5126,9.547,9.6332,9.5533,9.5694,8.0347,8.3271,8.6514,8.9101,9.104,9.2559,9.3504,9.397,9.3952,9.3162,9.1284,8.9761,8.9593,8.9331,9.0722,9.5403,9.7297,9.9526,10.339,10.2721,10.1997,10.2721,10.2201,10.2017,10.2519,10.2386,10.301,10.4578,10.6702,10.8319,10.9411,11.0793,11.1619,11.189,11.189,11.189,11.189,11.189,11.1816,11.1816,11.1509,11.0591,10.9008,10.8796,10.7881,10.6376,10.6376,10.6502,10.671,10.671,10.63,10.5689,10.4913,10.3889,10.29,10.2107,10.1086,10.0175,9.9599,9.8596,9.763,9.7628,9.7734,9.7892,9.7855,9.7855,9.7706,9.6852,9.6629,9.6294,9.4697,9.4251,9.3978,9.2957,9.2667,9.2565,9.218,9.2091,9.202,9.184,9.1803,9.1822,9.1858,9.295,9.4088,9.4817,9.4673,9.4178,9.3319,9.3109,9.3033,9.3033,9.3033,9.2613,9.1572,9.1484,9.1038,9.004,9.0926,9.1484,9.1484,9.2613,9.3229,9.3153,9.4796,9.5293,9.4594,9.6468,9.699,9.6223,9.6542,9.6687,8.4542,8.6954,8.8984,9.0227,9.1398,9.2394,9.2804,9.2667,9.1803,8.9442,8.6733,8.3867,8.0976,8.4265,8.8047,8.9942,9.6554,10.209,10.3799,10.521,10.5508,10.391,10.4486,10.4894,10.4297,10.4796,10.5583,10.6997,10.688,10.7914,11.0625,11.1111,11.1294,11.1397,11.1397,11.1397,11.1397,11.1397,11.1103,11.0499,11.0398,10.9509,10.7988,10.7887,10.7388,10.6376,10.6376,10.6502,10.671,10.6894,10.6189,10.509,10.4905,10.3905,10.2477,10.1984,10.089,9.958,9.9299,9.8699,9.8005,9.7706,9.7627,9.7568,9.7077,9.7372,9.7706,9.6852,9.7074,9.7186,9.5514,9.4967,9.4493,9.3034,9.2479,9.2215,9.2109,9.1984,9.1858,9.1822,9.1803,9.1947,9.2471,9.2814,9.3301,9.393,9.3975,9.3815,9.3521,9.2865,9.2439,9.2439,9.2439,9.2495,9.2651,9.2684,9.2537,9.229,9.2537,9.2684,9.2684,9.4152,9.4643,9.4021,9.5675,9.6745,9.7154,9.7172,9.7469,9.801,9.7005,9.6602,8.767,8.9232,9.0295,9.0709,9.097,9.0861,8.9662,8.8736,8.711,8.3443,8.0593,7.8039,7.5899,7.9333,8.3485,8.6515,9.3685,9.9896,10.2879,10.4393,10.5307,10.541,10.5987,10.6401,10.6617,10.7004,10.781,10.9215,10.8219,10.8502,11.0619,11.1001,11.1221,11.1221,11.1221,11.1221,11.1221,11.1221,11.0817,10.9995,10.9995,10.9187,10.7609,10.7609,10.7205,10.6376,10.6376,10.6601,10.6779,10.6995,10.6401,10.5523,10.519,10.4206,10.2907,10.2309,10.138,10.0492,9.964,9.9068,9.8592,9.7727,9.752,9.7478,9.68,9.6926,9.7149,9.6294,9.6443,9.6574,9.5523,9.5178,9.4835,9.3735,9.332,9.3141,9.3088,9.2684,9.2244,9.1877,9.1803,9.2059,9.2798,9.3142,9.3437,9.3784,9.4339,9.442,9.3497,9.3148,9.3005,9.3108,9.3328,9.335,9.3069,9.3235,9.3045,9.2439,9.2669,9.297,9.3209,9.4515,9.5268,9.5435,9.6745,9.765,9.8109,9.82,9.8331,9.8543,9.7792,9.7532,9.0232,9.0753,9.0988,9.0988,9.0192,8.8638,8.5802,8.383,8.1305,7.6773,7.4189,7.2605,7.2196,7.4684,7.8643,8.4205,8.9989,9.5808,10.1694,10.2521,10.3579,10.6817,10.6783,10.711,10.88,10.8914,10.9504,11.0983,11.0002,10.9592,11.0185,11.0803,11.1221,11.1221,11.1221,11.1221,11.1221,11.1111,11.0597,10.979,10.9679,10.8894,10.7425,10.7425,10.7095,10.6376,10.6376,10.659,10.7019,10.7019,10.6813,10.6325,10.5508,10.4616,10.3612,10.2685,10.2184,10.1792,10.0221,9.9499,9.9053,9.7747,9.732,9.7259,9.6565,9.6374,9.6223,9.5409,9.5352,9.5429,9.5146,9.5113,9.5082,9.4594,9.4485,9.443,9.4337,9.3749,9.3015,9.2134,9.206,9.2354,9.2978,9.363,9.4062,9.4062,9.5161,9.537,9.3647,9.3784,9.407,9.4152,9.4576,9.4402,9.3248,9.3604,9.325,9.1921,9.2495,9.3027,9.3414,9.4338,9.5477,9.6757,9.7616,9.8147,9.8262,9.9201,9.9308,9.8594,9.8769,9.8809,9.2934,9.2588,9.203,9.203,8.9915,8.7206,8.4975,8.1406,7.7216,7.265,7.0472,6.8531,6.5782,7.1153,7.7432,8.1828,8.8443,9.5447,10.2399,10.3307,10.4104,10.6423,10.7502,10.8388,10.9196,10.9592,11.0385,11.1893,11.1017,11.0598,11.1196,11.1199,11.1221,11.1221,11.1221,11.1221,11.1221,11.0487,10.979,10.8982,10.8285,10.7498,10.6596,10.6596,10.6486,10.6376,10.6376,10.659,10.7019,10.7019,10.6813,10.6325,10.5508,10.4709,10.3799,10.2816,10.2,10.1222,10.0093,9.9224,9.8503,9.7599,9.6769,9.5994,9.5326,9.5226,9.5146,9.4192,9.4985,9.5943,9.5084,9.5255,9.5497,9.4669,9.443,9.4337,9.4318,9.4189,9.3859,9.3015,9.3418,9.3712,9.3198,9.375,9.4246,9.4246,9.4943,9.5343,9.5111,9.4574,9.403,9.3543,9.3552,9.3737,9.4061,9.4761,9.4706,9.3615,9.4287,9.4409,9.3694,9.4959,9.583,9.6072,9.7415,9.8464,9.9152,9.9376,9.9453,9.9493,9.9511,9.9225,9.4324,9.3826,9.2979,9.2566,9.0012,8.6383,8.1627,7.729,7.2705,6.7195,6.5237,6.4123,6.2974,6.7773,7.3254,7.7344,8.3054,8.9775,9.7871,9.9155,10.1007,10.578,10.7293,10.8482,10.9794,11.0698,11.1515,11.2294,11.1815,11.1509,11.1518,11.1294,11.1221,11.1221,11.1221,11.1001,11.0597,11.0193,10.9408,10.8196,10.7792,10.7205,10.6376,10.6376,10.6497,10.6601,10.6601,10.6812,10.7215,10.7215,10.6614,10.5675,10.5396,10.4393,10.3297,10.2723,10.2315,10.1796,10.0518,9.9667,9.9076,9.7855,9.7063,9.6418,9.5661,9.5492,9.536,9.4459,9.4827,9.549,9.5367,9.5553,9.5755,9.568,9.5623,9.5437,9.4997,9.4923,9.4703,9.3896,9.4042,9.4299,9.4336,9.4666,9.4923,9.4923,9.586,9.6305,9.5579,9.5495,9.5134,9.4232,9.4053,9.4065,9.4234,9.4677,9.4789,9.4425,9.4231,9.4226,9.4462,9.4751,9.5639,9.7168,9.7883,9.8842,9.9992,9.9992,10.0104,10.0202,10.0202,10.0024,9.5238,9.4856,9.3918,9.3108,9.0085,8.5513,7.8711,7.3718,6.885,6.2843,6.102,6.0805,6.1581,6.4899,6.8954,7.3428,7.7883,8.3907,9.2917,9.4973,9.8111,10.5004,10.6992,10.8376,11.0211,11.1493,11.2287,11.2392,11.2193,11.1884,11.1518,11.1294,11.1221,11.1221,11.1221,11.0817,10.9995,10.979,10.8982,10.7609,10.7388,10.7021,10.6376,10.6376,10.6502,10.671,10.671,10.6918,10.7316,10.7316,10.658,10.5377,10.5285,10.4319,10.3019,10.2796,10.2721,10.2498,10.0901,10.0217,9.9794,9.8165,9.7337,9.6897,9.6196,9.5882,9.5587,9.4887,9.485,9.5146,9.5626,9.5865,9.6122,9.6577,9.6685,9.6539,9.5914,9.5749,9.5511,9.4703,9.4703,9.496,9.5418,9.5639,9.5749,9.5749,9.6858,9.7343,9.6322,9.6523,9.6418,9.5546,9.4833,9.4415,9.4328,9.4456,9.4594,9.4738,9.4081,9.4061,9.498,9.4521,9.5428,9.7942,9.8259,9.906,10.0399,10.0507,10.0604,10.0604,10.0604,10.0604,9.6082,9.5846,9.4874,9.4078,8.9738,8.4217,7.8565,7.2529,6.6757,6.1909,6.0277,5.9956,6.0768,6.306,6.6716,7.2384,7.5987,8.1399,9.0927,9.4573,9.8344,10.3799,10.6929,10.8903,10.9809,11.13,11.2189,11.221,11.2004,11.1811,11.1497,11.1294,11.1221,11.1221,11.1221,11.0817,10.9995,10.9276,10.8505,10.7609,10.6911,10.6507,10.6376,10.6376,10.6502,10.671,10.671,10.6918,10.7316,10.7316,10.6914,10.6195,10.5508,10.469,10.3799,10.3019,10.2721,10.2498,10.0901,10.0289,9.9993,9.82,9.6967,9.6141,9.5903,9.5404,9.4832,9.4448,9.5,9.5681,9.5568,9.6063,9.6631,9.6685,9.6685,9.6685,9.6612,9.6575,9.6355,9.5528,9.5988,9.6282,9.5602,9.6098,9.6575,9.6575,9.7228,9.7888,9.8352,9.7738,9.7223,9.7261,9.521,9.4069,9.4622,9.4884,9.4876,9.4558,9.5184,9.5184,9.4411,9.4856,9.5602,9.6646,9.7798,9.8875,9.9777,10.0301,10.0604,10.0604,10.0604,10.0604,9.4467,9.5665,9.5665,9.3913,8.9542,8.4101,7.7948,7.1603,6.5796,6.1458,5.9543,5.9028,6.0316,6.1418,6.3713,6.8524,7.0362,7.4214,8.2849,8.6133,9.0786,9.9221,10.2885,10.6099,10.9507,11.0993,11.161,11.1293,11.1206,11.081,11.0112,11.078,11.1221,11.1221,11.0707,11.0083,10.9276,10.8526,10.7719,10.6911,10.6617,10.6376,10.6376,10.6376,10.6585,10.6914,10.6914,10.7118,10.7491,10.7491,10.7103,10.6325,10.5508,10.469,10.391,10.3,10.2721,10.2498,10.0901,10.0307,9.9992,9.8324,9.7512,9.7129,9.6786,9.6528,9.627,9.5994,9.6196,9.6473,9.6265,9.6465,9.6685,9.6685,9.6685,9.6685,9.6685,9.6685,9.6612,9.6282,9.6502,9.6612,9.6282,9.6502,9.6724,9.6857,9.7427,9.8013,9.8408,9.8379,9.8312,9.8275,9.6046,9.4809,9.5339,9.5371,9.5531,9.5958,9.5772,9.566,9.5731,9.5516,9.5971,9.7186,9.7717,9.8539,9.9696,9.996,10.0493,10.1406,10.1406,10.1406,9.2048,9.4154,9.4777,9.2831,8.85,8.3141,7.7121,7.077,6.5044,6.119,5.9158,5.8495,5.9854,6.0366,6.17,6.5114,6.6717,6.9966,7.7004,8.0616,8.5836,9.4736,9.862,10.2591,10.7685,11.0098,11.1288,11.1213,11.0611,11.0113,10.9577,11.0186,11.0589,11.0487,10.99,10.9297,10.8526,10.7902,10.7205,10.6376,10.6376,10.6376,10.6376,10.6376,10.659,10.7019,10.7019,10.72,10.7606,10.7606,10.6975,10.5991,10.5396,10.4616,10.3501,10.2889,10.2721,10.2498,10.1106,10.0715,10.0418,9.9043,9.8449,9.8211,9.7908,9.7597,9.7339,9.7138,9.7045,9.6988,9.7037,9.7052,9.7052,9.7052,9.7052,9.6979,9.6759,9.6685,9.6685,9.6685,9.6685,9.6685,9.6685,9.6685,9.6762,9.697,9.7392,9.7847,9.825,9.8369,9.8539,9.8808,9.7044,9.5955,9.6303,9.6057,9.6134,9.686,9.6248,9.6098,9.6685,9.6171,9.6325,9.7372,9.7602,9.8252,9.9396,9.9842,10.0709,10.1891,10.2209,10.2285,8.904,9.105,9.1657,9.0849,8.6407,8.0938,7.6041,6.9912,6.4371,6.108,5.9228,5.8436,5.9258,6.0056,6.1196,6.2937,6.6455,7.065,7.5349,8.0646,8.6003,9.1258,9.4508,9.8515,10.4006,10.8508,11.1398,11.2415,11.0787,10.9993,11.0618,10.9687,10.9013,10.8799,10.8799,10.8395,10.7609,10.7609,10.7205,10.6376,10.6376,10.6376,10.6376,10.6376,10.659,10.7019,10.7019,10.72,10.7606,10.7606,10.6696,10.521,10.521,10.4207,10.2721,10.2721,10.2721,10.261,10.1793,10.1495,10.1384,10.0492,9.9749,9.9081,9.9081,9.84,9.7538,9.7339,9.7156,9.7135,9.7734,9.7897,9.7897,9.7897,9.7897,9.7676,9.6869,9.6685,9.6685,9.6685,9.6685,9.6685,9.6685,9.6685,9.6762,9.697,9.7007,9.7339,9.8184,9.7573,9.7478,9.877,9.811,9.7589,9.7597,9.7029,9.6694,9.6706,9.6685,9.6685,9.6685,9.6685,9.6685,9.6705,9.7373,9.8043,9.8695,10.0199,10.119,10.1891,10.2782,10.3214,8.0959,8.3119,8.3948,8.1986,7.8919,7.5249,7.0954,6.6659,6.2829,6.015,5.9231,5.9145,5.9928,6.0295,6.2108,6.7109,6.7985,6.992,7.5289,8.0386,8.5874,9.2145,10.1204,10.7607,10.9408,11.0315,11.089,11.1198,11.0306,10.95,10.8815,10.8687,10.8722,10.882,10.8306,10.7902,10.7609,10.7095,10.6691,10.6376,10.6376,10.6376,10.6376,10.6376,10.6507,10.6776,10.6901,10.7215,10.7396,10.688,10.6511,10.5916,10.4802,10.4096,10.3501,10.2889,10.2721,10.261,10.1793,10.1495,10.131,9.9935,9.9675,9.9712,9.8598,9.808,9.7734,9.7413,9.7156,9.6988,9.7073,9.7089,9.7089,9.7089,9.7493,9.7823,9.7566,9.7933,9.8475,9.8928,9.8667,9.8666,9.9618,9.8984,9.8425,9.8652,9.8333,9.8041,9.8032,9.8124,9.8426,9.9146,9.9378,9.901,9.7884,9.7636,9.7344,9.6934,9.6914,9.6838,9.6685,9.6685,9.6685,9.6685,9.7373,9.8043,9.8717,10.0199,10.1811,10.3622,10.389,10.4004,7.4325,7.7208,7.8316,7.6775,7.4368,7.1445,6.8031,6.4714,6.1728,5.9636,5.9011,5.9046,5.9866,6.027,6.1912,6.6261,6.7388,6.9311,7.4017,7.9745,8.6313,9.3994,10.3194,10.9218,10.9787,11.0508,11.099,11.1306,11.0219,10.9214,10.8609,10.8287,10.8097,10.812,10.7594,10.7195,10.7073,10.6691,10.6376,10.6376,10.6376,10.6376,10.6376,10.6376,10.6502,10.671,10.6816,10.6911,0.0,10.6414,10.5989,10.5396,10.4393,10.3799,10.3409,10.2907,10.2721,10.2592,10.2109,10.2015,10.1793,10.0789,10.0418,10.0009,9.8375,9.7892,9.7822,9.7394,9.7433,9.7487,9.7203,9.7603,9.797,9.7676,9.8227,9.8704,9.8411,9.8956,9.9593,9.9993,9.9996,10.0211,10.0987,10.0504,9.9972,10.0178,9.9744,9.9354,9.9406,9.9267,9.9434,10.0183,10.0303,9.9985,9.898,9.855,9.8101,9.7441,9.723,9.7045,9.6914,9.7101,9.7174,9.7174,9.8052,9.8846,9.9546,10.1291,10.3109,10.4921,10.4921,10.4921,0.0,7.235,7.3876,7.3876,7.1615,6.8788,6.6512,6.3576,0.0,5.9343,5.8591,5.8462,5.9467,6.0229,6.1137,6.2499,6.5761,6.9233,7.2478,7.9651,8.7861,9.6791,10.1701,10.4914,10.6397,10.9418,11.1506,11.2286,11.0189,10.9088,10.9707,10.8188,10.72,10.7019,10.6816,10.659,10.6397,10.6397,10.6397,10.6376,10.6376,10.6376,10.6376,10.6376,10.6502,10.6689,10.6689,10.6512,10.6111,10.6,10.5208,10.3984,10.391,10.339,10.2721,10.2721,10.2721,10.2721,10.2721,10.2721,10.2721,10.2592,10.1495,9.9861,9.8394,9.7912,9.7805,9.7468,9.7913,9.8392,9.8086,9.9071,9.9989,9.9292,9.9695,10.0099,9.9365,9.976,10.0285,10.0301,10.0902,10.1387,10.1496,10.138,10.1396,10.1596,10.1175,10.1105,10.1787,10.0797,10.0485,10.1604,10.0998,10.0589,10.0585,9.9676,9.8832,9.8161,9.7621,9.7303,9.7285,9.778,9.8033,9.8091,9.9376,10.0405,10.1205,10.3312,10.4807,10.5711,10.5711,10.5711,5.9626,0.0,6.382,6.382,6.3246,6.2365,0.0,5.9832,5.8547,5.7581,5.7726,5.8851,6.152,6.163,6.3663,7.0702,7.1524,7.3074,7.8169,8.6998,9.5208,10.1308,10.5674,10.8003,10.7788,10.9206,11.0308,11.0615,10.9594,10.8903,10.8817,10.7991,10.7394,10.6982,10.7118,10.6978,10.659,10.659,10.6601,10.6376,10.6376,10.6376,10.6376,10.6376,10.6418,10.6518,10.659,10.6374,10.5785,10.5406,10.4689,10.391,10.3316,10.2907,10.2721,10.2721,10.2721,10.2721,10.2721,10.2721,10.2592,10.2015,10.0307,9.8469,9.855,9.8181,9.7757,9.8097,9.8245,9.837,9.8726,9.9108,9.9328,9.9145,9.9695,10.0209,10.0099,10.109,10.2212,10.2707,10.29,10.342,10.4486,10.3676,10.3101,10.3189,10.2592,10.2213,10.1906,10.1598,10.1498,10.1717,10.1483,10.1289,10.1109,10.0112,9.9164,9.8375,9.7812,9.7448,9.7285,9.7789,9.8354,9.889,10.0707,10.2281,10.3591,10.4096,10.4807,10.5711,10.5711,10.5711,5.5464,5.8535,6.1508,6.1508,6.1814,6.1887,6.1031,5.9673,5.8327,5.7519,5.7997,5.9318,6.1777,6.3135,6.5668,7.1233,7.3532,7.7466,8.5496,9.1763,9.7948,10.4291,10.6605,10.7899,10.8713,10.942,10.9821,10.9994,10.9313,10.8793,10.8696,10.7994,10.751,10.7296,10.7394,10.722,10.6779,10.6779,10.6714,10.6486,10.6486,10.6481,10.6376,10.6376,10.6376,10.6397,10.6098,10.5699,10.5078,10.4493,10.3909,10.339,10.2907,10.2721,10.2721,10.2721,10.2721,10.2721,10.2721,10.2498,10.2015,10.0789,9.9436,9.8308,9.8257,9.8058,9.795,9.8281,9.8832,9.9288,9.9147,9.9659,10.0099,9.9732,10.0283,10.089,10.089,10.2019,10.3187,10.3496,10.4101,10.4812,10.5587,10.5108,10.4605,10.4581,10.4102,10.3705,10.3806,10.3193,10.2804,10.2714,10.2397,10.1918,10.1298,10.0285,9.9404,9.8974,9.8418,9.8101,9.8129,9.8883,9.9992,10.1592,10.2682,10.3897,10.4998,10.4998,10.5189,10.5711,10.5711,10.5711,5.462,5.8976,6.3013,6.2242,6.2989,6.3649,6.2646,6.0664,5.8829,5.8143,5.8535,5.971,6.1924,6.4824,6.7687,7.0146,7.527,8.246,9.2445,9.514,9.8651,10.5589,10.6017,10.6508,10.8519,10.9091,10.931,10.9387,10.8899,10.8701,10.8701,10.8015,10.7606,10.7606,10.7606,10.7415,10.7099,10.7116,10.6901,10.6714,10.6693,10.6606,10.6381,10.6397,10.6302,10.6192,10.5401,10.4804,10.4206,10.3505,10.2997,10.2593,10.2593,10.2593,10.2593,10.2611,10.2611,10.2593,10.2593,10.1999,10.0997,9.9623,9.8886,9.8426,9.7742,9.7931,9.8369,9.835,9.9398,10.0389,9.9661,10.0503,10.1274,10.0613,10.098,10.1514,10.1514,10.2499,10.3505,10.3582,10.461,10.5587,10.5699,10.5711,10.5711,10.5711,10.5306,10.5204,10.5701,10.4885,10.4121,10.3788,10.2997,10.2201,10.1318,10.029,9.9731,9.9635,9.9081,9.8953,9.9421,10.0495,10.2199,10.4506,10.4706,10.5092,10.571,10.5686,10.5711,10.5711,10.5711,10.5711,5.6492,6.1117,6.393,5.9758,6.0896,6.2609,6.1117,5.9428,5.8143,5.8033,5.8107,5.9722,6.4824,6.7283,7.066,7.7099,8.2847,8.8727,9.4979,9.7969,10.0576,10.3413,10.5198,10.612,10.5808,10.6612,10.7226,10.7408,10.7516,10.7503,10.7503,10.7604,10.7606,10.7606,10.7606,10.7587,10.7492,10.7318,10.7215,10.6995,10.6792,10.6689,10.6611,10.6497,10.6009,10.529,10.5201,10.4407,10.3215,10.3104,10.2689,10.22,10.22,10.22,10.2182,10.2407,10.2314,10.22,10.22,10.1221,9.9927,9.9668,9.8651,9.7488,9.7175,9.8076,9.9196,9.9022,9.9625,10.0506,10.1,10.1274,10.1514,10.131,10.1404,10.1514,10.1514,10.2202,10.291,10.3484,10.4222,10.5016,10.5599,10.5711,10.5711,10.5711,10.5586,10.5384,10.4984,10.5011,10.4488,10.3305,10.2603,10.1797,10.0999,10.0712,10.0407,9.99,9.9345,9.9588,10.0816,10.2117,10.3191,10.4125,10.5197,10.5801,10.5892,10.5811,10.5711,10.5711,10.5711,10.5711,5.4656,5.8646,6.1789,6.0812,6.4348,6.7724,6.6545,6.4693,6.3192,6.3198,6.3548,6.4835,6.7884,7.1144,7.5928,8.3679,8.827,9.2463,9.7138,9.8787,10.0715,10.3793,10.458,10.5108,10.5699,10.6287,10.6714,10.6816,10.6982,10.7101,10.7101,10.7298,10.7415,10.7415,10.7511,10.7606,10.7606,10.7492,10.7412,10.7215,10.7116,10.6898,10.671,10.6606,10.6003,10.5107,10.4593,10.3893,10.2991,10.2492,10.2298,10.2104,10.2104,10.2104,10.2086,10.2219,10.22,10.2012,10.1089,10.0313,9.9612,9.9168,9.8466,9.7838,9.8205,9.9048,9.985,9.9752,10.0319,10.098,10.1404,10.1514,10.1514,10.1514,10.1514,10.1514,10.1514,10.2107,10.2681,10.2998,10.3901,10.4695,10.4994,10.5409,10.5587,10.5215,10.5085,10.4885,10.4317,10.4279,10.4015,10.2885,10.2714,10.2195,10.1386,10.108,10.0903,10.0594,10.0484,10.0788,10.1802,10.3195,10.4181,10.471,10.5512,10.5909,10.5889,10.5785,10.5711,10.5711,10.5306,10.5085,5.3948,5.7141,6.0433,6.3257,6.7403,7.0946,7.1431,6.9463,6.7838,6.8762,6.9341,7.0033,7.1268,7.5857,8.1778,8.8751,9.2475,9.5768,9.9438,10.0094,10.1602,10.5007,10.4714,10.4801,10.6297,10.6486,10.659,10.659,10.6796,10.6901,10.6901,10.7101,10.72,10.72,10.7394,10.751,10.7511,10.7511,10.7491,10.7394,10.7296,10.7116,10.6792,10.6689,10.5992,10.4798,10.421,10.3395,10.2617,10.1991,10.1776,10.2006,10.2006,10.2008,10.199,10.1988,10.2008,10.1805,10.0606,9.9996,9.9738,9.9111,9.8703,9.8532,9.9121,9.9777,10.0283,10.0283,10.0927,10.1514,10.1514,10.1514,10.1514,10.1514,10.1514,10.1514,10.1514,10.1897,10.2408,10.2592,10.3381,10.4214,10.4288,10.4816,10.5005,10.4504,10.4393,10.4199,10.3593,10.3598,10.3298,10.2611,10.2502,10.2288,10.1716,10.141,10.1387,10.1483,10.1499,10.1799,10.2399,10.3723,10.4586,10.5115,10.5595,10.5786,10.5886,10.5797,10.5611,10.5409,10.5085,10.4713,5.7508,6.0089,6.2401,6.6349,6.658,6.6941,7.1244,6.9771,6.8546,7.2211,7.244,7.2691,7.5124,8.1454,8.7458,9.1015,9.5583,9.9548,10.2118,10.3708,10.5102,10.6192,10.6202,10.6276,10.6413,10.6397,10.6397,10.6397,10.6606,10.6693,10.6693,10.6918,10.7002,10.7002,10.7002,10.7101,10.7298,10.7298,10.7376,10.7587,10.7218,10.7019,10.7015,10.6606,10.5516,10.399,10.388,10.3019,10.1608,10.1477,10.1497,10.1517,10.1517,10.1711,10.1793,10.1578,10.1711,10.1793,10.1504,10.0893,10.0212,10.0175,9.9661,9.9054,9.9091,9.9659,10.0283,10.0283,10.0927,10.1514,10.1514,10.1514,10.1514,10.1514,10.1514,10.1514,10.1514,10.1517,10.1795,10.2482,10.2718,10.2891,10.3603,10.3711,10.3689,10.3679,10.3716,10.3381,10.2789,10.2805,10.2718,10.1881,10.15,10.1404,10.1509,10.1511,10.179,10.2496,10.1885,10.1885,10.2608,10.3414,10.3994,10.46,10.4994,10.5383,10.6012,10.5807,10.5307,10.4704,10.5406,10.5007,5.5306,5.8841,6.2338,6.5372,6.8345,7.1223,7.394,7.5151,7.6566,7.9594,7.9898,7.9911,8.0922,8.4206,8.7993,9.1862,9.566,9.9255,10.2293,10.3696,10.4687,10.5495,10.6082,10.6376,10.6376,10.6376,10.6376,10.6376,10.6497,10.6502,10.6502,10.671,10.6796,10.6796,10.6901,10.7002,10.7081,10.7081,10.7215,10.72,10.7218,10.7101,10.6998,10.6693,10.5583,10.388,10.388,10.2999,10.1514,10.1514,10.1514,10.1514,10.1514,10.1517,10.1614,10.1497,10.1517,10.1484,10.0983,10.0596,10.0283,10.0283,10.0099,9.9952,10.0393,10.0796,10.098,10.098,10.1294,10.1514,10.1514,10.1514,10.1514,10.1514,10.1514,10.1514,10.1514,10.1514,10.1614,10.1893,10.2278,10.2718,10.2891,10.3318,10.3489,10.2995,10.3018,10.2698,10.2011,10.1972,10.1895,10.1617,10.1693,10.1926,10.2202,10.2183,10.2387,10.2721,10.2424,10.2387,10.2721,10.3292,10.3802,10.4016,10.4709,10.5497,10.621,10.6387,10.6617,10.6779,10.669,10.6312,5.517,5.851,6.2326,6.523,6.9865,7.4403,7.72,7.9305,8.1543,8.4705,8.4888,8.4495,8.4547,8.5905,8.8308,9.2244,9.5703,9.8989,10.2186,10.3483,10.44,10.4913,10.5783,10.6376,10.6376,10.6376,10.6376,10.6376,10.6376,10.6376,10.6376,10.6486,10.6606,10.6606,10.6677,10.68,10.6898,10.6898,10.6901,10.7019,10.7079,10.7002,10.6898,10.671,10.5604,10.388,10.388,10.2999,10.1514,10.1514,10.1514,10.1514,10.1514,10.1514,10.1514,10.1514,10.1514,10.1404,10.0927,10.0686,10.0686,10.0686,10.0686,10.0796,10.1274,10.1514,10.1514,10.1514,10.1514,10.1514,10.1514,10.1514,10.1514,10.1514,10.1514,10.1514,10.1514,10.1514,10.1514,10.1514,10.1895,10.2296,10.2296,10.2608,10.2787,10.2297,10.2296,10.2088,10.1594,10.1514,10.1497,10.1594,10.191,10.2201,10.2593,10.2722,10.2721,10.2721,10.2721,10.2721,10.2721,10.3107,10.3502,10.3592,10.4184,10.5022,10.5998,10.6381,10.6905,10.7514,10.7606,10.7288,5.8217,5.9758,6.2634,6.6709,7.0784,7.5272,8.0783,8.1267,8.186,8.6503,8.6327,8.5341,8.5341,8.6714,8.8991,9.2362,9.6025,9.9382,10.1993,10.3787,10.4811,10.4811,10.5699,10.6376,10.6376,10.6376,10.6376,10.6376,10.6376,10.6376,10.6376,10.6376,10.6376,10.6376,10.6376,10.6481,10.671,10.671,10.6776,10.6998,10.6812,10.671,10.6689,10.6481,10.5495,10.388,10.388,10.2999,10.1514,10.1514,10.1514,10.1514,10.1514,10.1514,10.1514,10.1514,10.1514,10.1514,10.1514,10.1514,10.1514,10.1514,10.1514,10.1514,10.1514,10.1514,10.1514,10.1514,10.1514,10.1514,10.1514,10.1514,10.1514,10.1514,10.1514,10.1514,10.1514,10.1514,10.1514,10.1514,10.1514,10.1514,10.1514,10.1514,10.1514,10.1514,10.1514,10.1514,10.1514,10.1514,10.1594,10.181,10.1988,10.22,10.2389,10.2593,10.2703,10.2703,10.2703,10.2703,10.2703,10.2703,10.2899,10.3393,10.3316,10.3822,10.4989,10.5611,10.599,10.6185,10.7721,10.7614,5.6686,6.0578,6.5742,6.8641,7.5432,8.2045,8.4753,8.547,8.6374,8.923,8.9011,8.8132,8.7453,8.7551,8.891,9.2525,9.4921,9.7494,10.0801,10.218,10.2895,10.2895,10.3781,10.4384,10.4384,10.5117,10.5495,10.5495,10.6082,10.6376,10.6376,10.6376,10.6376,10.6376,10.6376,10.6418,10.6481,10.5893,10.5583,10.5703,10.4995,10.5094,10.5789,10.5599,10.4614,10.3109,10.3696,10.2999,10.1514,10.1514,10.1514,10.1514,10.1514,10.1514,10.1514,10.1514,10.1514,10.1514,10.1514,10.1514,10.1514,10.1514,10.1514,10.1514,10.1514,10.1514,10.1514,10.1514,10.1514,10.1514,10.1514,10.1514,10.1514,10.1514,10.1514,10.1514,10.1514,10.1514,10.1514,10.1514,10.1514,10.1514,10.1514,10.1514,10.1514,10.1514,10.1514,10.1514,10.1514,10.1514,10.1594,10.181,10.1889,10.2006,10.2181,10.222,10.2295,10.2295,10.2295,10.2314,10.2501,10.2501,10.2482,10.2482,10.3386,10.3988,10.4403,10.6089,10.7207,10.7691,10.8818,10.8993,6.0615,6.4787,6.9926,7.4294,8.0021,8.5504,8.889,8.9666,8.994,9.1005,9.0359,8.9357,8.8572,8.8037,8.876,9.2,9.4089,9.6281,9.917,10.0892,10.1894,10.1894,10.2901,10.3604,10.3604,10.4196,10.4798,10.5107,10.5605,10.6009,10.6397,10.6376,10.6376,10.6376,10.6082,10.5899,10.5899,10.4997,10.4614,10.4614,10.41,10.4109,10.4416,10.4603,10.3917,10.2705,10.2889,10.2375,10.1514,10.1514,10.1514,10.1514,10.1514,10.1514,10.1514,10.1514,10.1514,10.1514,10.1514,10.1514,10.1514,10.1514,10.1514,10.1514,10.1514,10.1514,10.1514,10.1514,10.1514,10.1514,10.1514,10.1514,10.1514,10.1514,10.1514,10.1514,10.1514,10.1514,10.1514,10.1514,10.1514,10.1514,10.1514,10.1514,10.1514,10.1514,10.1719,10.1897,10.1897,10.2184,10.2426,10.2481,10.2278,10.2314,10.2389,10.222,10.2104,10.2104,10.2104,10.2086,10.2218,10.222,10.22,10.1988,10.2795,10.3279,10.3482,10.5483,10.6812,10.7601,10.8688,10.9192,6.6993,7.033,7.4368,8.1583,8.4519,8.7133,9.2929,9.361,9.2785,9.2224,9.0899,8.9747,8.916,8.8464,8.8774,9.1166,9.3491,9.5611,9.744,9.9885,10.151,10.1619,10.2606,10.3321,10.3305,10.3625,10.4116,10.4813,10.4887,10.529,10.6082,10.6213,10.6213,10.6213,10.5422,10.4997,10.4997,10.421,10.3806,10.3806,10.3696,10.3293,10.2595,10.3403,10.3403,10.2705,10.1788,10.1494,10.1624,10.1514,10.1514,10.1514,10.1514,10.1514,10.1514,10.1514,10.1514,10.1514,10.1514,10.1514,10.1404,10.1514,10.1514,10.1404,10.1514,10.1514,10.1514,10.1514,10.1514,10.1514,10.1514,10.1514,10.1514,10.1514,10.1514,10.1514,10.1514,10.1514,10.1514,10.1514,10.1514,10.1514,10.1514,10.1514,10.1497,10.1614,10.2202,10.2609,10.2718,10.3201,10.3598,10.3598,10.3204,10.2987,10.2991,10.2501,10.2086,10.2213,10.2102,10.2006,10.181,10.2006,10.1988,10.181,10.181,10.2115,10.2595,10.4088,10.5303,10.6084,10.7577,10.8302,6.2267,6.7777,7.5028,8.1729,8.8299,9.3693,9.5684,9.5947,9.5347,9.3745,9.2802,9.197,9.1001,9.04,9.0536,9.1897,9.3024,9.4696,9.7393,9.8825,9.9832,10.039,10.0907,10.118,10.1408,10.2203,10.2887,10.3199,10.3806,10.421,10.4394,10.4394,10.4394,10.4394,10.4284,10.421,10.421,10.3403,10.2999,10.2999,10.2301,10.1898,10.1808,10.2595,10.2889,10.2705,10.1788,10.1918,10.2412,10.1808,10.1514,10.1514,10.1514,10.1514,10.1514,10.1514,10.1514,10.1514,10.1514,10.111,10.0706,10.1294,10.111,10.0686,10.1274,10.1514,10.1514,10.1514,10.1514,10.1514,10.1514,10.1514,10.1514,10.1514,10.1514,10.1514,10.1514,10.1514,10.1514,10.1514,10.1514,10.1514,10.1514,10.1514,10.1697,10.2315,10.2519,10.2806,10.3302,10.35,10.3598,10.3598,10.35,10.35,10.3593,10.2889,10.2517,10.2593,10.2002,10.1578,10.1611,10.181,10.181,10.1611,10.2179,10.2305,10.1808,10.3386,10.4487,10.5322,10.6214,10.6995,6.418,6.9936,7.6864,8.5343,9.1492,9.5712,9.6539,9.6685,9.6397,9.54,9.4408,9.3365,9.2332,9.1458,9.1126,9.1758,9.2945,9.4309,9.5854,9.7582,9.8872,9.9308,9.9778,10.0103,10.0193,10.1085,10.1905,10.2396,10.2799,10.3206,10.3677,10.3808,10.3813,10.388,10.3513,10.3293,10.3293,10.2485,10.2081,10.2081,10.1698,10.1514,10.1514,10.1898,10.2081,10.2081,10.1698,10.1677,10.2081,10.1698,10.1514,10.1514,10.1514,10.1514,10.1514,10.1514,10.1514,10.1514,10.1514,10.12,10.0907,10.1404,10.12,10.1,10.1404,10.1514,10.1514,10.1514,10.1514,10.1624,10.2008,10.2081,10.2081,10.2081,10.1808,10.1514,10.1514,10.1514,10.1514,10.1514,10.1514,10.1514,10.1514,10.1514,10.1812,10.25,10.2895,10.3302,10.3994,10.4378,10.4605,10.4605,10.4304,10.3994,10.3679,10.3012,10.25,10.2105,10.1677,10.1514,10.1514,10.1614,10.1614,10.1514,10.1898,10.1898,10.1514,10.2705,10.372,10.4489,10.5302,10.6095,6.5911,7.2141,7.8956,8.905,9.3345,9.529,9.6098,9.6392,9.6502,9.6502,9.5595,9.4481,9.3445,9.2357,9.1685,9.1725,9.3149,9.4314,9.4503,9.6646,9.8245,9.839,9.899,9.9391,9.9391,9.9995,10.0688,10.1584,10.1715,10.2107,10.308,10.3101,10.3206,10.3414,10.2791,10.2481,10.2485,10.1788,10.1514,10.1514,10.1514,10.1514,10.1514,10.1514,10.1514,10.1514,10.1514,10.1514,10.1514,10.1514,10.1514,10.1514,10.1514,10.1514,10.1514,10.1514,10.1514,10.1514,10.1514,10.1404,10.1274,10.1514,10.1404,10.129,10.1295,10.1307,10.1396,10.1195,10.1299,10.1597,10.238,10.2495,10.25,10.2701,10.2081,10.1514,10.1514,10.1514,10.1514,10.1514,10.1514,10.1514,10.1514,10.1514,10.1812,10.25,10.3187,10.38,10.4486,10.5191,10.5711,10.5711,10.5201,10.4504,10.3888,10.3213,10.2501,10.1795,10.1587,10.1514,10.1514,10.1514,10.1514,10.1514,10.1514,10.1514,10.1514,10.2191,10.2999,10.388,10.4614,10.5422,5.8164,6.8349,8.0277,8.8683,9.2097,9.3639,9.4446,9.5144,9.5639,9.5639,9.5938,9.5842,9.4741,9.4284,9.3836,9.3167,9.3862,9.4781,9.5698,9.6706,9.7625,9.8317,9.8479,9.8552,9.8552,9.8682,9.9047,9.987,9.9943,10.0308,10.1095,10.1204,10.1309,10.1596,10.1486,10.1495,10.1698,10.1587,10.1514,10.1514,10.1514,10.1514,10.1514,10.1514,10.1514,10.1514,10.1514,10.1514,10.1514,10.1514,10.1514,10.1514,10.1514,10.1514,10.1514,10.1514,10.1514,10.1514,10.1514,10.098,10.0576,10.1294,10.098,10.0399,10.0287,10.0587,10.099,10.0096,10.0279,10.1007,10.209,10.182,10.151,10.252,10.2081,10.1514,10.1514,10.1514,10.1514,10.1514,10.1514,10.1514,10.1514,10.1514,10.1812,10.25,10.3187,10.38,10.4486,10.5191,10.5711,10.5711,10.5611,10.5295,10.471,10.3892,10.3209,10.2586,10.1898,10.1514,10.1514,10.1514,10.1514,10.1514,10.1514,10.1514,10.1514,10.1624,10.2375,10.388,10.399,10.4908,6.2448,7.0367,7.8589,8.7142,9.0482,9.206,9.3345,9.4263,9.4813,9.4813,9.5031,9.5335,9.5801,9.4855,9.4122,9.4344,9.4633,9.505,9.5518,9.6372,9.7073,9.7382,9.7758,9.7953,9.7953,9.811,9.8386,9.875,9.8681,9.8805,9.9259,9.9696,10.0083,10.0509,10.1005,10.1193,10.1275,10.1295,10.1295,10.1295,10.1417,10.1514,10.1514,10.1514,10.1514,10.1514,10.1514,10.1514,10.1514,10.1514,10.1514,10.1514,10.1514,10.1514,10.1514,10.1514,10.1514,10.1514,10.1514,10.1294,10.098,10.1404,10.1294,10.0912,10.0209,10.0193,10.039,9.9755,9.9823,10.0505,10.2513,10.2402,10.201,10.3102,10.2779,10.2008,10.1624,10.1514,10.1514,10.1514,10.1514,10.1514,10.1514,10.1514,10.1812,10.25,10.2915,10.3305,10.4,10.4714,10.511,10.511,10.5498,10.5314,10.42,10.3786,10.3219,10.2092,10.1698,10.1514,10.1514,10.1514,10.1514,10.1514,10.1514,10.1514,10.1514,10.1514,10.2081,10.3219,10.3696,10.4504,6.4058,6.9141,7.3707,8.2847,8.6664,8.883,9.1289,9.2464,9.3161,9.3565,9.3639,9.4153,9.5804,9.5052,9.44,9.5145,9.5481,9.5668,9.5668,9.6301,9.6762,9.6762,9.7139,9.7349,9.7289,9.7536,9.7689,9.7803,9.767,9.7721,9.8009,9.8771,9.942,9.9878,10.0703,10.1184,10.1307,10.1307,10.1307,10.1307,10.1397,10.1514,10.1514,10.1514,10.1514,10.1514,10.1514,10.1514,10.1514,10.1514,10.1514,10.1514,10.1514,10.1514,10.1514,10.1514,10.1514,10.1514,10.1514,10.1514,10.1514,10.1514,10.1514,10.1315,10.0282,10.0107,10.0093,9.9407,9.9477,10.0209,10.2203,10.2296,10.2216,10.3202,10.2908,10.2191,10.1604,10.1514,10.1514,10.1514,10.1514,10.1514,10.1514,10.1514,10.1697,10.2184,10.25,10.2789,10.3305,10.3894,10.4288,10.4288,10.4816,10.47,10.3397,10.3298,10.2785,10.1614,10.1514,10.1514,10.1514,10.1514,10.1514,10.1514,10.1514,10.1514,10.1514,10.1677,10.2081,10.2705,10.3513,10.432,5.6135,5.9985,6.4604,7.4294,7.914,8.2737,8.7399,8.9069,9.0097,9.162,9.1913,9.2427,9.4116,9.494,9.5416,9.5471,9.6267,9.6932,9.6932,9.697,9.6989,9.6989,9.6837,9.6662,9.6487,9.6484,9.6615,9.6951,9.6946,9.7189,9.7796,9.8571,9.9186,9.9615,10.0417,10.0991,10.1494,10.1494,10.1494,10.1494,10.1514,10.1514,10.1514,10.1514,10.1514,10.1514,10.1514,10.1514,10.1514,10.1514,10.1514,10.1514,10.1514,10.1514,10.1514,10.1514,10.1514,10.1514,10.1514,10.1514,10.1514,10.1514,10.1514,10.1315,10.0282,10.0483,10.0597,9.8728,9.9201,10.0325,10.0501,10.0681,10.1103,10.2098,10.2007,10.1587,10.1514,10.1514,10.1514,10.1514,10.1514,10.1514,10.1514,10.1514,10.1477,10.1611,10.222,10.2591,10.259,10.3217,10.37,10.37,10.3679,10.3418,10.2717,10.2682,10.2278,10.1481,10.1514,10.1514,10.1514,10.1514,10.1514,10.1514,10.1514,10.1514,10.1514,10.2301,10.2705,10.2705,10.3513,10.432,5.5638,5.7851,6.0784,7.0023,7.511,7.8846,8.27,8.6187,8.8793,8.9381,8.9895,9.0427,9.1014,9.2684,9.4153,9.4666,9.557,9.6234,9.6234,9.6234,9.6418,9.6934,9.6378,9.6097,9.6552,9.6472,9.6425,9.6558,9.6295,9.6235,9.6442,9.7585,9.8438,9.8885,10.0104,10.0981,10.1291,10.1291,10.1291,10.1291,10.1397,10.1514,10.1514,10.1514,10.1514,10.1514,10.1514,10.1514,10.1514,10.1514,10.1514,10.1514,10.1514,10.1514,10.1514,10.1514,10.1514,10.1514,10.1514,10.1514,10.1514,10.1514,10.1514,10.1315,10.0282,10.0215,10.0215,9.9321,9.8964,9.9427,10.1802,10.1602,10.1115,10.2302,10.2003,10.1514,10.1514,10.1514,10.1514,10.1514,10.1514,10.1514,10.1514,10.1514,10.1514,10.1514,10.1699,10.1895,10.1895,10.2518,10.3,10.3,10.3298,10.3318,10.27,10.2591,10.2278,10.1481,10.1514,10.1514,10.1514,10.1514,10.1514,10.1514,10.1514,10.1808,10.2301,10.2595,10.2999,10.3513,10.3806,10.432,5.3045,5.4652,5.7427,6.6044,6.999,7.3419,7.9659,8.2961,8.5237,8.7166,8.8196,8.8897,8.9396,9.0919,9.2371,9.3382,9.4632,9.5497,9.5569,9.5515,9.5645,9.6216,9.5809,9.5712,9.6245,9.6423,9.6453,9.6394,9.6117,9.5858,9.5695,9.6856,9.7906,9.8849,10.0188,10.1101,10.1291,10.1291,10.1291,10.1291,10.1397,10.1514,10.1514,10.1514,10.1514,10.1514,10.1514,10.1514,10.1514,10.1514,10.1514,10.1514,10.1514,10.1514,10.1514,10.1514,10.1514,10.1514,10.1514,10.1514,10.1514,10.1514,10.1514,10.1393,10.0682,10.0512,10.0391,9.9876,9.9419,9.9661,10.1987,10.201,10.1527,10.2501,10.2081,10.1514,10.1514,10.1514,10.1514,10.1514,10.1514,10.1514,10.1514,10.1514,10.1514,10.1514,10.1514,10.1514,10.1514,10.1878,10.2184,10.2184,10.2608,10.2716,10.2315,10.2184,10.1993,10.1497,10.1514,10.1514,10.1514,10.1514,10.1514,10.1514,10.1514,10.2008,10.3109,10.3109,10.3403,10.388,10.388,10.421,0.0,0.0,0.0,6.1922,6.3419,6.6148,7.8004,7.9089,7.9157,8.488,8.6689,8.771,8.931,8.9762,9.0384,9.1759,9.3541,9.479,9.502,9.488,9.4755,9.4792,9.5184,9.5455,9.5492,9.6208,9.6608,9.6414,9.6394,9.6197,9.5715,9.6458,9.7725,9.9521,10.0589,10.1218,10.1514,10.1514,10.1514,10.1514,10.1514,10.1514,10.1514,10.1514,10.1514,10.1514,10.1514,10.1514,10.1514,10.1514,10.1514,10.1514,10.1514,10.1514,10.1514,10.1514,10.1514,10.1514,10.1514,10.1514,10.1514,10.1514,10.1514,10.1514,10.1514,10.1514,10.1295,10.0304,10.0505,10.0996,10.0888,10.1602,10.2381,10.272,10.2081,10.1514,10.1514,10.1514,10.1514,10.1514,10.1514,10.1514,10.1514,10.1514,10.1514,10.1514,10.1514,10.1514,10.1514,10.1514,10.1514,10.1514,10.1514,10.1514,10.1514,10.1514,10.1514,10.1514,10.1514,10.1514,10.1514,10.1514,10.1514,10.1514,10.1514,10.2301,10.388,10.388,10.388,10.399,10.399,10.4011,4.893,0.0,0.0,0.0,0.0,0.0,6.7463,7.0354,7.3356,7.9711,8.108,8.235,8.6347,8.7494,8.8196,8.933,9.1634,9.347,9.3955,9.3959,9.4092,9.4613,9.4117,9.4226,9.5382,9.5675,9.6023,9.6572,9.6472,9.6256,9.5939,9.6541,9.7434,9.8698,9.92,9.9862,10.0613,10.0613,10.0907,10.1514,10.1514,10.1514,10.1514,10.1514,10.1514,10.1514,10.1514,10.1514,10.1514,10.1514,10.1514,10.1514,10.1514,10.1514,10.1514,10.1514,10.1514,10.1514,10.1514,10.1514,10.1514,10.1514,10.1514,10.1514,10.1514,10.1514,10.1417,10.1209,10.07,10.0583,10.1708,10.3101,10.4189,10.3708,10.2999,10.2191,10.1604,10.1514,10.1514,10.1514,10.1514,10.1514,10.1514,10.1514,10.1514,10.1514,10.1514,10.1514,10.1514,10.1514,10.1514,10.1514,10.1514,10.1514,10.1514,10.1514,10.1514,10.1514,10.2008,10.2412,10.2412,10.2412,10.2412,10.2412,10.2412,10.2889,10.388,10.388,10.4504,10.5678,10.5678,10.5385,5.1008,5.1343,5.2872,5.5323,0.0,0.0,6.5287,6.7197,6.9392,7.6614,7.8301,7.9599,8.336,8.4389,8.5211,8.6711,8.8377,9.0224,9.232,9.282,9.31,9.3509,9.329,9.3492,9.441,9.5088,9.5675,9.6171,9.6386,9.6375,9.602,9.6582,9.7216,9.788,9.8506,9.9276,10.0283,10.0283,10.0686,10.1514,10.1514,10.1514,10.1514,10.1514,10.1514,10.1514,10.1514,10.1514,10.1514,10.1514,10.1514,10.1514,10.1514,10.1514,10.1514,10.1514,10.1514,10.1514,10.1514,10.1514,10.1587,10.1898,10.1808,10.1587,10.1898,10.1808,10.1514,10.1514,10.1623,10.1894,10.3205,10.4089,10.4504,10.399,10.2999,10.2081,10.1624,10.1514,10.1514,10.1514,10.1514,10.1514,10.1514,10.1514,10.1514,10.1514,10.1514,10.1514,10.1514,10.1514,10.1604,10.1991,10.2008,10.2081,10.2505,10.2485,10.2485,10.2485,10.2889,10.3219,10.3219,10.3219,10.3219,10.3219,10.3219,10.3586,10.4394,10.4394,10.4908,10.5899,10.6192,10.5899,5.409,5.4006,0.0,5.9423,5.7523,0.0,6.6654,6.6492,6.6466,7.3805,7.6023,7.7404,7.9818,8.0532,8.1413,8.3372,8.4259,8.6109,9.0166,9.1302,9.1672,9.1654,9.2335,9.2868,9.2941,9.4336,9.5272,9.5345,9.606,9.6343,9.606,9.6509,9.6852,9.7118,9.8051,9.902,9.9989,10.0099,10.0576,10.1404,10.1514,10.1514,10.1514,10.1514,10.1514,10.1514,10.1514,10.1514,10.1514,10.1514,10.1514,10.1514,10.1514,10.1514,10.1514,10.1514,10.1514,10.1514,10.1514,10.1514,10.1604,10.2301,10.2081,10.1604,10.2301,10.2081,10.1514,10.1604,10.2705,10.41,10.4908,10.4614,10.399,10.388,10.2705,10.1604,10.1514,10.1514,10.1514,10.1514,10.1514,10.1514,10.1514,10.1514,10.1514,10.1514,10.1514,10.1514,10.1514,10.1587,10.1898,10.2595,10.2815,10.3109,10.3806,10.388,10.388,10.388,10.399,10.399,10.399,10.399,10.399,10.399,10.399,10.4394,10.518,10.518,10.518,10.5311,10.6009,10.6009,5.9028,5.9254,5.9841,5.7529,5.8767,0.0,5.7577,5.9477,6.2541,6.5335,6.6973,6.9218,7.3635,7.5418,7.6338,7.6768,8.0101,8.3894,8.7391,8.8621,8.907,8.89,9.0172,9.1363,9.1987,9.2978,9.3859,9.4483,9.4948,9.5522,9.6279,9.6101,9.6133,9.6535,9.6777,9.7371,9.8337,9.8998,9.9732,10.0503,10.122,10.1514,10.1514,10.1514,10.1514,10.1514,10.1514,10.1514,10.1514,10.1514,10.1514,10.1514,10.1514,10.1514,10.1514,10.1514,10.1514,10.1514,10.1514,10.1514,10.1514,10.1698,10.1604,10.1514,10.1698,10.1604,10.1604,10.2301,10.3182,10.41,10.4908,10.4997,10.4724,10.41,10.3182,10.2301,10.1604,10.1514,10.1514,10.1514,10.1514,10.1514,10.1514,10.1514,10.1514,10.1514,10.1514,10.1514,10.1514,10.2081,10.2522,10.2705,10.3293,10.3696,10.388,10.388,10.388,10.388,10.4504,10.4908,10.4908,10.4908,10.4908,10.4908,10.4908,10.5311,10.6119,10.6119,10.6119,10.6213,10.6302,10.6302,6.2457,6.1966,6.2322,6.1075,6.0518,0.0,0.0,5.9368,6.0344,6.4697,6.4205,6.4757,7.0395,7.0689,7.0731,7.2735,7.5742,7.845,8.0081,8.4205,8.7302,8.801,8.8157,8.8838,9.0446,9.1363,9.2537,9.4189,9.4747,9.5233,9.5753,9.5958,9.6157,9.6375,9.6492,9.7176,9.8484,9.8924,9.9695,10.0907,10.1274,10.1514,10.1514,10.1514,10.1514,10.1514,10.1514,10.1514,10.1514,10.1514,10.1514,10.1514,10.1514,10.1514,10.1514,10.1514,10.1514,10.1514,10.1514,10.1514,10.1587,10.2008,10.1788,10.1587,10.2008,10.1788,10.1698,10.2485,10.2999,10.3513,10.432,10.421,10.3806,10.3403,10.2705,10.2008,10.1624,10.1514,10.1514,10.1514,10.1788,10.2008,10.1587,10.1788,10.2081,10.2081,10.2412,10.2705,10.2705,10.2999,10.3513,10.3917,10.432,10.4687,10.5091,10.5091,10.5091,10.5091,10.5495,10.5715,10.5715,10.5715,10.5715,10.5715,10.5715,10.6009,10.6376,10.6376,10.6376,10.6376,10.6376,10.6376,6.6492,6.5324,6.552,6.573,6.3529,6.1721,0.0,0.0,0.0,6.477,6.2867,6.1948,6.7273,6.6184,6.5576,6.8829,7.123,7.2618,7.2389,7.856,8.3793,8.5561,8.5657,8.6337,8.8302,8.8923,9.0445,9.3382,9.3561,9.4052,9.5189,9.5955,9.6414,9.6453,9.6645,9.7309,9.8631,9.8961,9.9769,10.098,10.1404,10.1514,10.1514,10.1514,10.1514,10.1514,10.1514,10.1514,10.1514,10.1514,10.1514,10.1514,10.1514,10.1514,10.1514,10.1514,10.1514,10.1514,10.1514,10.1514,10.1624,10.2301,10.2008,10.1604,10.2301,10.2008,10.1698,10.2485,10.2705,10.2889,10.3696,10.3293,10.2705,10.2705,10.2081,10.1514,10.1514,10.1514,10.1514,10.1514,10.2118,10.2485,10.1788,10.2412,10.2925,10.2925,10.3513,10.388,10.388,10.399,10.4394,10.4997,10.5311,10.5605,10.6302,10.6376,10.6376,10.6376,10.6376,10.6376,10.6376,10.6376,10.6376,10.6376,10.6376,10.6376,10.6376,10.6376,10.6376,10.6376,10.6376,10.6376,7.3507,7.3016,7.2443,6.7663,6.9372,6.9533,5.9258,0.0,6.2474,5.8825,0.0,5.9795,6.1227,0.0,0.0,6.2606,6.6446,6.907,6.8357,7.1544,7.478,7.7119,8.1726,8.4846,8.5128,8.4592,8.6097,9.0702,8.8928,8.9953,9.5197,9.607,9.6472,9.6647,9.6666,9.6795,9.6979,9.8411,9.9181,9.9402,10.0796,10.1514,10.1514,10.1514,10.1514,10.1514,10.1514,10.1514,10.1514,10.1514,10.1514,10.1514,10.1514,10.1514,10.1514,10.1514,10.1514,10.1514,10.1514,10.1514,10.1514,10.1624,10.1587,10.1514,10.1604,10.1587,10.1698,10.2485,10.2705,10.2889,10.3696,10.3293,10.2705,10.2705,10.2081,10.1514,10.1514,10.1514,10.1514,10.1514,10.2118,10.2705,10.2595,10.3219,10.3806,10.3806,10.3806,10.388,10.388,10.4504,10.4997,10.5107,10.5789,10.6302,10.6376,10.6376,10.6376,10.6376,10.6376,10.6376,10.6376,10.6376,10.6376,10.6376,10.6376,10.6376,10.6376,10.6376,10.6376,10.6376,10.6376,10.6376,7.4043,7.4,7.4001,7.0275,6.9825,6.8626,6.2108,6.0625,6.0576,6.0309,0.0,0.0,0.0,0.0,0.0,0.0,6.3121,6.4759,6.297,6.6736,7.0905,7.4216,7.5974,7.816,8.1497,8.2333,8.4315,8.8225,8.7495,8.8778,9.3125,9.4958,9.6112,9.6685,9.6685,9.6906,9.7383,9.808,9.8888,9.9805,10.0503,10.098,10.1514,10.1514,10.1514,10.1514,10.1514,10.1514,10.1514,10.1514,10.1514,10.1514,10.1514,10.1514,10.1514,10.1514,10.1514,10.1514,10.1514,10.1514,10.1514,10.1514,10.1514,10.1514,10.1514,10.1514,10.1587,10.1898,10.2008,10.2081,10.2375,10.2322,10.2008,10.2008,10.1677,10.1514,10.1514,10.1514,10.1604,10.2081,10.2815,10.3513,10.4006,10.4394,10.4614,10.4614,10.5018,10.5406,10.5406,10.5605,10.5899,10.5899,10.6192,10.6376,10.6376,10.6376,10.6376,10.6376,10.6376,10.6376,10.6376,10.6376,10.6376,10.6376,10.6376,10.6376,10.6376,10.6376,10.6376,10.6376,10.6376,10.6376,7.5624,7.572,7.586,7.1937,6.977,6.7655,6.4214,6.163,6.0529,6.2426,6.0566,0.0,0.0,0.0,5.7997,5.9306,0.0,6.1852,5.9822,6.2905,6.6665,7.0216,7.1252,7.3354,7.7714,7.8772,8.0938,8.5049,8.4739,8.6427,9.1216,9.3602,9.5308,9.6355,9.6575,9.6979,9.7566,9.7806,9.8594,9.9989,10.0209,10.0686,10.1514,10.1514,10.1514,10.1514,10.1514,10.1514,10.1514,10.1514,10.1514,10.1514,10.1514,10.1514,10.1514,10.1514,10.1514,10.1514,10.1514,10.1514,10.1514,10.1514,10.1514,10.1514,10.1514,10.1514,10.1514,10.1514,10.1514,10.1514,10.1514,10.1514,10.1514,10.1514,10.1514,10.1514,10.1514,10.1514,10.1698,10.2301,10.3182,10.41,10.4687,10.5201,10.5495,10.5495,10.6009,10.6376,10.6376,10.6376,10.6376,10.6376,10.6376,10.6376,10.6376,10.6376,10.6376,10.6376,10.6376,10.6376,10.6376,10.6376,10.6376,10.6376,10.6376,10.6376,10.6376,10.6376,10.6376,10.6376,10.6376,10.6376,8.0702,8.0644,7.9725,7.2027,7.046,6.9199,6.3064,6.3429,6.4628,6.3123,6.4604,6.5705,6.4323,6.3246,0.0,0.0,6.1068,0.0,0.0,5.9858,6.0384,6.2865,6.8674,7.2834,7.378,7.2532,7.428,8.0718,7.8977,8.1436,9.0188,9.2244,9.3896,9.5492,9.6282,9.6722,9.6722,9.7493,9.83,9.9125,9.9916,10.0686,10.1514,10.1514,10.1514,10.1514,10.1514,10.1514,10.1514,10.1514,10.1514,10.1514,10.1514,10.1514,10.1514,10.1514,10.1514,10.1514,10.1514,10.1514,10.1514,10.1514,10.1514,10.1514,10.1514,10.1514,10.1514,10.1514,10.1514,10.1514,10.1514,10.1514,10.1514,10.1514,10.1514,10.1514,10.1514,10.1514,10.1514,10.1514,10.2779,10.388,10.388,10.5275,10.6397,10.6397,10.6397,10.6376,10.6376,10.6376,10.6376,10.6376,10.6376,10.6376,10.6376,10.6376,10.6376,10.6376,10.6376,10.6376,10.6376,10.6376,10.6376,10.6376,10.6376,10.6376,10.6376,10.6376,10.6376,10.6376,10.6376,10.6376,8.2264,8.2702,8.2202,7.611,7.3906,7.1788,6.6232,6.5756,6.5878,6.3719,6.5409,6.6636,6.4506,6.2952,0.0,0.0,0.0,0.0,0.0,5.6969,5.7703,6.015,6.4738,6.8274,6.961,7.0697,7.3325,7.8206,7.8809,8.1415,8.7105,9.1033,9.3345,9.3896,9.5731,9.6685,9.6685,9.6979,9.7493,9.83,9.9108,9.9916,10.0686,10.1294,10.1514,10.1514,10.1514,10.1574,10.1694,10.1611,10.1594,10.1694,10.1591,10.1514,10.1514,10.1514,10.1514,10.1514,10.1514,10.1514,10.1514,10.1514,10.1514,10.1514,10.1514,10.1514,10.1514,10.1514,10.1514,10.1514,10.1514,10.1514,10.1514,10.1514,10.1514,10.1514,10.1514,10.1514,10.1698,10.2191,10.2705,10.3293,10.3806,10.4798,10.5715,10.6302,10.6376,10.6376,10.6376,10.6376,10.6376,10.6376,10.6376,10.6376,10.6376,10.6376,10.6376,10.6376,10.6376,10.6376,10.6376,10.6376,10.6376,10.6376,10.6376,10.6376,10.6376,10.6376,10.6376,10.6376,10.6376,10.6376,8.4358,8.4631,8.403,7.8817,7.6584,7.4402,6.9303,6.8944,6.9149,6.7236,6.8099,6.9221,6.9139,6.5959,6.3282,0.0,0.0,0.0,0.0,5.5915,5.7042,5.8572,6.1851,6.4861,6.7076,6.8164,7.0866,7.6078,7.6937,7.958,8.5086,8.9454,9.2207,9.3088,9.5437,9.6685,9.6685,9.6685,9.7089,9.7916,9.8741,9.9512,10.0319,10.109,10.1514,10.1514,10.1514,10.1614,10.1793,10.1594,10.1578,10.181,10.1594,10.1514,10.1514,10.1514,10.1514,10.1514,10.1514,10.1514,10.1514,10.1514,10.149,10.1413,10.1494,10.149,10.1413,10.1494,10.1514,10.1514,10.1514,10.1514,10.1514,10.1514,10.1514,10.1514,10.1514,10.1514,10.1698,10.2191,10.2522,10.2999,10.3806,10.4614,10.529,10.5899,10.6192,10.6376,10.6376,10.6376,10.6376,10.6376,10.6376,10.6376,10.6376,10.6376,10.6376,10.6376,10.6376,10.6376,10.6376,10.6376,10.6376,10.6376,10.6376,10.6376,10.6376,10.6376,10.6376,10.6376,10.6376,10.6376]}]]